[[{"header":{"parameterUnit":"m.s-1","parameterCategory":1,"la1":30.6,"la2":29.2853,"lo1":-89.7004,"lo2":-87.6739,"dy":0.0162,"dx":0.0183,"nx":112,"ny":82,"refTime":"2024-05-29T12:00:00:Z","depth":0,"parameterNumber":2,"parameterNumberName":"U-component_of_WINDS"},"data":[0.0,0.0,0.0,0.0,0.0,0.0,0.0,0.0,0.0,0.0,0.0,0.0,0.0,0.0,0.0,0.0,0.0,0.0,0.0,0.0,0.0,0.0,0.0,0.0,0.0,0.0,0.0,0.0,0.0,0.0,0.0,0.0,0.0,0.0,0.0,0.0,0.0,0.0,0.0,0.0,0.0,0.0,0.0,0.0,0.0,0.0,0.0,0.0,0.0,0.0,0.0,0.0,0.0,0.0,0.0,0.0,0.0,0.0,0.0,0.0,0.0,0.0,0.0,0.0,0.0,0.0,0.0,0.0,0.0,0.0,0.0,0.0,0.0,0.0,0.0,0.0,0.0,0.0,0.0,0.0,0.0,0.0,0.0,0.0,0.0,0.0,0.0,0.0,0.0,0.0,1.9884,1.9602,1.8258,1.7394,1.7443,1.5793,1.5228,1.6322,0.0,0.0,0.0,0.0,0.0,0.0,0.0,0.0,0.0,0.0,0.0,0.0,0.0,0.0,0.0,0.0,0.0,0.0,0.0,0.0,0.0,0.0,0.0,0.0,0.0,0.0,0.0,0.0,0.0,0.0,0.0,0.0,0.0,0.0,0.0,0.0,0.0,0.0,0.0,0.0,0.0,0.0,0.0,0.0,0.0,0.0,0.0,0.0,0.0,0.0,0.0,0.0,0.0,0.0,0.0,0.0,0.0,0.0,0.0,0.0,0.0,0.0,0.0,0.0,0.0,0.0,0.0,0.0,0.0,0.0,0.0,0.0,0.0,0.0,0.0,0.0,0.0,0.0,0.0,0.0,0.0,0.0,0.0,0.0,0.0,0.0,0.0,0.0,0.0,0.0,0.0,0.0,0.0,0.0,0.0,0.0,0.0,0.0,0.0,0.0,0.0,0.0,0.0,0.0,2.0378,2.1881,2.0236,1.8762,1.811,1.6808,1.5964,1.5821,0.0,0.0,0.0,0.0,0.0,0.0,0.0,0.0,0.0,0.0,0.0,0.0,0.0,0.0,0.0,0.0,0.0,0.0,0.0,0.0,0.0,0.0,0.0,0.0,0.0,0.0,0.0,0.0,0.0,0.0,0.0,0.0,0.0,0.0,0.0,0.0,0.0,0.0,0.0,0.0,0.0,0.0,0.0,0.0,0.0,0.0,0.0,0.0,0.0,0.0,0.0,0.0,0.0,0.0,0.0,0.0,0.0,0.0,0.0,0.0,0.0,0.0,0.0,0.0,0.0,0.0,0.0,0.0,0.0,0.0,0.0,0.0,0.0,0.0,0.0,0.0,0.0,0.0,0.0,0.0,0.0,0.0,0.0,0.0,0.0,0.0,0.0,0.0,0.0,0.0,0.0,0.0,0.0,0.0,0.0,0.0,0.0,0.0,0.0,0.0,0.0,0.0,0.0,2.0424,2.1204,2.267,2.1051,1.9458,1.8394,1.7574,1.6708,1.572,1.5877,0.0,0.0,0.0,0.0,0.0,0.0,0.0,0.0,0.0,0.0,0.0,0.0,0.0,0.0,0.0,0.0,0.0,0.0,0.0,0.0,0.0,0.0,0.0,0.0,0.0,0.0,0.0,0.0,0.0,0.0,0.0,0.0,0.0,0.0,0.0,0.0,0.0,0.0,0.0,0.0,0.0,0.0,0.0,0.0,0.0,0.0,0.0,0.0,0.0,0.0,0.0,0.0,0.0,0.0,0.0,0.0,0.0,0.0,0.0,0.0,0.0,0.0,0.0,0.0,0.0,0.0,0.0,0.0,0.0,0.0,0.0,0.0,0.0,0.0,0.0,0.0,0.0,0.0,0.0,0.0,0.0,0.0,0.0,0.0,0.0,0.0,0.0,0.0,0.0,0.0,0.0,0.0,0.0,0.0,0.0,0.0,0.0,0.0,0.0,0.0,0.0,0.0,2.2458,2.2236,2.3017,2.1443,1.9952,1.8969,1.8002,1.6938,1.5725,1.5813,0.0,0.0,0.0,0.0,0.0,0.0,0.0,0.0,0.0,0.0,0.0,0.0,0.0,0.0,0.0,0.0,0.0,0.0,0.0,0.0,0.0,0.0,0.0,0.0,0.0,0.0,0.0,0.0,0.0,0.0,0.0,0.0,0.0,0.0,0.0,0.0,0.0,0.0,0.0,0.0,0.0,0.0,0.0,0.0,0.0,0.0,0.0,0.0,0.0,0.0,0.0,0.0,0.0,0.0,0.0,0.0,0.0,0.0,0.0,0.0,0.0,0.0,0.0,0.0,0.0,0.0,0.0,0.0,0.0,0.0,0.0,0.0,0.0,0.0,0.0,0.0,0.0,0.0,0.0,0.0,0.0,0.0,0.0,0.0,0.0,0.0,0.0,0.0,0.0,0.0,0.0,0.0,0.0,0.0,0.0,0.0,0.0,0.0,0.0,0.0,0.0,0.0,2.2834,2.3504,2.338,2.1636,2.0413,2.0263,1.7881,1.6238,1.5795,1.4774,0.0,0.0,0.0,0.0,0.0,0.0,0.0,0.0,0.0,0.0,0.0,0.0,0.0,0.0,0.0,0.0,0.0,0.0,0.0,0.0,0.0,0.0,0.0,0.0,0.0,0.0,0.0,0.0,0.0,0.0,0.0,0.0,0.0,0.0,0.0,0.0,0.0,0.0,0.0,0.0,0.0,0.0,0.0,0.0,0.0,0.0,0.0,0.0,0.0,0.0,0.0,0.0,0.0,0.0,0.0,0.0,0.0,0.0,0.0,0.0,0.0,0.0,0.0,0.0,0.0,0.0,0.0,0.0,0.0,0.0,0.0,0.0,0.0,0.0,0.0,0.0,0.0,0.0,0.0,0.0,0.0,0.0,0.0,0.0,0.0,0.0,0.0,0.0,0.0,0.0,0.0,0.0,0.0,0.0,0.0,0.0,0.0,0.0,0.0,0.0,0.0,0.0,2.3141,2.368,0.0,2.2073,2.0749,1.9147,1.7974,1.6467,1.4555,0.0,0.0,0.0,0.0,0.0,0.0,0.0,0.0,0.0,0.0,0.0,0.0,0.0,0.0,0.0,0.0,0.0,0.0,0.0,0.0,0.0,0.0,0.0,0.0,0.0,0.0,0.0,0.0,0.0,0.0,0.0,0.0,0.0,0.0,0.0,0.0,0.0,0.0,0.0,0.0,0.0,0.0,0.0,0.0,0.0,0.0,0.0,0.0,0.0,0.0,0.0,0.0,0.0,0.0,0.0,0.0,0.0,0.0,0.0,0.0,0.0,0.0,0.0,0.0,0.0,0.0,0.0,0.0,0.0,0.0,0.0,0.0,0.0,0.0,0.0,0.0,0.0,0.0,0.0,0.0,0.0,0.0,0.0,0.0,0.0,0.0,0.0,0.0,0.0,0.0,0.0,0.0,0.0,0.0,0.0,0.0,0.0,0.0,0.0,0.0,0.0,0.0,2.1913,2.316,2.3658,0.0,2.18,2.0235,1.8202,1.6872,1.5231,1.3063,0.0,0.0,0.0,0.0,0.0,0.0,0.0,0.0,0.0,0.0,0.0,0.0,0.0,0.0,0.0,0.0,0.0,0.0,0.0,0.0,0.0,0.0,0.0,0.0,0.0,0.0,0.0,0.0,0.0,0.0,0.0,0.0,0.0,0.0,0.0,0.0,0.0,0.0,0.0,0.0,0.0,0.0,0.0,0.0,0.0,0.0,0.0,0.0,0.0,0.0,0.0,0.0,0.0,0.0,0.0,0.0,0.0,0.0,0.0,0.0,0.0,0.0,0.0,0.0,0.0,0.0,0.0,0.0,0.0,0.0,0.0,0.0,0.0,0.0,0.0,0.0,0.0,0.0,0.0,0.0,0.0,0.0,0.0,0.0,0.0,0.0,0.0,0.0,0.0,0.0,0.0,0.0,0.0,0.0,0.0,0.0,0.0,0.0,0.0,0.0,0.0,0.0,2.1585,2.29,2.348,2.294,2.068,1.8794,1.7752,1.443,1.2127,0.0,0.0,0.0,0.0,0.0,0.0,0.0,0.0,0.0,0.0,0.0,0.0,0.0,0.0,0.0,0.0,0.0,0.0,0.0,0.0,0.0,0.0,0.0,0.0,0.0,0.0,0.0,0.0,0.0,0.0,0.0,0.0,0.0,0.0,0.0,0.0,0.0,0.0,0.0,0.0,0.0,0.0,0.0,0.0,0.0,0.0,0.0,0.0,0.0,0.0,0.0,0.0,0.0,0.0,0.0,0.0,0.0,0.0,0.0,0.0,0.0,0.0,0.0,0.0,0.0,0.0,0.0,0.0,0.0,0.0,0.0,0.0,0.0,0.0,0.0,0.0,0.0,0.0,0.0,0.0,0.0,0.0,0.0,0.0,0.0,0.0,0.0,0.0,0.0,0.0,0.0,0.0,0.0,0.0,0.0,0.0,0.0,0.0,0.0,0.0,0.0,0.0,0.0,2.1337,2.3088,2.3523,2.1755,2.037,1.8388,1.5477,1.345,1.1633,0.998,0.0,0.0,0.0,0.0,0.0,0.0,0.0,0.0,0.0,0.0,0.0,0.0,0.0,0.0,0.0,0.0,0.0,0.0,0.0,0.0,0.0,0.0,0.0,0.0,0.0,0.0,0.0,0.0,0.0,0.0,0.0,0.0,0.0,0.0,0.0,0.0,0.0,0.0,0.0,0.0,0.0,0.0,0.0,0.0,0.0,0.0,0.0,0.0,0.0,0.0,0.0,0.0,0.0,0.0,0.0,0.0,0.0,0.0,0.0,0.0,0.0,0.0,0.0,0.0,0.0,0.0,0.0,0.0,0.0,0.0,0.0,0.0,0.0,0.0,0.0,0.0,0.0,0.0,0.0,0.0,0.0,0.0,0.0,0.0,0.0,0.0,0.0,0.0,0.0,0.0,0.0,0.0,0.0,0.0,0.0,0.0,0.0,0.0,0.0,0.0,0.0,0.0,2.112,2.259,2.3029,2.1836,2.0028,1.7704,1.4764,1.2219,0.9953,0.8018,0.0,0.0,0.0,0.0,0.0,0.0,0.0,0.0,0.0,0.0,0.0,0.0,0.0,0.0,0.0,0.0,0.0,0.0,0.0,0.0,0.0,0.0,0.0,0.0,0.0,0.0,0.0,0.0,0.0,0.0,0.0,0.0,0.0,0.0,0.0,0.0,0.0,0.0,0.0,0.0,0.0,0.0,0.0,0.0,0.0,0.0,0.0,0.0,0.0,0.0,0.0,0.0,0.0,0.0,0.0,0.0,0.0,0.0,0.0,0.0,0.0,0.0,0.0,0.0,0.0,0.0,0.0,0.0,0.0,0.0,0.0,0.0,0.0,0.0,0.0,0.0,0.0,0.0,0.0,0.0,0.0,0.0,0.0,0.0,0.0,0.0,0.0,0.0,0.0,0.0,0.0,0.0,0.0,0.0,0.0,0.0,0.0,0.0,0.0,0.0,0.0,0.0,2.0948,2.1826,2.2391,2.2669,1.9779,1.7015,1.4963,1.0835,0.7609,0.583,0.0,0.0,0.0,0.0,0.0,0.0,0.0,0.0,0.0,0.0,0.0,0.0,0.0,0.0,0.0,0.0,0.0,0.0,0.0,0.0,0.0,0.0,0.0,0.0,0.0,0.0,0.0,0.0,0.0,0.0,0.0,0.0,0.0,0.0,0.0,0.0,0.0,0.0,0.0,0.0,0.0,0.0,0.0,0.0,0.0,0.0,0.0,0.0,0.0,0.0,0.0,0.0,0.0,0.0,0.0,0.0,0.0,0.0,0.0,0.0,-1.9617,-1.5583,0.0,0.0,0.0,0.0,0.0,0.0,0.0,0.0,0.0,0.0,0.0,0.0,0.0,0.0,0.0,0.0,0.0,0.0,0.0,0.0,0.0,0.0,0.0,0.0,0.0,0.0,0.0,0.0,0.0,0.0,0.0,0.0,0.0,0.0,0.0,0.0,0.0,0.0,0.0,0.0,2.1009,2.2722,2.3282,2.2068,2.0091,1.7346,1.3517,0.9635,0.6515,0.4455,0.3254,0.0,0.0,0.0,0.0,0.0,0.0,0.0,0.0,0.0,0.0,0.0,0.0,0.0,0.0,0.0,0.0,0.0,0.0,0.0,0.0,0.0,0.0,0.0,0.0,0.0,0.0,0.0,0.0,0.0,0.0,0.0,0.0,0.0,0.0,0.0,0.0,0.0,0.0,0.0,0.0,0.0,0.0,0.0,0.0,0.0,0.0,0.0,0.0,0.0,0.0,0.0,0.0,0.0,0.0,0.0,0.0,0.0,0.0,0.0,-2.7059,-2.4956,0.0,0.0,0.0,0.0,0.0,0.0,0.0,0.0,0.0,0.0,0.0,0.0,0.0,0.0,0.0,0.0,0.0,0.0,0.0,0.0,0.0,0.0,0.0,0.0,0.0,0.0,0.0,0.0,0.0,0.0,0.0,0.0,0.0,0.0,0.0,0.0,0.0,0.0,0.0,0.0,2.0904,2.2842,2.3531,2.2266,2.0329,1.7476,1.3474,0.9245,0.5771,0.3336,0.192,0.0,0.0,0.0,0.0,0.0,0.0,0.0,0.0,0.0,0.0,0.0,0.0,0.0,0.0,0.0,0.0,0.0,0.0,0.0,0.0,0.0,0.0,0.0,0.0,0.0,0.0,0.0,0.0,0.0,0.0,0.0,0.0,0.0,0.0,0.0,0.0,0.0,0.0,0.0,0.0,0.0,0.0,0.0,0.0,0.0,0.0,0.0,0.0,0.0,0.0,0.0,0.0,0.0,-2.5441,-2.5774,-2.6189,-2.7169,-2.8499,-2.9972,-3.0606,-3.1889,-3.3055,-2.7083,0.0,0.0,0.0,0.0,0.0,0.0,0.0,0.0,0.0,0.0,0.0,0.0,0.0,0.0,0.0,0.0,0.0,0.0,0.0,0.0,0.0,0.0,-1.8171,-1.9315,-1.9786,-1.8011,-1.0812,0.0,0.0,0.0,0.0,0.0,0.0,0.0,0.0,0.0,0.0,0.0,2.0938,2.2884,2.3698,2.2796,2.0448,1.7412,1.3616,0.8943,0.5026,0.2267,0.0806,0.0664,0.0,0.0,0.0,0.0,0.0,0.0,0.0,0.0,0.0,0.0,0.0,0.0,0.0,0.0,0.0,0.0,0.0,0.0,0.0,0.0,0.0,0.0,0.0,0.0,0.0,0.0,0.0,0.0,0.0,0.0,0.0,0.0,-3.8682,-3.8959,0.0,0.0,0.0,0.0,0.0,0.0,0.0,0.0,0.0,0.0,0.0,0.0,0.0,-2.3842,-2.3588,-2.2224,-2.2283,-2.3583,-2.2854,-2.3157,-2.4468,-2.505,-2.6085,-2.7324,-2.7769,0.0,-3.1772,-2.9836,0.0,0.0,0.0,0.0,0.0,0.0,0.0,0.0,0.0,0.0,0.0,0.0,0.0,0.0,0.0,0.0,0.0,0.0,0.0,0.0,0.0,0.0,-1.862,-2.0043,-1.9868,-1.8681,-1.588,-1.2071,-0.8568,-0.6138,-0.3237,-0.0561,0.0,0.0,0.0,0.0,0.0,0.0,2.179,2.3858,2.453,2.3258,2.0502,1.6925,1.2422,0.7738,0.3821,0.1019,-0.0316,-0.0625,0.0218,0.1939,0.0,0.0,0.0,0.0,0.0,0.0,0.0,0.0,0.0,0.0,0.0,0.0,0.0,0.0,0.0,0.0,0.0,0.0,0.0,0.0,0.0,0.0,0.0,0.0,0.0,0.0,0.0,0.0,0.0,-3.5213,-3.7587,-3.6991,-3.7071,-3.6362,0.0,0.0,0.0,0.0,0.0,0.0,0.0,0.0,0.0,-2.325,-2.2327,-2.1565,-2.1033,-2.0185,-1.996,-2.0355,-1.9508,-1.9597,-2.0515,-2.0663,-2.1272,-2.2324,-2.2803,-2.3635,-2.4928,-2.6845,-2.5825,-2.2945,0.0,0.0,0.0,0.0,-1.8337,-1.8988,-1.9879,-2.0575,-2.0637,-1.8246,0.0,0.0,0.0,0.0,0.0,0.0,0.0,-1.055,-1.2679,-1.4228,-1.5602,-1.7121,-1.7211,-1.6668,-1.5359,-1.2307,-0.9233,-0.7175,-0.5149,-0.2655,0.0849,0.4092,0.0,0.0,0.0,1.9124,2.1696,2.3602,2.4252,2.2955,2.0225,1.6832,1.2664,0.8139,0.4305,0.1393,-0.0202,-0.075,-0.0128,0.0686,0.193,0.0,0.0,0.0,0.0,0.0,0.0,0.0,0.0,0.0,0.0,0.0,0.0,0.0,0.0,0.0,0.0,0.0,0.0,0.0,0.0,0.0,0.0,0.0,0.0,0.0,0.0,0.0,0.0,-3.3351,-3.507,-3.4516,-3.4564,-3.4012,0.0,0.0,0.0,0.0,0.0,0.0,-2.3533,-2.2479,-2.1477,-2.06,-1.962,-1.8882,-1.8258,-1.7707,-1.721,-1.6647,-1.6008,-1.5882,-1.606,-1.5898,-1.6226,-1.6925,-1.7225,-1.7432,-1.7919,-2.2333,-2.3345,-2.1825,-1.9686,-1.8221,-1.7206,-1.753,-1.8218,-1.9134,-2.0052,-2.1325,-2.2044,-1.966,-1.781,-1.5982,-1.3022,0.0,0.0,0.0,0.0,-0.86,-1.0305,-1.1109,-1.1815,-1.3233,-1.3495,-1.3152,-1.2325,-1.0215,-0.8234,-0.7242,-0.5776,-0.3301,0.1053,0.4806,0.0,1.1751,1.614,1.9788,2.1816,2.3417,2.3773,2.2292,1.9686,1.6475,1.2581,0.8577,0.504,0.2111,0.0546,-0.0106,0.0302,0.0751,0.202,0.4159,0.0,0.0,0.0,0.0,0.0,0.0,0.0,0.0,0.0,0.0,0.0,0.0,0.0,0.0,0.0,0.0,0.0,0.0,0.0,0.0,0.0,0.0,0.0,0.0,0.0,0.0,0.0,0.0,0.0,-3.3495,-3.2115,0.0,0.0,0.0,0.0,-2.4579,-2.3556,-2.2481,-2.1374,-2.0066,-1.8851,-1.7718,-1.6673,-1.5958,-1.5568,-1.4603,-1.3826,-1.3194,-1.2745,-1.2141,-1.1583,-1.1463,-1.1695,-1.2042,-1.1691,-1.1931,-1.2962,-1.7735,-1.8571,-1.6781,-1.6249,-1.5027,-1.3808,-1.4807,-1.586,-1.6842,-1.7779,-1.8488,-1.8806,-1.7938,-1.5311,-1.2204,-1.076,-0.9138,0.0,0.0,-0.701,-0.6722,-0.7782,-0.7842,-0.7932,-0.903,-0.8698,-0.7948,-0.7243,-0.5552,-0.4662,-0.6355,-0.3783,-0.0328,0.2721,0.0,0.903,1.3923,1.686,1.9685,2.2828,2.3782,2.3444,2.1405,1.8698,1.54,1.1348,0.8404,0.5548,0.2735,0.1805,0.1398,0.1431,0.3073,0.4899,0.6869,0.89,0.0,0.0,0.0,0.0,0.0,0.0,0.0,0.0,0.0,0.0,0.0,0.0,0.0,0.0,0.0,0.0,0.0,0.0,0.0,0.0,0.0,0.0,0.0,0.0,0.0,0.0,0.0,0.0,-2.8667,-2.8289,0.0,-2.6149,-2.4871,-2.3546,-2.2541,-2.1541,-2.0412,-1.8984,-1.785,-1.6692,-1.5304,-1.4787,-1.4039,-1.3049,-1.2153,-1.1448,-1.0992,-0.993,-0.9463,-0.9695,-0.8867,-0.8747,-0.9309,-0.8738,-0.8453,-0.8557,-1.0242,-1.164,-1.2791,-1.2525,-1.1932,-1.1172,-1.214,-1.2839,-1.3409,-1.4259,-1.4701,-1.4775,-1.3467,-1.1644,-0.9714,-0.7911,-0.6596,-0.5647,-0.5237,-0.5,-0.4901,-0.5232,-0.5222,-0.5075,-0.4933,-0.442,-0.3613,-0.2367,-0.0685,0.0769,0.1132,0.1438,0.2556,0.5073,0.8438,1.1874,1.5138,1.8058,2.0723,2.2831,2.3063,2.2608,2.1441,1.8782,1.596,1.3029,1.0257,0.7832,0.5942,0.5287,0.5104,0.5341,0.6647,0.8143,0.9829,1.1246,1.0467,0.0,0.0,0.0,0.0,0.0,0.0,0.0,0.0,0.0,0.0,0.0,0.0,0.0,0.0,0.0,0.0,0.0,0.0,0.0,0.0,0.0,0.0,0.0,0.0,0.0,-2.3754,-2.417,-2.4101,-2.4115,-2.3852,-2.2868,-2.2131,-2.1347,-2.0364,-1.9635,-1.8589,-1.714,-1.6187,-1.5013,-1.3604,-1.3257,-1.2487,-1.1168,-1.0489,-0.9849,-0.9232,-0.8007,-0.7625,-0.7733,-0.6834,-0.6463,-0.6609,-0.6054,-0.5659,-0.5286,-0.526,-0.6248,-0.7857,-0.8649,-0.8723,-0.8288,-0.9109,-0.9614,-1.0147,-1.075,-1.0884,-1.0621,-0.928,-0.8179,-0.7087,-0.5277,-0.4342,-0.3733,-0.3163,-0.3044,-0.3044,-0.295,-0.2875,-0.255,-0.1692,-0.0856,0.0096,0.169,0.3461,0.5174,0.6789,0.6149,0.6057,0.8276,1.1588,1.4631,1.7022,1.9565,2.1672,2.276,2.2553,2.1918,2.0901,1.8841,1.6569,1.4216,1.2157,1.0271,0.8527,0.7533,0.6993,0.695,0.8432,0.9559,1.0272,0.9627,0.6499,0.0874,0.0,0.0,0.0,0.0,0.0,0.0,0.0,0.0,0.0,0.0,0.0,0.0,0.0,0.0,0.0,0.0,0.0,0.0,0.0,0.0,0.0,0.0,0.0,-1.9516,-2.0257,-2.0442,-2.0169,-1.9964,-1.9859,-2.0238,-1.9443,-1.8653,-1.8345,-1.7925,-1.708,-1.5897,-1.5041,-1.3856,-1.245,-1.1984,-1.1189,-0.9949,-0.9559,-0.8756,-0.7573,-0.719,-0.6369,-0.5427,-0.5509,-0.5003,-0.3947,-0.3821,-0.3573,-0.2953,-0.279,-0.2412,-0.2166,-0.4609,-0.5466,-0.5268,-0.5628,-0.6253,-0.6984,-0.739,-0.7132,-0.6517,-0.5817,-0.516,-0.4487,-0.3063,-0.244,-0.2116,-0.1534,-0.1345,-0.1345,-0.1076,-0.0819,-0.0279,0.0662,0.1734,0.3136,0.4893,0.6606,0.8245,0.9844,0.9823,1.0122,1.2218,1.4737,1.7187,1.9516,2.1237,0.0,2.2763,2.232,2.1353,1.9771,1.8767,1.714,1.4656,1.3985,1.2619,1.0208,0.832,0.6871,0.5982,0.8165,0.895,0.7963,0.3928,-0.1819,-0.9251,0.0,0.0,0.0,0.0,0.0,0.0,0.0,0.0,0.0,0.0,0.0,0.0,0.0,0.0,0.0,0.0,0.0,0.0,0.0,0.0,0.0,-1.3681,-1.4366,-1.7181,-1.7543,-1.7587,-1.7735,-1.8008,-1.8306,-1.8331,-1.8415,-1.8332,-1.7786,-1.7457,-1.6588,-1.497,-1.4422,-1.3327,-1.1333,-1.1164,-1.0398,-0.9,-0.8395,-0.7768,-0.7089,-0.6291,-0.5722,-0.5513,-0.5034,-0.4403,-0.3631,-0.3346,-0.2713,-0.1971,-0.1841,-0.1593,-0.1346,-0.2973,-0.3262,-0.2871,-0.3655,-0.4121,-0.4414,-0.4477,-0.4359,-0.4121,-0.3668,-0.3049,-0.2434,-0.1979,-0.13,-0.0644,-0.0631,-0.0538,-0.0269,0.009,0.054,0.118,0.2592,0.396,0.5377,0.7046,0.8912,1.0551,1.1768,1.2942,1.3894,1.4411,1.6119,1.7961,1.9904,2.0614,2.1369,2.2187,2.175,2.1032,2.0217,1.9613,1.8437,1.613,1.5279,1.3801,1.12,1.0076,0.8641,0.6619,0.727,0.6708,0.4593,-0.2594,-0.7723,0.0,0.0,0.0,0.0,0.0,0.0,0.0,0.0,0.0,0.0,0.0,0.0,0.0,0.0,0.0,0.0,0.0,0.0,0.0,0.0,0.0,0.0,-1.1203,-1.1717,-1.3505,-1.4229,-1.4587,-1.5037,-1.5515,-1.5882,-1.6174,-1.6851,-1.7191,-1.6851,-1.6727,-1.6163,-1.4782,-1.4223,-1.3213,-1.1301,-1.0799,-0.9884,-0.8647,-0.7674,-0.7133,-0.6888,-0.6075,-0.5605,-0.5496,-0.5154,-0.4397,-0.3495,-0.3341,-0.2589,-0.1726,-0.1726,-0.1475,-0.122,0.0,0.0,0.0,0.0,-0.297,-0.2871,-0.2849,-0.2687,-0.2518,-0.2193,-0.1767,-0.1351,-0.0943,-0.0463,0.0,0.009,0.0269,0.0538,0.0897,0.1443,0.2274,0.359,0.5179,0.6733,0.8261,1.0158,1.196,1.3022,1.4561,0.0,1.6,1.7281,1.8797,2.0105,2.0631,2.111,2.183,2.1343,2.0925,2.0909,2.0414,1.9383,1.7617,1.6199,0.0,0.0,0.0,0.6096,0.3147,0.1587,0.0,0.0,0.0,0.0,0.0,-2.061,0.0,0.0,-2.3194,-2.3601,0.0,0.0,0.0,0.0,0.0,0.0,0.0,0.0,0.0,0.0,0.0,0.0,0.0,0.0,0.0,0.0,-0.88,-0.881,-0.9424,-1.0668,-1.1726,-1.2376,-1.2762,-1.333,-1.4209,-1.5013,-1.5637,-1.5713,-1.5945,-1.5745,-1.4923,-1.423,0.0,0.0,0.0,-0.9598,-0.8549,-0.7572,-0.7011,-0.6891,-0.638,-0.5878,-0.5546,-0.5632,-0.4875,-0.3573,-0.3566,-0.3073,-0.2091,-0.2087,-0.1824,-0.1438,-0.1418,-0.1526,-0.1748,-0.2226,-0.2272,-0.2126,-0.1983,0.0,0.0,-0.1108,-0.1081,-0.0858,-0.019,0.0093,0.0179,0.0628,0.0987,0.1256,0.1436,0.2091,0.2947,0.3866,0.567,0.7459,0.8825,1.0807,1.2624,1.3709,1.5146,1.6292,1.6791,1.8087,1.9371,2.0019,2.0696,2.1318,2.1635,2.125,2.1113,2.1721,2.1068,0.0,1.8721,1.6392,1.3385,0.9724,0.4744,0.0404,-0.3011,-0.6706,-0.9914,-1.2599,-1.5012,-1.8584,-2.3352,-2.2456,-2.2483,-2.3328,-2.3179,-2.3617,0.0,0.0,0.0,0.0,0.0,0.0,0.0,0.0,0.0,0.0,0.0,0.0,0.0,0.0,0.0,-0.6984,-0.6711,-0.6766,-0.7572,-0.7925,-0.886,-1.1036,-1.1637,-1.2297,-1.3202,-1.4255,-1.487,-1.4986,-1.5433,-1.5375,-1.4487,-1.4124,-1.3189,-1.1561,-1.0768,-0.9772,-0.8439,-0.798,-0.7383,-0.69,-0.6505,0.0,-0.616,-0.6004,-0.5245,-0.4183,-0.4134,-0.363,-0.2661,-0.2269,-0.2119,-0.1973,-0.1272,-0.1146,-0.1355,-0.1324,-0.1298,-0.1381,-0.094,-0.0718,-0.0604,-0.0298,-0.0097,0.0095,0.028,0.0549,0.0,0.1166,0.1436,0.1705,0.1974,0.2699,0.3517,0.4144,0.5681,0.7567,0.9096,1.0688,1.2326,1.3866,1.4956,1.5724,1.6218,1.7434,1.8542,1.9279,1.9488,2.0043,2.1309,2.157,2.1699,2.1987,2.1796,2.047,1.756,1.4644,1.0925,0.6063,-0.142,-0.6737,-0.9036,-1.2283,-1.4775,-1.6503,-1.8505,-1.9613,-1.9925,-1.9955,-1.9498,-1.8537,-2.063,-2.1337,0.0,0.0,0.0,0.0,0.0,0.0,0.0,0.0,0.0,0.0,0.0,-0.7696,-0.6037,0.0,-0.4237,-0.4276,-0.4352,-0.4663,-0.5422,-0.5846,-0.6964,-0.9455,-1.0185,-1.0712,-1.1196,-1.2333,-1.3189,-1.3442,-1.4103,-1.4473,-1.4483,-1.3887,-1.3054,-1.2103,-1.0865,-0.9852,-0.9063,-0.8329,-0.7841,-0.7472,-0.7346,-0.719,-0.7138,-0.7136,-0.6494,-0.5596,-0.5674,-0.5152,-0.416,-0.3627,-0.3355,-0.31,-0.2277,-0.191,-0.1658,-0.1303,-0.1067,-0.1049,-0.0412,-0.0102,0.0,0.0296,0.0581,0.076,0.0558,0.0821,0.1164,0.1328,0.1512,0.17,0.2037,0.2668,0.3405,0.3941,0.545,0.7106,0.8559,1.037,1.2136,1.3489,1.4665,1.5675,1.6512,1.7167,1.7807,1.8542,1.9279,2.0116,2.1244,2.1569,2.1841,2.2395,2.1329,1.9363,1.6306,1.0347,0.482,0.0114,-0.5214,-0.9152,-1.1193,-1.3255,-1.4906,-1.6194,-1.6905,-1.7,-1.6279,-1.6113,-1.5191,-1.3806,-1.4559,-1.557,0.0,0.0,0.0,0.0,0.0,0.0,0.0,0.0,-1.1368,-0.9133,-0.7001,-0.4989,-0.3209,-0.2047,-0.1367,-0.1404,-0.1723,-0.2155,-0.2989,-0.3643,-0.4979,-0.7193,-0.8326,-0.8931,-0.9157,-1.0312,-1.1233,-1.174,-1.2641,-1.3565,-1.4217,-1.3545,-1.2982,-1.2535,-1.108,-1.0049,-0.9705,-0.8812,-0.8304,-0.8301,-0.8175,-0.8116,-0.8233,-0.8231,-0.7934,-0.7215,-0.7285,-0.6742,-0.5957,-0.5289,-0.4901,-0.4425,-0.3698,-0.3085,-0.2486,-0.1711,-0.1159,-0.0829,-0.0203,0.0202,0.0501,0.0789,0.1063,0.1229,0.1023,0.1094,0.125,0.1399,0.15,0.1518,0.1923,0.2471,0.3045,0.3582,0.4892,0.6418,0.7717,0.9679,1.152,1.2731,1.4057,1.5465,1.6594,1.6943,1.7254,1.8085,1.932,2.0374,2.1248,2.1502,2.1748,2.2382,2.033,1.7343,1.3561,0.5721,-0.0731,-0.4719,-0.7003,-0.908,-1.1011,-1.1943,-1.2758,-1.3591,-1.3263,-1.2746,-1.2239,-1.15,-1.0509,-0.9255,-0.8339,-0.9465,-2.5539,-2.0177,-1.5712,-1.4084,-1.3479,-1.2205,0.0,0.0,-0.7472,-0.4257,-0.2673,-0.1446,0.0,0.0934,0.1637,0.1641,0.1521,0.1168,0.0351,-0.0584,-0.1743,-0.3098,-0.5392,-0.7002,-0.7553,-0.8602,-0.9557,-1.0416,-1.1521,-1.2438,-1.2691,-1.2985,-1.2803,-1.2114,-1.1275,-1.0731,-1.0236,-0.9365,-0.8931,-0.9044,-0.9035,-0.9092,-0.9089,-0.9067,-0.8882,-0.875,-0.8271,-0.7701,-0.7223,-0.6883,-0.6445,-0.5809,-0.4709,-0.4079,-0.3656,-0.2225,-0.137,-0.0829,-0.0203,0.03,0.0788,0.1081,0.1437,0.1671,0.1667,0.1733,0.1787,0.1924,0.1853,0.1786,0.1747,0.2294,0.2957,0.2956,0.3948,0.5325,0.6866,0.8284,0.9784,1.1833,1.308,1.4206,1.5498,1.6441,1.7476,1.8609,1.9103,1.9911,2.1427,2.1745,2.1597,2.1057,1.9123,1.4793,0.7202,0.2672,-0.1134,-0.4381,-0.6013,-0.7386,-0.8663,-0.9406,-0.9649,-0.9287,-0.9078,-0.8404,-0.7184,-0.6371,-0.5891,-0.5576,-0.5026,-0.5992,-1.7317,-1.4519,-1.2834,-0.9985,-0.843,-0.7051,-0.5465,-0.4234,-0.2895,-0.0872,0.087,0.2346,0.326,0.4092,0.4575,0.4574,0.4305,0.3675,0.2932,0.1976,0.092,-0.0453,-0.1806,-0.361,-0.5762,-0.6303,-0.7028,-0.8225,-0.9245,-1.0323,-1.1342,-1.1794,-1.2046,-1.2105,-1.1456,-1.1221,-1.1158,-1.0806,-1.0517,-1.0426,-1.0397,-1.0397,-1.0422,-1.0502,-1.0373,-1.0262,-0.9479,-0.9011,-0.8667,-0.8194,-0.7621,-0.6864,-0.5903,-0.5047,-0.4085,-0.229,-0.1751,-0.1606,-0.0598,-0.0196,0.0,0.0571,0.0938,0.12,0.1186,0.1254,0.1402,0.1544,0.1459,0.1378,0.1599,0.187,0.2073,0.2333,0.3051,0.3963,0.5227,0.686,0.8683,1.0515,1.2088,1.3679,1.518,1.6112,1.6922,1.8067,1.902,1.9962,2.0826,2.0613,1.9468,1.6891,1.4084,1.038,0.5371,0.2337,-0.0217,-0.2175,-0.3136,-0.3942,-0.4434,-0.5222,-0.5544,-0.5299,-0.4991,-0.4561,-0.3932,-0.3226,-0.2781,-0.251,-0.2267,-0.2694,-1.1825,-1.0086,-0.8958,-0.5925,-0.3352,-0.1615,-0.1989,-0.0131,0.1943,0.2811,0.4435,0.5896,0.6396,0.6722,0.6943,0.6912,0.6348,0.5554,0.4786,0.3807,0.262,0.1347,0.0674,-0.0674,-0.3135,-0.3731,-0.455,-0.591,-0.6956,-0.819,-0.9552,-1.0208,-1.081,-1.1627,-1.1275,-1.1324,-1.1672,-1.149,-1.1337,-1.1221,-1.1178,-1.1275,-1.1507,-1.1761,-1.1815,-1.1429,-1.0781,-1.0522,-1.0335,-0.9735,-0.8999,-0.8233,-0.727,-0.6209,-0.5154,-0.3221,-0.2389,-0.214,-0.1168,-0.0769,-0.0566,0.0093,0.0551,0.0816,0.0804,0.0967,0.1123,0.126,0.1177,0.1182,0.1394,0.1406,0.1429,0.1597,0.2051,0.2602,0.3376,0.5063,0.6947,0.8647,1.0603,1.2609,1.4473,1.5345,1.6197,1.7202,1.8464,1.9434,1.9892,1.8995,1.6901,1.3466,1.0062,0.713,0.4818,0.2809,0.1251,0.0319,-0.016,-0.04,-0.0482,-0.1371,-0.1791,-0.1488,-0.1504,-0.1293,-0.0998,-0.0557,-0.0287,-0.0099,-0.0301,-0.0303,-1.2223,-0.8136,-0.3398,-0.1984,0.0951,0.3612,0.4302,0.5486,0.6766,0.7754,0.8353,0.8758,0.9249,0.8852,0.8488,0.8356,0.7541,0.6548,0.5627,0.4365,0.3085,0.191,0.1479,0.1027,0.0336,-0.123,-0.2685,-0.3583,-0.4883,-0.6068,-0.7098,-0.8359,-0.9389,-1.0058,-1.0561,-1.096,-1.1292,-1.1132,-1.105,-1.1046,-1.1241,-1.1639,-1.2221,-1.2794,-1.2726,-1.2109,-1.229,-1.235,-1.2167,-1.1452,-1.0975,-1.048,-0.8937,-0.8101,-0.749,-0.5414,-0.3616,-0.2192,-0.1813,-0.1319,-0.0648,-0.0185,0.036,0.0783,0.1043,0.1217,0.1378,0.132,0.1345,0.1289,0.1071,0.124,0.126,0.0588,0.0769,0.1216,0.156,0.2726,0.43,0.6125,0.8195,1.0403,1.2673,1.4027,1.5183,1.6175,1.7036,1.7844,1.9011,1.6745,1.4207,1.1975,0.8859,0.6315,0.4843,0.3926,0.3204,0.2756,0.2587,0.261,0.2572,0.1334,0.107,0.1963,0.1366,0.1301,0.19,0.1938,0.1779,0.1511,0.1009,0.1009,-0.454,-0.1543,0.0932,0.4022,0.6179,0.804,0.9516,1.0015,1.028,1.0447,1.0045,0.9487,0.8991,0.8224,0.7519,0.7277,0.6327,0.5386,0.477,0.3691,0.2689,0.2207,0.2235,0.2131,0.1876,0.0668,-0.0446,-0.1211,-0.254,-0.3877,-0.5094,-0.6524,-0.78,-0.9023,-0.9669,-1.0239,-1.0714,-1.1249,-1.1468,-1.1237,-1.19,-1.2337,-1.2794,-1.366,-1.4085,-1.4155,-1.4046,-1.3871,-1.3722,-1.3007,-1.2225,-1.1446,-1.037,-0.9324,-0.8337,-0.6851,-0.5481,-0.4226,-0.2852,-0.2029,-0.1628,-0.107,-0.0616,-0.0174,0.0256,0.0421,0.0581,0.0981,0.0895,0.0727,0.0861,0.0624,0.0235,0.0,-0.032,-0.0409,0.0,0.0861,0.2123,0.417,0.6197,0.8298,1.0581,1.2186,1.3619,1.5185,1.6264,1.6721,1.6647,1.4602,1.2367,1.0355,0.7919,0.6139,0.5307,0.4952,0.4773,0.4694,0.4393,0.4254,0.4374,0.3075,0.252,0.2988,0.2443,0.238,0.2817,0.2934,0.2973,0.2623,0.2622,0.2723,0.1522,0.3957,0.582,0.9668,1.1626,1.3051,1.403,1.3888,1.3378,1.2287,1.0847,0.9204,0.7772,0.6489,0.5475,0.521,0.4218,0.343,0.3135,0.242,0.1888,0.197,0.2339,0.2693,0.3095,0.2451,0.1776,0.1083,-0.0216,-0.1399,-0.2566,-0.3891,-0.537,-0.6795,-0.7789,-0.8698,-0.9341,-1.0379,-1.0955,-1.1141,-1.1942,-1.2763,-1.3394,-1.4503,-1.5264,-1.5778,-1.5658,-1.5569,-1.531,-1.4539,-1.3787,-1.3031,-1.1978,-1.0842,-0.9611,-0.8135,-0.6966,-0.5758,-0.3676,-0.2672,-0.2298,-0.1643,-0.1202,-0.0856,-0.0419,-0.0247,-0.0081,0.0403,0.0397,0.0234,0.0381,0.0075,-0.0373,-0.0747,-0.1302,-0.1743,-0.14,-0.0768,0.0266,0.2134,0.416,0.6342,0.8553,1.0697,1.2517,1.3788,1.4309,1.4622,1.4819,1.2957,1.0926,0.9147,0.7371,0.6069,0.5409,0.5338,0.5558,0.59,0.5305,0.518,0.5645,0.4067,0.3375,0.3773,0.3157,0.3066,0.3503,0.3877,0.4086,0.4033,0.4228,0.4528,0.5743,0.85,1.1302,1.4841,1.7106,1.8402,1.799,1.7169,1.5658,1.3168,1.0412,0.7856,0.0,0.0,0.2523,0.2297,0.1541,0.0991,0.0855,0.0877,0.0891,0.0,0.0,0.0,0.0,0.4151,0.3869,0.3088,0.2125,0.1264,0.0413,-0.0826,-0.2185,-0.3595,-0.5136,-0.6497,-0.7517,-0.8539,-0.9594,-1.0651,-1.1511,-1.2702,-1.3999,-1.538,-1.6231,-1.6852,-1.7291,-1.7351,-1.7081,-1.6433,-1.5755,-1.5042,-1.3781,-1.2473,-1.1207,-0.9471,-0.8176,-0.6853,-0.4505,-0.3305,-0.2585,-0.1943,-0.1509,-0.1251,-0.098,-0.081,-0.0645,-0.0394,-0.0157,-0.0078,-0.0379,-0.0518,-0.0727,-0.1528,-0.2115,-0.2519,-0.2587,-0.2225,-0.1349,0.0,0.2188,0.4489,0.6625,0.9458,1.1546,1.1755,1.1355,1.168,1.3391,1.1689,0.98,0.8434,0.7118,0.6032,0.5184,0.5279,0.562,0.6323,0.5548,0.544,0.616,0.4468,0.3621,0.4159,0.367,0.3637,0.4152,0.4685,0.5142,0.5641,0.5729,0.6321,1.098,1.4401,1.7446,2.0121,2.1181,2.1468,2.1016,1.8231,1.4941,1.1744,0.8069,0.495,0.3823,0.1936,0.0786,0.1424,0.0866,0.0,0.0651,0.0663,0.0,0.2377,0.0,0.4268,0.5272,0.6219,0.6669,0.638,0.4218,0.2711,0.2087,0.0804,-0.0605,-0.1999,-0.3415,-0.465,-0.5843,-0.7323,-0.8563,-0.9565,-1.0857,-1.2405,-1.4242,-1.5882,-1.7563,-1.9155,-1.9205,-1.9389,-1.9563,-1.8641,-1.7695,-1.6525,-1.5049,-1.3703,-1.2319,-1.0366,-0.9113,-0.8073,-0.6198,-0.4621,-0.3296,-0.271,-0.2187,-0.1669,-0.1399,-0.1372,-0.1275,-0.0596,-0.0817,-0.1109,-0.0648,-0.0925,-0.1416,-0.1841,-0.2542,-0.31,-0.3052,-0.3045,-0.2666,-0.1495,0.1457,0.4184,0.5978,0.7791,0.9142,0.9571,0.9228,0.9447,1.1109,0.9686,0.8162,0.7233,0.6335,0.569,0.5289,0.5458,0.5589,0.5842,0.5377,0.5195,0.5418,0.4286,0.3857,0.4236,0.4164,0.4337,0.4968,0.5494,0.6055,0.6355,0.7068,0.8011,1.6604,1.976,2.2205,2.408,2.4302,2.3553,2.1082,1.7653,1.3681,0.8893,0.5414,0.2861,0.1512,0.0231,-0.0229,0.0444,0.0335,0.0,0.0774,0.1473,0.231,0.0,0.4924,0.0,0.7201,0.7885,0.8393,0.8793,0.6471,0.4776,0.4253,0.2971,0.1711,0.0376,-0.1057,-0.2711,-0.4708,-0.5947,-0.7341,-0.8676,-0.9949,-1.186,-1.4314,-1.6351,-1.8399,-2.064,-2.1154,-2.1454,-2.1562,-2.0418,-1.9102,-1.7674,-1.6163,-1.4617,-1.3089,-1.1319,-0.9938,-0.8727,-0.7137,-0.5752,-0.4574,-0.3538,-0.2939,-0.2456,-0.21,-0.2064,-0.204,-0.1457,-0.1517,-0.1715,-0.1337,-0.1528,-0.1928,-0.2136,-0.2765,-0.3401,-0.3276,-0.3323,-0.2928,-0.1428,0.0894,0.3045,0.4634,0.6011,0.7021,0.7704,0.7524,0.7744,0.8752,0.7935,0.7003,0.6438,0.5667,0.5118,0.4787,0.4855,0.5097,0.5284,0.474,0.4625,0.4964,0.3918,0.3568,0.4024,0.3958,0.4341,0.5163,0.5969,0.6844,0.782,0.8625,0.9743,2.1631,2.4312,2.5978,2.6857,2.6408,2.4579,1.9781,1.6046,1.19,0.5466,0.28,0.1294,-0.0236,-0.0597,-0.0475,0.0114,0.0,0.0709,0.1589,0.2923,0.4298,0.5307,0.6793,0.8118,0.9282,0.9252,0.959,1.0531,0.8787,0.7407,0.6555,0.5479,0.4176,0.2726,0.1049,-0.1035,-0.3547,-0.4624,-0.6062,-0.7813,-0.9082,-1.1392,-1.4575,-1.6748,-1.9132,-2.1642,-2.2889,-2.3426,-2.3227,-2.1799,-2.0323,-1.8731,-1.7069,-1.5306,-1.3645,-1.2143,-1.0684,-0.9199,-0.7761,-0.6858,-0.6071,-0.4396,-0.3672,-0.3424,-0.2914,-0.2817,-0.281,-0.2376,-0.2198,-0.2162,-0.2162,-0.2262,-0.2356,-0.2423,-0.2934,-0.3427,-0.3446,-0.3336,-0.2759,-0.0771,0.0302,0.1541,0.3031,0.4199,0.5186,0.6208,0.6235,0.6253,0.6563,0.6404,0.6206,0.5937,0.5302,0.4751,0.4271,0.4308,0.4452,0.4921,0.4052,0.3891,0.4599,0.3535,0.3161,0.3703,0.3748,0.4239,0.5379,0.6253,0.7654,0.9444,1.0125,1.1231,2.3865,2.6624,2.8591,2.8272,2.6707,2.4012,1.9368,1.3943,0.0,0.0,0.1394,0.0,0.1318,0.084,0.084,0.2857,0.2841,0.2954,0.4037,0.5139,0.6384,0.0,0.9379,1.0419,1.0977,1.162,1.1746,1.1518,1.083,0.9841,0.843,0.7192,0.5349,0.2811,0.1157,-0.0448,-0.1892,-0.3276,-0.4886,-0.6808,-0.8726,-1.144,-1.492,-1.7442,-2.0254,-2.3273,-2.4234,-2.4889,-2.5137,-2.3654,-2.1829,-1.9745,-1.7598,-1.5731,-1.403,-1.2251,-1.1095,-1.0134,-0.8555,-0.7597,-0.6784,-0.5125,-0.444,-0.4104,-0.3593,-0.3535,-0.3472,-0.2793,-0.3053,-0.3246,-0.244,-0.2498,-0.2824,-0.2688,-0.2893,-0.3266,-0.3642,-0.3538,-0.2924,-0.1515,-0.0593,0.0405,0.1715,0.2694,0.3685,0.4771,0.4914,0.5172,0.5948,0.5728,0.5674,0.5969,0.538,0.5185,0.5277,0.5009,0.4788,0.4927,0.4141,0.3768,0.3961,0.3439,0.3432,0.3827,0.4182,0.5021,0.6139,0.7136,0.821,0.9511,1.0523,1.1472,2.7199,2.9642,3.1084,3.0353,2.7385,2.3063,1.6926,0.0,0.0,0.0,-0.0226,-0.0239,0.1202,0.1685,0.2161,0.3575,0.3454,0.3809,0.5349,0.6139,0.7427,0.9559,1.0781,1.1675,1.2438,1.2716,1.28,1.2592,1.2048,1.1101,0.9469,0.777,0.5746,0.3485,0.1951,0.0597,-0.0688,-0.2424,-0.4192,-0.616,-0.8282,-1.1135,-1.4617,-1.7236,-2.0415,-2.394,-2.4756,-2.544,-2.5727,-2.3921,-2.1882,-1.9671,-1.7637,-1.5771,-1.4048,-1.2651,-1.1293,-1.0036,-0.8794,-0.8,-0.73,-0.6022,-0.5338,-0.4957,-0.449,-0.4336,-0.4225,-0.3823,-0.3756,-0.3692,-0.3157,-0.3092,-0.3092,-0.2956,-0.3156,-0.3395,-0.3536,-0.3412,-0.3154,-0.2339,-0.1527,-0.0695,0.0397,0.1446,0.2546,0.3787,0.4234,0.4712,0.5669,0.5705,0.5536,0.5532,0.5044,0.4766,0.5027,0.4812,0.4688,0.4651,0.39,0.3482,0.3415,0.2907,0.2895,0.3376,0.3651,0.4746,0.6422,0.6979,0.8087,0.9675,1.0087,1.0587,3.0199,3.2433,3.3508,3.2713,2.8174,2.205,1.5146,0.8574,0.0,-0.1488,-0.1416,-0.0352,0.0839,0.1681,0.2512,0.0,0.3233,0.3595,0.5676,0.6504,0.7807,1.0204,1.116,0.0,1.3138,1.3046,1.3019,1.3267,1.2391,1.1244,0.9818,0.7812,0.5956,0.4159,0.286,0.1488,0.0107,-0.1798,-0.3714,-0.5634,-0.795,-1.0785,-1.4154,-1.698,-2.0266,-2.3758,-2.4695,-2.5426,-2.573,-2.3482,-2.1411,-1.9469,-1.7323,-1.5436,-1.374,-1.2728,-1.1326,-0.9824,-0.8877,-0.8244,-0.7695,-0.6961,-0.6296,-0.5738,-0.5325,-0.5176,-0.5055,-0.4818,-0.4492,-0.4223,-0.3956,-0.3692,-0.3357,-0.3226,-0.3345,-0.3443,-0.3244,-0.3313,-0.3385,-0.2968,-0.2283,-0.1543,-0.0584,0.0409,0.1697,0.3191,0.3845,0.4546,0.5688,0.5973,0.5893,0.56,0.5138,0.4886,0.4948,0.4702,0.4457,0.4088,0.3263,0.2675,0.2331,0.1963,0.1949,0.2519,0.2953,0.4187,0.6077,0.6448,0.7489,0.9123,0.8895,0.9038,3.1325,3.4046,3.5985,3.5185,2.8814,2.1467,1.6519,0.0,0.0869,-0.1059,-0.1482,-0.1027,0.0716,0.0475,0.0593,0.2316,0.0,0.2277,0.5034,0.6129,0.7419,0.9425,0.0,0.0,1.2374,1.2731,1.2861,1.2817,1.1392,1.0168,0.9195,0.794,0.6428,0.4603,0.3331,0.1911,0.0366,-0.144,-0.3262,-0.5117,-0.786,-1.0708,-1.3683,-1.7223,-2.0127,-2.245,-2.3932,-2.4808,-2.5035,-2.284,-2.1091,-1.9537,-1.6806,-1.479,-1.3389,-1.1961,-1.0895,-1.002,-0.9071,-0.8394,-0.7842,-0.7695,-0.7191,-0.6466,-0.5794,-0.5784,-0.5882,-0.5453,-0.5491,-0.5491,-0.4489,-0.422,-0.4023,-0.3224,-0.303,-0.2991,-0.2874,-0.3315,-0.3533,-0.2907,-0.2593,-0.2012,-0.1045,-0.01,0.1151,0.2866,0.3665,0.4494,0.5697,0.6591,0.7022,0.7014,0.6554,0.6168,0.6178,0.5064,0.4082,0.349,0.1708,0.0611,0.0362,0.0483,0.0839,0.1179,0.2554,0.3795,0.5159,0.5626,0.6246,0.7027,0.6768,0.65,3.2027,3.5535,3.7929,3.7219,3.0151,2.1941,1.6676,0.7184,-0.1126,-0.3383,-0.3737,-0.3326,-0.2057,-0.2639,-0.2545,-0.0476,-0.142,-0.1528,0.1415,0.2382,0.3676,0.6448,0.7587,0.8735,1.0058,1.0605,1.0797,1.0555,0.944,0.8505,0.7761,0.7434,0.6541,0.4981,0.3599,0.2219,0.0731,-0.1143,-0.293,-0.4734,-0.7238,-0.978,-1.2384,-1.5504,-1.835,-2.0877,-2.2171,-2.308,-2.357,-2.1895,-2.0074,-1.8162,-1.6277,-1.4421,-1.2644,-1.1417,-1.0534,-0.9702,-0.8806,-0.8257,-0.7835,-0.7536,-0.7378,-0.7241,-0.6818,-0.6608,-0.6467,-0.6229,-0.6067,-0.5885,-0.5156,-0.4425,-0.3627,-0.2757,-0.2688,-0.2762,-0.2588,-0.2999,-0.3389,-0.362,-0.3224,-0.2656,-0.2327,-0.1044,0.0498,0.205,0.324,0.4471,0.6173,0.6832,0.7291,0.7583,0.7154,0.6576,0.5952,0.4639,0.3271,0.175,0.0352,-0.0585,-0.1268,-0.1037,-0.0575,0.0228,0.1249,0.2602,0.4181,0.4443,0.4647,0.5021,0.4418,0.3871,3.1881,3.6277,3.9311,3.875,3.1038,2.2063,1.6509,0.5994,-0.3415,-0.6292,-0.6762,-0.6448,-0.5793,-0.6313,-0.6191,-0.3838,-0.4758,-0.462,-0.116,-0.0701,0.0464,0.3369,0.401,0.5021,0.688,0.7886,0.8279,0.8042,0.7253,0.6586,0.619,0.6218,0.5784,0.4827,0.354,0.2282,0.1047,-0.0795,-0.2501,-0.4083,-0.6334,-0.8632,-1.1028,-1.3679,-1.6299,-1.8806,-2.0099,-2.1126,-2.1786,-2.0563,-1.8969,-1.7203,-1.5608,-1.3753,-1.1921,-1.0931,-1.0032,-0.9178,-0.8466,-0.8112,-0.7834,-0.744,-0.753,-0.7807,-0.76,-0.7377,-0.7121,-0.7001,-0.6527,-0.5947,-0.5425,-0.4295,-0.3094,-0.2356,-0.2218,-0.2284,-0.2149,-0.2642,-0.3245,-0.3923,-0.3601,-0.3254,-0.3201,-0.1876,-0.0283,0.118,0.2718,0.4307,0.6157,0.7001,0.7553,0.7756,0.7206,0.6364,0.4868,0.3287,0.1358,-0.1018,-0.2141,-0.3014,-0.3628,-0.3082,-0.2199,-0.0985,0.0,0.1214,0.2757,0.2723,0.2729,0.266,0.1938,0.1511,3.0745,3.6034,4.0113,3.9785,3.1237,2.1488,1.6112,0.4435,-0.6229,-0.953,-1.0207,-1.0193,-1.0244,-1.0628,-1.0081,-0.7511,-0.7587,-0.6372,-0.1946,-0.1915,-0.1547,0.0543,0.0213,0.062,0.28,0.4651,0.5554,0.5343,0.4957,0.4693,0.4597,0.4087,0.3848,0.4127,0.2977,0.2033,0.1303,-0.0439,-0.1876,-0.3046,-0.5183,-0.7399,-0.9711,-1.2119,-1.4244,-1.6151,-1.788,-1.9024,-1.9668,-1.8857,-1.7984,-1.6993,-1.4705,-1.2816,-1.1316,-1.036,-0.9437,-0.8537,-0.8207,-0.8017,-0.7834,-0.7589,-0.7768,-0.8093,-0.7955,-0.7942,-0.7958,-0.7829,-0.6971,-0.5943,-0.5286,-0.3887,-0.2621,-0.2287,-0.1748,-0.1345,-0.1547,-0.2235,-0.2946,-0.332,-0.3567,-0.3617,-0.3508,-0.2273,-0.0887,0.0283,0.2031,0.3747,0.512,0.693,0.7932,0.7736,0.6822,0.5364,0.3206,0.0665,-0.1991,-0.4755,-0.6221,-0.6989,-0.7078,-0.551,-0.4005,-0.259,-0.1371,-0.0213,0.0639,0.0639,0.0322,-0.0327,-0.0322,-0.0323,2.0819,2.4189,2.6487,2.349,1.6855,0.9717,0.4548,-0.3502,-1.0967,-1.4688,-1.5569,-1.5629,-1.5869,-1.6105,-1.5157,-1.1616,-1.1556,0.0,-0.6743,-0.5485,-0.4484,-0.2792,-0.1086,0.0383,0.1419,0.1992,0.2355,0.256,0.2324,0.2218,0.2279,0.1846,0.2187,0.3353,0.2642,0.1833,0.0966,-0.024,-0.1367,-0.2478,-0.4153,-0.5889,-0.7696,-1.0007,-1.2214,-1.4315,-1.5962,-1.7314,-1.8382,-1.8086,-1.7113,-1.5659,-1.4423,-1.2683,-1.0822,-0.9842,-0.9026,-0.8278,-0.7932,-0.7581,-0.7307,-0.7558,-0.7643,-0.7696,-0.7795,-0.814,-0.8374,-0.7905,-0.7099,-0.6137,-0.5286,-0.409,-0.2824,-0.2017,-0.1614,-0.1472,-0.1246,-0.175,-0.251,-0.3398,-0.3708,-0.3894,-0.4168,-0.3057,-0.1739,-0.0619,0.1544,0.3615,0.5385,0.6535,0.7045,0.6747,0.4818,0.2978,0.1706,-0.1623,-0.4843,-0.7805,-0.9127,-0.96,-0.879,-0.7045,-0.5298,-0.3485,-0.2364,-0.1358,-0.0314,-0.0732,-0.116,-0.161,-0.1642,-0.155,0.0,1.5574,1.7018,1.3438,0.7428,0.117,-0.3395,-0.9978,-1.6064,-1.9283,-2.0087,-2.0236,-2.0332,-2.0071,-1.8622,-1.5209,-1.4478,-1.2944,-0.9244,-0.805,-0.6951,-0.57,-0.3342,-0.1762,-0.138,-0.0798,-0.0343,-0.0168,-0.0246,-0.0235,-0.0073,-0.0283,0.0133,0.1434,0.1495,0.1254,0.0661,-0.0122,-0.1012,-0.1989,-0.3196,-0.4704,-0.6485,-0.85,-1.0711,-1.3052,-1.4766,-1.6207,0.0,-1.7487,-1.6504,-1.4873,-1.4041,-1.2388,-1.0352,-0.9525,-0.8771,-0.8077,-0.7795,-0.7378,-0.7004,-0.7403,-0.7544,-0.7643,-0.8144,-0.8434,-0.8472,-0.8166,-0.7361,-0.6379,-0.5665,-0.4353,-0.3021,-0.2217,-0.168,-0.1401,-0.1231,-0.1596,-0.2268,-0.3454,-0.3801,-0.4117,-0.4818,-0.3883,-0.2758,-0.1841,0.0258,0.2365,0.417,0.5159,0.5523,0.5003,0.2828,0.0508,-0.176,-0.4901,-0.8117,-1.1125,-1.1817,-1.161,-1.0402,-0.82,-0.6093,-0.4107,-0.3328,-0.246,-0.1539,-0.2169,-0.2407,-0.2345,-0.2304,-0.2007,0.0,0.8278,0.9683,0.6934,0.0735,-0.5689,-0.9236,-1.5677,0.0,-2.3317,-2.3831,-2.377,-2.3664,-2.255,-2.0925,-1.8377,-1.6392,-1.3965,-1.0175,-0.9473,-0.8896,-0.7848,-0.6227,-0.5073,-0.4881,-0.3549,-0.2666,-0.2696,-0.2713,-0.2599,-0.2276,-0.2417,-0.2157,-0.1363,-0.0394,0.0206,0.0286,-0.0168,-0.0842,-0.1633,-0.2432,-0.3897,-0.5981,-0.7561,-0.9685,-1.2275,-1.4131,-1.5578,-1.6675,-1.6994,-1.6178,-1.4611,-1.3691,-1.2006,-0.9976,-0.9366,-0.8667,-0.7949,-0.778,-0.7378,-0.6918,-0.7155,-0.7358,-0.7781,-0.8815,-0.8677,-0.8256,-0.846,-0.7685,-0.6678,-0.6229,-0.468,-0.3151,-0.2818,-0.1945,-0.1263,-0.1422,-0.1756,-0.2269,-0.3367,-0.3864,-0.4364,-0.5303,-0.4659,-0.3745,-0.3207,-0.1481,0.0334,0.184,0.3258,0.3722,0.2741,0.0797,-0.2187,-0.6532,-0.8783,-1.1327,-1.4504,-1.4088,-1.3182,-1.1887,-0.8918,-0.6496,-0.4696,-0.3891,-0.3327,-0.2826,-0.3394,-0.3248,-0.2452,-0.239,-0.1879,-1.4185,0.0,-1.0968,-1.6166,-1.964,-2.233,0.0,-2.5765,-2.6531,0.0,0.0,0.0,-2.4974,-2.4413,-2.3053,-1.9675,-1.8414,-1.6663,-1.3012,-1.0335,-0.8107,-0.6438,-0.5738,-0.5257,-0.4791,-0.4318,-0.4068,-0.3873,-0.3654,-0.3599,-0.3701,-0.3544,-0.3263,-0.2868,-0.2439,-0.1733,-0.0762,-0.0673,-0.1052,-0.1914,-0.2579,-0.3983,-0.6014,-0.7344,-0.9389,-1.1999,-1.363,-1.4914,-1.5909,-1.6616,-1.5915,-1.443,-1.4004,-1.2445,-1.0417,-0.9908,-0.8928,-0.7874,-0.8034,-0.758,-0.7011,-0.7155,-0.7264,-0.7428,-0.8124,-0.8383,-0.8394,-0.8364,-0.7685,-0.68,-0.609,-0.5011,-0.3818,-0.2885,-0.2443,-0.2127,-0.1566,-0.2003,-0.273,-0.3438,-0.4048,-0.4615,-0.5372,-0.4879,-0.4175,-0.3448,-0.1608,0.0163,0.147,0.2204,0.2181,0.1179,-0.1607,-0.4798,-0.8292,-1.1006,-1.2975,-1.4299,-1.4705,-1.384,-1.1342,-0.8702,-0.6587,-0.4981,-0.3393,-0.2724,-0.2826,-0.2397,-0.2121,-0.1919,-0.1209,-0.067,-2.2495,-2.0399,-1.9226,-2.3444,-2.619,-2.8097,-2.9017,0.0,0.0,0.0,0.0,0.0,0.0,0.0,0.0,-2.0766,-1.9058,-1.6618,-1.272,-1.0165,-0.8124,-0.6672,-0.6344,-0.5945,-0.5461,-0.5349,-0.5257,-0.5117,-0.5004,-0.5007,-0.5018,-0.4905,-0.4635,-0.4327,-0.3845,-0.2943,-0.1614,-0.1545,-0.1855,-0.2449,-0.3245,-0.4626,-0.6543,-0.8132,-1.0123,-1.2402,-1.3851,-1.5006,-1.5869,-1.5955,-1.5334,-1.4241,-1.3526,-1.2153,-1.0445,-0.9904,-0.8962,-0.7991,-0.8146,-0.7758,-0.7206,-0.7113,-0.7093,-0.7233,-0.7881,-0.7996,-0.7926,-0.8202,-0.7731,-0.6974,-0.6361,-0.536,-0.4339,-0.3565,-0.2992,-0.248,-0.2132,-0.2465,-0.3045,-0.3645,-0.4247,-0.4829,-0.5395,-0.5191,-0.4662,-0.3872,-0.2548,-0.12,0.0081,0.0401,0.0158,-0.0921,-0.3454,-0.6324,-0.9369,-1.1884,-1.3717,-1.4531,-1.418,-1.2933,-1.0578,-0.7891,-0.5667,-0.3864,-0.2674,-0.2276,-0.2692,-0.2005,-0.1712,-0.1726,-0.1099,-0.0556,-2.4709,-2.2578,-2.095,-2.3785,-2.6827,-2.9086,0.0,0.0,0.0,0.0,0.0,0.0,0.0,-2.3249,0.0,0.0,-1.84,-1.5356,-1.1349,-0.9631,-0.851,-0.7501,-0.707,-0.6674,-0.6379,-0.6248,-0.6222,-0.6306,-0.6263,-0.6248,-0.6182,-0.6059,-0.5892,-0.5561,-0.4758,-0.3781,-0.2589,-0.2616,-0.2802,-0.3191,-0.4143,-0.5516,-0.7326,-0.9241,-1.1103,-1.2958,-1.4266,-1.5213,-1.5753,-1.5193,-1.4572,-1.3893,-1.2871,-1.1663,-1.0416,-0.9768,-0.9011,-0.8286,-0.8149,-0.787,-0.7439,-0.7102,-0.695,-0.7092,-0.7736,-0.7529,-0.7162,-0.7899,-0.7607,-0.706,-0.6657,-0.5754,-0.4788,-0.4232,-0.3471,-0.2837,-0.2879,-0.3013,-0.3339,-0.3977,-0.4565,-0.509,-0.5411,-0.5444,-0.5084,-0.427,-0.351,-0.2694,-0.1531,-0.1429,-0.1861,-0.2941,-0.4869,-0.715,-0.9787,-1.1897,-1.3474,-1.4279,-1.3074,-1.1326,-0.9136,-0.65,-0.4243,-0.2448,-0.1811,-0.1705,-0.2132,-0.1602,-0.1293,-0.1312,-0.1096,-0.0552,-2.186,-2.1013,-2.1843,-2.8143,-3.1387,-3.3002,-3.3129,0.0,0.0,0.0,0.0,0.0,0.0,-2.0039,-1.952,0.0,-1.6057,-1.4213,-1.1637,-1.0255,-0.8886,-0.731,-0.7056,-0.685,-0.6642,-0.6424,-0.6471,-0.6569,-0.654,-0.6665,-0.6801,-0.6472,-0.6176,-0.6094,-0.5545,-0.4955,-0.4317,-0.3541,-0.3504,-0.4097,-0.5004,-0.6308,-0.7994,-0.9455,-1.1124,-1.2923,-1.3749,-1.4217,-1.4497,-1.4758,-1.409,-1.2902,-1.2824,-1.2017,-1.0745,-1.0097,-0.9379,-0.8692,-0.8025,-0.7663,-0.7474,-0.7356,-0.7043,-0.681,-0.723,-0.705,-0.6811,-0.707,-0.6978,-0.6778,-0.6416,-0.5887,-0.5279,-0.4463,-0.4043,-0.3707,-0.3371,-0.3605,-0.3985,-0.4372,-0.4884,-0.5355,-0.5307,-0.5269,-0.4948,-0.4042,-0.3397,-0.2728,-0.1895,-0.2121,-0.2715,-0.3772,-0.5575,-0.7505,-0.9536,-1.0837,-1.1624,-1.194,-1.1918,-1.0039,-0.5945,-0.4362,-0.3012,-0.181,-0.1491,-0.1066,-0.0747,-0.0433,0.0,0.0547,0.0555,0.0888,-1.8633,-1.8359,-1.9154,-2.3037,-2.6263,-2.8748,-2.9832,0.0,0.0,0.0,0.0,0.0,0.0,0.0,-1.6714,-1.4452,-1.3432,-1.2348,-1.0581,-0.9673,-0.876,-0.7795,-0.7513,-0.7366,-0.7275,-0.6959,-0.6903,-0.7155,-0.7122,-0.72,-0.7371,-0.7047,-0.6857,-0.6708,-0.6046,-0.5604,-0.5483,-0.4679,-0.4603,-0.5306,-0.6169,-0.7413,-0.9063,-1.0582,-1.18,-1.2815,-1.3515,-1.3691,-1.3478,-1.325,-1.2833,-1.2332,-1.2015,-1.1481,-1.0664,-0.9736,-0.9044,-0.8553,-0.8014,-0.7746,-0.7697,-0.7454,-0.719,-0.7001,-0.7126,-0.6907,-0.6641,-0.6774,-0.6803,-0.6717,-0.6287,-0.5887,-0.5397,-0.4665,-0.4304,-0.4018,-0.3768,-0.4005,-0.4294,-0.468,-0.5196,-0.5547,-0.5235,-0.5292,-0.4965,-0.3891,-0.3527,-0.3198,-0.2644,-0.3195,-0.3953,-0.4849,-0.6492,-0.8047,-0.9344,-1.0336,-1.0735,-1.0259,-0.9521,-0.7719,-0.4487,-0.3122,-0.2024,-0.1314,-0.0767,-0.0438,-0.0219,-0.011,0.0,0.0,-0.0218,-0.0109,-1.5411,-1.5445,-1.5878,-1.686,0.0,-2.3408,-2.5691,0.0,0.0,0.0,0.0,0.0,0.0,-1.5444,-1.3799,-1.1706,-1.1141,-1.0484,-0.9267,-0.8832,-0.8451,-0.8136,-0.7745,-0.7598,-0.7633,-0.7227,-0.7084,-0.7427,-0.7457,-0.7567,-0.7823,-0.7601,-0.7434,-0.7241,-0.6427,-0.6023,-0.6076,-0.5597,-0.5602,-0.6131,-0.7022,-0.8238,-0.9852,-1.1277,-1.2166,-1.267,-1.3085,-1.3019,-1.249,-1.1828,-1.1562,-1.1609,-1.1124,-1.0739,-1.0387,-0.938,-0.8786,-0.8409,-0.8158,-0.8021,-0.7836,-0.7587,-0.7358,-0.7154,-0.7014,-0.6734,-0.6443,-0.6421,-0.6456,-0.6467,-0.6107,-0.5693,-0.5259,-0.4761,-0.4394,-0.4157,-0.4063,-0.4239,-0.4534,-0.4869,-0.5392,-0.5653,-0.5182,-0.5328,-0.4997,-0.3708,-0.3584,-0.3501,-0.3255,-0.3877,-0.4631,-0.5479,-0.6887,-0.8173,-0.9271,-1.002,-1.0139,-0.9313,-0.7782,-0.5955,-0.4033,-0.2531,-0.1513,-0.0891,-0.0448,-0.0224,-0.0112,-0.0331,-0.0547,-0.0982,-0.1501,-0.1697,-1.2608,-1.2756,-1.3397,-1.3975,-1.6839,0.0,-2.4073,-2.4813,0.0,-2.5609,0.0,0.0,0.0,-1.3494,-1.0506,-0.9757,-0.9527,-0.9046,-0.8103,-0.8033,-0.7974,-0.7645,-0.7344,-0.721,-0.7447,-0.6873,-0.6625,-0.7163,-0.7385,-0.7654,-0.8074,-0.7855,-0.7654,-0.7472,-0.6749,-0.6271,-0.6076,-0.6056,-0.6101,-0.6185,-0.708,-0.833,-0.9828,-1.0616,-1.1538,-1.2384,-1.2075,-1.1822,-1.1592,-1.1185,-1.078,-1.034,-1.0411,-1.019,-0.9841,-0.9542,-0.9113,-0.8596,-0.8648,-0.8311,-0.7878,-0.7712,-0.7444,-0.7108,-0.658,-0.6381,-0.6225,-0.5813,-0.5678,-0.5687,-0.5828,-0.5312,-0.4827,-0.4818,-0.446,-0.4115,-0.4238,-0.4429,-0.4662,-0.4995,-0.5458,-0.5641,-0.5179,-0.5186,-0.489,-0.3705,-0.3488,-0.3333,-0.3255,-0.3584,-0.4316,-0.547,-0.6212,-0.7286,-0.9078,-0.9818,-0.9917,-0.9362,-0.7584,-0.5859,-0.4133,-0.3058,-0.1935,-0.0876,-0.089,-0.0673,-0.0336,-0.1101,-0.1527,-0.1525,-0.2887,-0.3255,-1.2268,-1.2548,-1.3006,-1.2661,0.0,0.0,0.0,0.0,0.0,-2.3078,-2.2188,0.0,0.0,0.0,-0.8956,-0.7977,-0.7736,-0.7526,-0.7268,-0.7234,-0.7303,-0.7241,-0.7058,-0.69,-0.7048,-0.664,-0.6563,-0.6944,-0.7115,-0.7362,-0.7527,-0.7659,-0.7561,-0.7127,-0.6869,-0.6526,-0.6202,-0.6207,-0.6385,-0.6914,-0.7622,-0.8684,-1.0072,-1.0729,-1.1287,-1.1704,-1.1464,-1.0995,-1.042,-1.0211,-0.9933,-0.9577,-0.9829,-0.9685,-0.9358,-0.935,-0.9154,-0.8852,-0.8898,-0.8631,-0.8255,-0.8004,-0.7726,-0.7329,-0.6631,-0.639,-0.6242,-0.5568,-0.5202,-0.496,-0.512,-0.4989,-0.4764,-0.4564,-0.4331,-0.4298,-0.4426,-0.4555,-0.4749,-0.5243,-0.5516,-0.558,-0.5601,-0.5451,-0.4962,-0.399,-0.3718,-0.3439,-0.3267,-0.3828,-0.4551,-0.5283,-0.6685,-0.7986,-0.889,-0.9657,-0.978,-0.9056,-0.7697,-0.6437,-0.5368,-0.4211,-0.3219,-0.2512,-0.2417,-0.2423,-0.2201,-0.2992,-0.3579,-0.41,-0.5257,-0.5903,-1.2262,-1.2398,-1.233,0.0,0.0,0.0,0.0,0.0,0.0,-2.0374,-1.9632,0.0,-1.2972,0.0,-0.787,-0.6808,-0.6542,-0.6346,-0.6304,-0.6424,-0.6586,-0.6802,-0.6634,-0.6568,-0.67,-0.6346,-0.6275,-0.6588,-0.6903,-0.7011,-0.7166,-0.7537,-0.7493,-0.7005,-0.6887,-0.669,-0.6315,-0.6453,-0.6774,-0.7345,-0.8035,-0.9033,-1.0386,-1.0747,-1.1067,-1.1262,-1.0849,-1.0294,-0.9614,-0.9354,-0.9099,-0.8896,-0.9152,-0.9181,-0.9098,-0.909,-0.9037,-0.8928,-0.8822,-0.861,-0.8286,-0.799,-0.777,-0.7421,-0.646,-0.613,-0.5934,-0.5047,-0.4519,-0.4204,-0.4127,-0.4225,-0.4295,-0.4231,-0.4164,-0.4172,-0.4411,-0.4554,-0.4766,-0.5243,-0.551,-0.5644,-0.5824,-0.5559,-0.5055,-0.4274,-0.3847,-0.3495,-0.3255,-0.3837,-0.4511,-0.5218,-0.7011,-0.8332,-0.8718,-0.949,-0.9769,-0.9239,-0.8368,-0.7372,-0.6246,-0.532,-0.4452,-0.3865,-0.3989,-0.4102,-0.431,-0.5118,-0.5967,-0.6788,-0.7859,-0.8393,-1.2233,-1.1845,-1.1169,0.0,0.0,0.0,0.0,0.0,0.0,-1.7714,-1.5734,-1.3219,-1.2158,-0.9418,-0.7131,-0.645,-0.6074,-0.5678,-0.5213,-0.5524,-0.591,-0.6208,-0.6055,-0.6022,-0.6325,-0.5991,-0.5871,-0.6265,-0.6604,-0.6881,-0.7051,-0.7451,-0.7537,-0.7166,-0.6871,-0.6622,-0.6379,-0.6851,-0.7208,-0.7486,-0.8223,-0.9316,-1.0664,-1.0534,-1.0785,-1.1223,-1.0204,-0.9562,-0.9159,-0.8732,-0.8415,-0.8215,-0.8315,-0.8633,-0.8974,-0.876,-0.8754,-0.8773,-0.8498,-0.824,-0.7946,-0.7545,-0.7473,-0.7319,-0.6019,-0.5602,-0.5354,-0.414,-0.3705,-0.343,-0.2865,-0.2956,-0.3293,-0.3828,-0.3894,-0.3857,-0.4104,-0.4477,-0.4756,-0.5078,-0.5423,-0.5704,-0.5709,-0.5446,-0.5109,-0.4448,-0.3873,-0.3474,-0.3386,-0.3323,-0.3894,-0.5352,-0.7135,-0.8255,-0.8404,-0.9151,-0.9816,-1.001,-0.9517,-0.8421,-0.6537,-0.6243,-0.5684,-0.4856,-0.5149,-0.5714,-0.6542,-0.7561,-0.8523,-0.9345,-1.0375,-1.0788,-1.1497,-1.1789,0.0,-1.0578,0.0,0.0,0.0,0.0,0.0,0.0,-1.348,-1.196,-1.0835,-0.8849,-0.7031,-0.621,-0.5443,-0.5037,-0.5086,-0.5055,-0.5129,-0.5412,-0.5252,-0.5181,-0.5466,-0.5376,-0.5441,-0.5742,-0.6054,-0.6395,-0.6474,-0.6803,-0.6896,-0.6794,-0.6849,-0.6752,-0.6487,-0.6957,-0.7296,-0.752,-0.825,-0.9049,-0.9896,-0.9699,-0.9819,-1.0189,-0.9416,-0.9008,-0.8869,-0.7991,-0.755,-0.7505,-0.7459,-0.7623,-0.799,-0.8109,-0.8287,-0.8541,-0.8546,-0.8273,-0.7875,-0.7528,-0.709,-0.6574,-0.5591,-0.5197,-0.4918,-0.3931,-0.3266,-0.2783,-0.2465,-0.2216,-0.2217,-0.2753,-0.2999,-0.3119,-0.3285,-0.3834,-0.4285,-0.4649,-0.513,-0.5682,-0.6003,-0.5641,-0.5165,-0.4704,-0.3793,-0.3002,-0.2956,-0.2932,-0.3444,-0.4846,-0.6248,-0.7303,-0.7861,-0.8983,-0.9763,-1.0019,-1.0015,-0.971,-0.9008,-0.8571,-0.8241,-0.7922,-0.8279,-0.8706,-0.9301,-0.9946,-1.0564,-1.1171,-1.1903,-1.2073,-1.0663,-1.0667,0.0,-0.9203,-0.8413,-0.776,-0.7239,0.0,0.0,0.0,-1.0752,-0.9871,-0.9349,-0.7834,-0.6398,-0.5557,-0.4957,-0.4472,-0.4385,-0.4192,-0.4183,-0.4383,-0.4225,-0.432,-0.4691,-0.4925,-0.5049,-0.5137,-0.5631,-0.5964,-0.5919,-0.628,-0.6503,-0.6394,-0.6514,-0.6589,-0.6482,-0.6957,-0.7312,-0.7565,-0.8157,-0.8732,-0.9274,-0.9369,-0.9482,-0.9547,-0.8607,-0.8078,-0.786,-0.7097,-0.6789,-0.6826,-0.6781,-0.7037,-0.7444,-0.7547,-0.7707,-0.7898,-0.7908,-0.7621,-0.716,-0.695,-0.6523,-0.5994,-0.5039,-0.4586,-0.4194,-0.3266,-0.2568,-0.2037,-0.1704,-0.1399,-0.1349,-0.2044,-0.249,-0.2817,-0.2949,-0.3437,-0.3943,-0.4346,-0.4825,-0.5351,-0.5716,-0.5287,-0.4732,-0.4316,-0.318,-0.232,-0.2201,-0.2569,-0.3291,-0.4265,-0.5686,-0.6914,-0.7675,-0.8777,-0.9628,-1.0117,-1.0314,-1.0605,-1.0988,-1.0406,-1.0162,-1.0354,-1.0662,-1.1056,-1.1737,-1.2011,-1.2349,-1.2748,-1.2953,-1.2958,-0.9483,0.0,0.0,-0.7263,-0.6609,0.0,-0.5479,-0.6381,-0.7478,-0.8412,0.0,-0.7285,-0.7586,-0.6572,-0.541,-0.4743,-0.4405,-0.3937,-0.3376,-0.3159,-0.3067,-0.3217,-0.3226,-0.3417,-0.3993,-0.4345,-0.4601,-0.4592,-0.5266,-0.5547,-0.5405,-0.5921,-0.6095,-0.599,-0.6109,-0.6229,-0.6515,-0.6873,-0.73,-0.7695,-0.7925,-0.8311,-0.8743,-0.9357,-0.9449,-0.9054,-0.7783,-0.696,-0.6512,-0.6192,-0.6126,-0.6212,-0.6268,-0.6618,-0.7175,-0.7109,-0.7051,-0.7031,-0.688,-0.6532,-0.6157,-0.5987,-0.5809,-0.5474,-0.4384,-0.3831,-0.334,-0.2266,-0.1639,-0.1236,-0.083,-0.0591,-0.0675,-0.1466,-0.2179,-0.2636,-0.277,-0.3181,-0.3663,-0.421,-0.4465,-0.4732,-0.5071,-0.462,-0.3974,-0.329,-0.2038,-0.1259,-0.1259,-0.2197,-0.2965,-0.361,-0.5453,-0.694,-0.7714,-0.8641,-0.9529,-1.0408,-1.0413,-1.1091,-1.2339,-1.176,-1.156,-1.215,-1.2415,-1.2887,-1.3573,-1.3646,-1.3747,-1.3968,-1.3692,-1.342,-0.7169,-0.6619,0.0,0.0,-0.3798,-0.3053,-0.3157,-0.3419,-0.4143,-0.5743,-0.5981,-0.5851,-0.5772,-0.534,-0.4899,-0.4419,-0.3789,-0.3209,-0.306,-0.2748,-0.2615,-0.268,-0.2688,-0.2868,-0.3252,-0.3478,-0.3734,-0.4066,-0.4532,-0.4816,-0.4767,-0.5185,-0.5444,-0.5666,-0.5719,-0.5978,-0.6485,-0.6707,-0.7054,-0.7546,-0.7703,-0.7973,-0.8356,-0.8671,-0.8539,-0.795,-0.7517,-0.6775,-0.5886,-0.5662,-0.5523,-0.5514,-0.5277,-0.5646,-0.6285,-0.6179,-0.6447,-0.6759,-0.6395,-0.616,-0.5966,-0.5473,-0.4999,-0.4487,-0.3758,-0.3188,-0.2579,-0.1704,-0.121,-0.0844,0.0,0.0065,-0.0066,0.0,-0.065,-0.1385,-0.158,-0.2304,-0.3041,-0.3292,-0.3997,-0.447,-0.457,-0.4245,-0.3399,-0.1593,-0.0634,-0.0276,-0.0276,-0.0841,-0.1702,-0.3027,-0.4728,-0.6158,-0.713,-0.8241,-0.9418,-1.0609,-1.09,-1.1512,-1.259,-1.2464,-1.2743,-1.3511,-1.388,-1.4154,-1.4365,-1.4511,-1.4517,-1.4465,-1.4372,-1.4016,0.0,0.0,0.0,-0.23,0.0,-0.1305,-0.1584,-0.174,-0.2131,-0.3336,-0.421,-0.4762,-0.4699,-0.4569,-0.4235,-0.3784,-0.327,-0.28,-0.2474,-0.2258,-0.2124,-0.2003,-0.2006,-0.2166,-0.242,-0.268,-0.2993,-0.3336,-0.3751,-0.4018,-0.4085,-0.4388,-0.4665,-0.4925,-0.5164,-0.5487,-0.5931,-0.6262,-0.6653,-0.7076,-0.7458,-0.7788,-0.8215,-0.8228,-0.798,-0.7475,-0.7158,-0.6446,-0.5517,-0.541,-0.5293,-0.5199,-0.5102,-0.545,-0.6019,-0.5911,-0.6082,-0.6302,-0.6126,-0.5761,-0.5353,-0.5143,-0.4604,-0.3906,-0.3327,-0.2684,-0.1985,-0.1291,-0.068,-0.0119,0.0429,0.0632,0.072,0.0831,0.0143,-0.0663,-0.0994,-0.1633,-0.2353,-0.2826,-0.3372,-0.3763,-0.3759,-0.293,-0.1782,-0.0264,0.0453,0.0648,0.037,-0.019,-0.1062,-0.2511,-0.4279,-0.5766,-0.6934,-0.8007,-0.9072,-1.0419,-1.089,-1.1522,-1.2521,-1.3119,-1.3667,-1.4005,-1.478,-1.5164,-1.5086,-1.5345,-1.542,-1.5305,-1.4971,-1.462,0.0,0.0,-0.072,-0.0067,0.0065,0.0,-0.0366,-0.062,-0.0888,-0.146,-0.2785,-0.3804,-0.3786,-0.3713,-0.3539,-0.297,-0.2643,-0.2349,-0.1769,-0.1639,-0.1501,-0.1358,-0.1364,-0.1439,-0.1583,-0.194,-0.2294,-0.2427,-0.2851,-0.3163,-0.3267,-0.359,-0.3878,-0.3988,-0.4438,-0.4867,-0.5189,-0.5726,-0.6178,-0.6518,-0.713,-0.7682,-0.814,-0.7904,-0.7604,-0.7319,-0.677,-0.6085,-0.5229,-0.5229,-0.5159,-0.5052,-0.5133,-0.5505,-0.591,-0.5854,-0.585,-0.5906,-0.5982,-0.5485,-0.4768,-0.4969,-0.4433,-0.3621,-0.3036,-0.2364,-0.1687,-0.095,-0.0223,0.0468,0.077,0.1233,0.155,0.141,0.0701,-0.0073,-0.0618,-0.1169,-0.1715,-0.2496,-0.2809,-0.2896,-0.277,-0.1474,-0.017,0.0699,0.127,0.149,0.0934,0.0096,-0.0883,-0.2353,-0.4096,-0.564,-0.6997,-0.7844,-0.8897,-1.0204,-1.0726,-1.1475,-1.2359,-1.3646,-1.4214,-1.4155,-1.5363,-1.5931,-1.5658,-1.6007,-1.6162,-1.6127,-1.5531,-1.523,0.0,0.0,0.1302,0.0,0.122,0.1065,0.0,0.0,-0.0179,-0.0775,-0.1666,-0.2296,-0.2371,-0.2546,-0.2586,-0.228,-0.1823,-0.1444,-0.1387,-0.0969,-0.0657,-0.0526,-0.0671,-0.0749,-0.0815,-0.1155,-0.1413,-0.1575,-0.2033,-0.2305,-0.2176,-0.2759,-0.3085,-0.3227,-0.3619,-0.4167,-0.4773,-0.5081,-0.5571,-0.6281,-0.6809,-0.7338,-0.786,-0.7481,-0.723,-0.7026,-0.6585,-0.5903,-0.503,-0.503,-0.4927,-0.4749,-0.4702,-0.5068,-0.5651,-0.5493,-0.5616,-0.5788,-0.5772,-0.5358,-0.4876,-0.4729,-0.427,-0.3664,-0.2993,-0.236,-0.1689,-0.0851,-0.011,0.0572,0.1208,0.1664,0.1898,0.1849,0.1683,0.1287,0.015,-0.0685,-0.1369,-0.1827,-0.2205,-0.2249,-0.1318,-0.0836,-0.0086,0.1182,0.187,0.2005,0.1458,0.0391,-0.098,-0.2741,-0.4528,-0.61,-0.7325,-0.7973,-0.8991,-1.0477,-1.1149,-1.1796,-1.2382,-1.3907,-1.4441,-1.3862,-1.5422,-1.619,-1.5938,-1.6418,-1.6587,-1.6408,-1.6169,-1.5785,0.2332,0.2879,0.2918,0.0,0.2282,0.1928,0.1645,0.1213,0.078,0.0279,-0.0115,-0.0661,-0.1623,-0.1832,-0.1731,-0.1441,-0.105,-0.0749,-0.0538,-0.0243,0.0,0.0063,0.0,-0.0064,-0.0064,-0.0253,-0.0435,-0.0737,-0.0966,-0.122,-0.1358,-0.1838,-0.2167,-0.2457,-0.2939,-0.3405,-0.3854,-0.4369,-0.5027,-0.5945,-0.6512,-0.7002,-0.7431,-0.7122,-0.7007,-0.7086,-0.6678,-0.5968,-0.5116,-0.5233,-0.503,-0.4704,-0.4827,-0.5106,-0.5443,-0.5513,-0.5539,-0.5633,-0.5712,-0.5377,-0.4852,-0.4734,-0.4235,-0.3577,-0.3041,-0.2256,-0.1445,-0.0724,0.0228,0.1106,0.1644,0.206,0.23,0.2058,0.1988,0.1693,0.0794,0.0073,-0.0595,-0.1209,-0.1363,-0.1079,-0.0082,0.05,0.1193,0.2309,0.2688,0.2666,0.1997,0.0774,-0.078,-0.2602,-0.435,-0.5885,-0.7277,-0.8022,-0.896,-1.0131,-1.1225,-1.2004,-1.2214,-1.3909,-1.4609,-1.417,-1.5677,-1.6286,-1.6027,-1.7092,-1.7438,-1.713,-1.6856,-1.663,0.0,0.0,0.4194,0.4007,0.354,0.2984,0.0,0.0,0.1803,0.1419,0.1312,0.086,-0.0405,-0.0732,-0.0714,-0.0508,-0.0217,0.0053,0.0282,0.04,0.052,0.0646,0.0652,0.0653,0.0648,0.0514,0.0336,0.0,-0.0054,-0.0259,-0.063,-0.0966,-0.1328,-0.1641,-0.2205,-0.2598,-0.2896,-0.3662,-0.4483,-0.5395,-0.5932,-0.6451,-0.6921,-0.6678,-0.6756,-0.7031,-0.6669,-0.6007,-0.5193,-0.5392,-0.5227,-0.4868,-0.4983,-0.5254,-0.5543,-0.5625,-0.5686,-0.5731,-0.5833,-0.5474,-0.4983,-0.4779,-0.4275,-0.3631,-0.3093,-0.2313,-0.1414,-0.0686,0.0408,0.1422,0.1895,0.2269,0.2518,0.2213,0.2087,0.1806,0.1119,0.0569,-0.0073,-0.0666,-0.0597,-0.0153,0.0804,0.1573,0.2379,0.3161,0.349,0.3299,0.2427,0.0951,-0.0671,-0.2549,-0.4352,-0.5946,-0.7312,-0.8004,-0.8894,-0.9859,-1.1138,-1.1953,-1.1963,-1.3774,-1.4679,-1.4345,-1.5855,-1.6496,-1.6205,-1.7504,-1.7983,-1.7629,-1.7316,-1.7163,0.0,0.465,0.0,0.5458,0.5065,0.0,0.0,0.3437,0.2883,0.2432,0.2218,0.2071,0.1925,0.1216,0.071,0.0712,0.0811,0.0912,0.0864,0.0996,0.1112,0.123,0.1263,0.1273,0.1229,0.1084,0.0867,0.0578,0.0418,0.0223,-0.0043,-0.0297,-0.054,-0.0756,-0.1305,-0.1773,-0.2163,-0.3137,-0.3929,-0.4564,-0.4994,-0.5567,-0.627,-0.6112,-0.6261,-0.6618,-0.6357,-0.5791,-0.5104,-0.525,-0.5282,-0.5244,-0.5012,-0.5441,-0.6229,-0.5904,-0.5982,-0.6251,-0.604,-0.5664,-0.5214,-0.4838,-0.4453,-0.4061,-0.3287,-0.2565,-0.1786,-0.0952,0.0115,0.1068,0.1834,0.2266,0.2593,0.2403,0.2353,0.2034,0.0905,0.0281,-0.007,-0.0281,-0.0144,0.0299,0.1204,0.215,0.2918,0.3564,0.4066,0.3912,0.2751,0.0935,-0.1015,-0.295,-0.4892,-0.6536,-0.7779,-0.8116,-0.8723,-0.9951,-1.0819,-1.1516,-1.1952,-1.3737,-1.4555,-1.4228,-1.5929,-1.672,-1.6647,-1.7325,-1.7659,-1.7699,-1.7254,-1.7151,0.0,0.0,0.0,0.43,0.4839,0.4658,0.4557,0.405,0.3544,0.3265,0.3167,0.3118,0.325,0.2377,0.165,0.165,0.1758,0.1839,0.1839,0.1966,0.2091,0.2164,0.2194,0.2179,0.2097,0.1968,0.1764,0.141,0.1266,0.0996,0.0589,0.0329,0.0,-0.044,-0.0717,-0.1169,-0.1785,-0.2508,-0.3122,-0.3621,-0.4245,-0.4813,-0.5312,-0.5522,-0.5826,-0.6188,-0.6096,-0.5733,-0.5227,-0.5195,-0.5137,-0.5042,-0.5165,-0.5494,-0.5876,-0.6048,-0.6054,-0.5917,-0.5798,-0.547,-0.5105,-0.4674,-0.4331,-0.3968,-0.3466,-0.2685,-0.1855,-0.0976,0.0118,0.116,0.1635,0.2202,0.2588,0.2417,0.222,0.1955,0.1498,0.1024,0.0617,0.0279,0.0501,0.112,0.2164,0.2974,0.3755,0.4851,0.4758,0.4236,0.3389,0.147,-0.055,-0.226,-0.4218,-0.5899,-0.7231,-0.8021,-0.8811,-0.9951,-1.0987,-1.1682,-1.1957,-1.3639,-1.4446,-1.4307,-1.5906,-1.6638,-1.6599,-1.7918,-1.8517,-1.8179,-1.79,-1.7705,-0.214,0.0,0.0,0.0,0.0,0.4712,0.5202,0.479,0.4303,0.4351,0.422,0.4176,0.4343,0.3677,0.3001,0.2647,0.2669,0.2677,0.2583,0.2635,0.2752,0.283,0.2887,0.2858,0.2732,0.2663,0.2465,0.2002,0.1832,0.1539,0.102,0.0778,0.0359,-0.0224,-0.041,-0.0771,-0.1353,-0.1895,-0.2393,-0.2815,-0.3472,-0.4066,-0.4538,-0.4882,-0.5241,-0.5638,-0.5597,-0.5534,-0.5372,-0.5271,-0.5159,-0.5121,-0.5257,-0.5535,-0.5856,-0.611,-0.6097,-0.5884,-0.5678,-0.5422,-0.5073,-0.4481,-0.4126,-0.3913,-0.3357,-0.2631,-0.18,-0.092,0.0119,0.1052,0.1579,0.2155,0.248,0.2195,0.2006,0.1879,0.1795,0.1469,0.1082,0.0895,0.1281,0.1929,0.2981,0.3842,0.4669,0.572,0.5402,0.4723,0.3853,0.181,-0.0182,-0.1878,-0.3842,-0.5526,-0.6893,-0.7811,-0.8698,-0.9856,-1.0773,-1.1505,-1.1952,-1.347,-1.4223,-1.4146,-1.584,-1.6543,-1.6349,-1.7933,-1.8708,-1.8458,-1.8087,-1.7443,0.0,0.0,0.0,0.0,0.0,0.0,0.5996,0.5655,0.5153,0.5594,0.5384,0.5125,0.5308,0.5221,0.4814,0.3821,0.363,0.3453,0.3024,0.2924,0.2962,0.312,0.324,0.3278,0.3152,0.3169,0.2976,0.2377,0.2191,0.1854,0.126,0.1016,0.0604,-0.0067,-0.0336,-0.0624,-0.0875,-0.128,-0.1723,-0.2191,-0.2712,-0.3311,-0.3946,-0.4159,-0.4484,-0.4862,-0.4824,-0.5092,-0.5584,-0.5447,-0.5438,-0.5471,-0.527,-0.567,-0.6295,-0.6085,-0.6173,-0.6332,-0.576,-0.5522,-0.5224,-0.4285,-0.4015,-0.3852,-0.2968,-0.2352,-0.179,-0.0728,0.0059,0.0801,0.1728,0.2064,0.2071,0.1687,0.1779,0.187,0.1621,0.145,0.1412,0.1549,0.2038,0.2714,0.3684,0.4731,0.5664,0.6138,0.5911,0.5275,0.4115,0.2057,0.0,-0.1874,-0.3749,-0.5489,-0.6748,-0.7396,-0.8297,-0.9578,-1.0262,-1.0987,-1.1957,-1.33,-1.3977,-1.3737,-1.5705,-1.6477,-1.6027,-1.7251,-1.8146,-1.8481,-1.7714,-1.6386,-1.1718,0.0,0.0,0.0,0.0,0.0,0.3536,0.3948,0.4154,0.5418,0.5305,0.5214,0.6018,0.6039,0.5826,0.5416,0.469,0.4143,0.4007,0.3778,0.3702,0.3893,0.3851,0.3759,0.3699,0.3608,0.3342,0.278,0.2506,0.2166,0.1666,0.1162,0.0667,0.0129,0.004,-0.0186,-0.0614,-0.0767,-0.1168,-0.1781,-0.211,-0.2462,-0.2866,-0.3236,-0.3691,-0.4107,-0.4373,-0.4736,-0.5103,-0.5068,-0.509,-0.5163,-0.5407,-0.5809,-0.6237,-0.6295,-0.6313,-0.6231,-0.5625,-0.5184,-0.4831,-0.4177,-0.3767,-0.3466,-0.2998,-0.2404,-0.1679,-0.0953,-0.0289,0.0482,0.1637,0.1833,0.1803,0.1947,0.2043,0.207,0.1816,0.2042,0.2164,0.1726,0.2063,0.2893,0.4325,0.5238,0.6027,0.6964,0.6766,0.608,0.483,0.3129,0.1244,-0.0612,-0.262,-0.4329,-0.5504,-0.6724,-0.7998,-0.9226,-1.0005,-1.0901,-1.1957,-1.2881,-1.347,-1.3652,-1.5262,-1.6027,-1.6027,-1.7568,-1.8272,-1.8187,-1.7613,-1.648,0.0,0.0,0.0,0.0,0.0,0.0,0.1374,0.2757,0.3832,0.5669,0.5868,0.5929,0.657,0.6726,0.671,0.6549,0.5676,0.4953,0.4668,0.433,0.4168,0.4342,0.4301,0.4247,0.4186,0.3966,0.3616,0.3134,0.2684,0.2139,0.1491,0.1078,0.0689,0.0334,0.0268,0.0083,-0.0249,-0.0378,-0.0676,-0.119,-0.1501,-0.1814,-0.2124,-0.2517,-0.2913,-0.3356,-0.3819,-0.4176,-0.4416,-0.4627,-0.488,-0.5138,-0.5333,-0.5722,-0.6216,-0.6194,-0.6135,-0.6021,-0.5491,-0.4987,-0.4502,-0.3855,-0.3461,-0.3146,-0.272,-0.2103,-0.1456,-0.0841,-0.0057,0.0837,0.1713,0.1762,0.1574,0.1722,0.1896,0.1997,0.1724,0.2242,0.2677,0.2234,0.2716,0.3634,0.5053,0.59,0.6773,0.7541,0.7365,0.6782,0.5453,0.3931,0.2222,0.0352,-0.1567,-0.3261,-0.4615,-0.6066,-0.7484,-0.8844,-0.9695,-1.0733,-1.1957,-1.254,-1.313,-1.3561,-1.5,-1.5977,-1.6428,-1.752,-1.7893,-1.7707,-1.7239,-1.6386,0.0,0.0,0.0,0.0,-0.8292,0.0,-0.0926,0.127,0.3082,0.5644,0.6345,0.66,0.6929,0.7154,0.7202,0.7031,0.6505,0.586,0.5121,0.471,0.4511,0.4666,0.466,0.466,0.4698,0.4313,0.3893,0.3477,0.2722,0.1916,0.1128,0.0928,0.0728,0.0482,0.0398,0.0268,0.0104,-0.0089,-0.0313,-0.0575,-0.0964,-0.1324,-0.1632,-0.1903,-0.2224,-0.2658,-0.3169,-0.3511,-0.3725,-0.4251,-0.4806,-0.5277,-0.5208,-0.5624,-0.624,-0.6081,-0.5945,-0.5792,-0.5445,-0.486,-0.4144,-0.3506,-0.3142,-0.2799,-0.2229,-0.1691,-0.1122,-0.0505,0.0517,0.1493,0.1897,0.1732,0.153,0.1435,0.1679,0.1849,0.1629,0.2315,0.3013,0.2881,0.3585,0.4596,0.5699,0.6757,0.7583,0.7866,0.7926,0.7394,0.5985,0.4552,0.2941,0.1067,-0.0611,-0.2307,-0.3914,-0.5436,-0.6996,-0.8591,-0.9459,-1.0467,-1.1866,-1.2369,-1.279,-1.3307,-1.4825,-1.5973,-1.6885,-1.7153,-1.7232,-1.7239,-1.677,-1.6103,-1.9597,-1.8894,0.0,-1.4732,-1.3094,0.0,-0.4964,-0.3627,-0.2142,0.3029,0.4032,0.463,0.6635,0.6634,0.6258,0.5888,0.6441,0.6622,0.5812,0.524,0.4985,0.5232,0.5099,0.5068,0.5226,0.4733,0.4226,0.3823,0.2707,0.1942,0.1657,0.1264,0.0826,0.0353,0.0527,0.0458,0.0103,-0.0045,-0.0201,-0.0368,-0.0713,-0.0964,-0.1142,-0.1348,-0.1695,-0.2169,-0.2658,-0.3141,-0.365,-0.4156,-0.466,-0.5189,-0.5538,-0.6027,-0.6532,-0.6657,-0.6383,-0.5907,-0.5699,-0.4895,-0.3906,-0.3431,-0.2891,-0.2354,-0.19,-0.142,-0.0785,0.0,0.0918,0.1661,0.1724,0.1803,0.1874,0.191,0.2064,0.2204,0.2242,0.3019,0.3661,0.3379,0.3829,0.4743,0.6128,0.7144,0.7784,0.8103,0.8444,0.8113,0.6428,0.5176,0.3698,0.1875,-0.0085,-0.1825,-0.3185,-0.5102,-0.6798,-0.825,-0.9204,-1.0207,-1.1413,-1.1757,-1.2106,-1.2619,-1.4033,-1.5335,-1.6319,-1.6588,-1.677,-1.6676,-1.6204,-1.5534,-1.9109,-1.8931,-1.85,-1.6912,-1.5816,0.0,0.0,-0.7875,-0.5959,-0.282,-0.0049,0.1993,0.2597,0.3822,0.528,0.6876,0.6803,0.6589,0.6689,0.6197,0.5909,0.6136,0.5822,0.5602,0.5617,0.5057,0.4362,0.3561,0.2761,0.2134,0.1777,0.1144,0.0738,0.0603,0.0437,0.0255,0.0051,-0.0017,-0.0118,-0.0257,-0.0485,-0.063,-0.0716,-0.0981,-0.1305,-0.1686,-0.2208,-0.2764,-0.3341,-0.3888,-0.4529,-0.5233,-0.5522,-0.5976,-0.6481,-0.6591,-0.6373,-0.5892,-0.5585,-0.4784,-0.379,-0.332,-0.2658,-0.1968,-0.1555,-0.0892,-0.0055,0.078,0.1361,0.1853,0.2327,0.2349,0.2246,0.2502,0.2677,0.277,0.2511,0.347,0.4153,0.3772,0.4572,0.5559,0.6463,0.7514,0.8217,0.8499,0.8727,0.8249,0.6599,0.5272,0.3732,0.185,-0.0083,-0.1797,-0.3351,-0.517,-0.6847,-0.8414,-0.9204,-1.012,-1.1235,-1.1532,-1.2065,-1.2939,-1.401,-1.4844,-1.5417,-1.5605,-1.5885,-1.6357,-1.5411,-1.4841,-1.7334,-1.7608,-1.78,-1.7738,-1.7223,-1.6182,0.0,0.0,0.0,-0.849,-0.4725,-0.1957,-0.2637,0.0101,0.3425,0.6244,0.6601,0.676,0.7442,0.7106,0.681,0.6835,0.6657,0.6395,0.6065,0.5406,0.4539,0.3454,0.2846,0.2327,0.183,0.0971,0.0568,0.0719,0.0254,0.0,0.0,0.0,-0.0054,-0.0162,-0.0283,-0.0367,-0.0405,-0.0676,-0.0945,-0.1194,-0.182,-0.2414,-0.2964,-0.3583,-0.4362,-0.523,-0.55,-0.5881,-0.6327,-0.6549,-0.6324,-0.583,-0.5526,-0.4764,-0.3784,-0.3198,-0.2355,-0.1526,-0.1105,-0.0303,0.0642,0.1429,0.1728,0.2091,0.2973,0.2926,0.271,0.3011,0.3212,0.3202,0.2912,0.371,0.4408,0.407,0.5127,0.6152,0.6597,0.7741,0.8542,0.8632,0.8877,0.8301,0.65,0.5206,0.3707,0.1765,-0.0083,-0.1805,-0.3589,-0.5154,-0.6812,-0.8474,-0.9141,-0.9965,-1.0958,-1.1414,-1.2147,-1.3275,-1.3921,-1.4314,-1.4364,-1.4412,-1.4878,-1.5762,-1.4549,-1.3926,-1.4834,-1.5354,-1.6483,-1.67,-1.7438,-1.7423,-1.4862,0.0,-1.7194,-1.0373,0.0,-0.8671,-0.7265,0.0,0.0,-0.0851,0.4362,0.8191,0.766,0.7384,0.7074,0.6694,0.7472,0.7755,0.6934,0.5946,0.5067,0.4401,0.31,0.2268,0.2159,0.11,0.0381,0.011,0.0037,0.0,0.0,0.0,-0.0008,-0.0024,-0.0098,-0.0224,-0.0401,-0.0442,-0.0536,-0.0725,-0.1448,-0.2061,-0.2612,-0.326,-0.4077,-0.494,-0.571,-0.6126,-0.6331,-0.723,-0.6786,-0.5733,-0.5855,-0.5137,-0.4017,-0.3246,-0.1997,-0.0766,-0.0396,0.0206,0.0959,0.1549,0.1913,0.2313,0.3029,0.3104,0.3106,0.3384,0.3395,0.3453,0.3633,0.3842,0.4031,0.4267,0.476,0.5316,0.6134,0.7663,0.8574,0.7854,0.8624,0.8574,0.6586,0.5449,0.4118,0.2105,0.0341,-0.1452,-0.3262,-0.4852,-0.6288,-0.7743,-0.8533,-0.9332,-1.0027,-1.0875,-1.1715,-1.2566,-1.2833,-1.3213,-1.3719,-1.3487,-1.3767,-1.4456,-1.3647,-1.3032,-1.353,-1.3575,-1.4308,-1.5854,-1.6795,-1.7398,-1.779,-1.8271,-1.795,-1.5528,0.0,0.0,0.0,0.0,0.0,0.0,0.3452,0.6864,0.7407,0.7342,0.7306,0.7453,0.7386,0.7213,0.7008,0.6498,0.5867,0.5128,0.36,0.2495,0.1993,0.1142,0.0466,0.0016,0.0,0.0,0.0,0.0,0.0,-0.0,-0.0029,-0.0086,-0.0172,-0.0251,-0.0357,-0.0509,-0.0941,-0.1499,-0.2149,-0.2831,-0.3805,-0.501,-0.5748,-0.6147,-0.6356,-0.7205,-0.6969,-0.6206,-0.6039,-0.5365,-0.429,-0.2739,-0.1503,-0.0538,-0.0192,0.0552,0.1348,0.1744,0.2181,0.2697,0.3529,0.3727,0.3764,0.4186,0.4218,0.4125,0.4111,0.4183,0.4297,0.4555,0.497,0.5345,0.5767,0.6947,0.7792,0.7646,0.7744,0.7239,0.5287,0.4363,0.3036,0.101,-0.0508,-0.2033,-0.3522,-0.5127,-0.6484,-0.7603,-0.8715,-0.9517,-0.9975,-1.0622,-1.1225,-1.1892,-1.2344,-1.2597,-1.2647,-1.2715,-1.2815,-1.2955,-1.2672,-1.2259,-1.2128,-1.1778,-1.2167,-1.4951,-1.592,-1.6837,-1.9215,-1.8226,-1.7069,-1.8064,-1.4427,0.0,0.0,0.0,-0.4426,-0.0708,0.0,0.5358,0.5997,0.6409,0.69,0.758,0.7018,0.6569,0.664,0.6323,0.5853,0.5178,0.3728,0.2585,0.192,0.1263,0.0629,0.0022,0.0,0.0,0.0,0.0,0.0,0.0,0.0,0.0,-0.0003,-0.01,-0.0201,-0.0302,-0.0461,-0.092,-0.1579,-0.2373,-0.3525,-0.4873,-0.5608,-0.6115,-0.6481,-0.7158,-0.7079,-0.656,-0.6164,-0.53,-0.4122,-0.2428,-0.1272,-0.0509,-0.0136,0.0675,0.1521,0.1976,0.2435,0.2968,0.4024,0.419,0.4194,0.4736,0.4766,0.4615,0.4466,0.4408,0.4527,0.4651,0.4994,0.5346,0.5631,0.6506,0.713,0.7066,0.68,0.6052,0.4422,0.3312,0.1996,0.034,-0.1192,-0.2562,-0.3757,-0.5104,-0.6368,-0.7408,-0.8479,-0.9314,-0.9629,-1.0145,-1.058,-1.0854,-1.1493,-1.1679,-1.1508,-1.1762,-1.1674,-1.1419,-1.1598,-1.1457,-1.0237,-0.9811,-1.0339,-1.386,-1.5006,-1.5762,-1.7739,-1.6779,-1.5504,-1.5603,-1.4126,-1.3178,-1.4335,-1.3303,-0.9855,-0.2362,0.2307,0.0,0.0,0.4198,0.558,0.6444,0.647,0.6224,0.5787,0.5079,0.4539,0.4263,0.316,0.2397,0.2107,0.1513,0.0824,0.0023,0.0,0.0,0.0,0.0,0.0,0.0,0.0,0.0,-0.0,-0.0004,-0.0009,-0.0017,-0.0089,-0.0394,-0.091,-0.1974,-0.3118,-0.4329,-0.5333,-0.6122,-0.6752,-0.7312,-0.7169,-0.6644,-0.6249,-0.489,-0.325,-0.2606,-0.1628,-0.0629,-0.0211,0.0553,0.1463,0.2168,0.2654,0.3128,0.4184,0.4356,0.4287,0.4782,0.4876,0.49,0.4798,0.4546,0.4408,0.4665,0.4717,0.4986,0.5635,0.643,0.668,0.5847,0.5884,0.5532,0.4333,0.3002,0.1686,0.0695,-0.1059,-0.2591,-0.3571,-0.4467,-0.5625,-0.7044,-0.7672,-0.8204,-0.8644,-0.9259,-0.9634,-0.9625,-0.997,-1.0139,-1.0391,-1.0135,-1.0043,-1.0038,-1.0472,-1.068,-0.8906,-0.8286,-0.8063,-1.0243,-1.2618,-1.4692,-1.5792,-1.5875,-1.5707,-1.5647,-1.4839,-1.4054,-1.3706,-1.1581,-0.8853,-0.5677,-0.0977,0.2273,0.0,0.1031,0.0841,0.2648,0.4283,0.5011,0.4302,0.5252,0.542,0.4219,0.3419,0.2684,0.2005,0.1437,0.0869,0.0286,0.0093,0.0,0.0,0.0,0.0,0.0,0.0,0.0,0.0,0.0,0.0,-0.0002,-0.0025,-0.0124,-0.0336,-0.1191,-0.2296,-0.3602,-0.4765,-0.5846,-0.6784,-0.7289,-0.7312,-0.6927,-0.6059,-0.4903,-0.3635,-0.2566,-0.1668,-0.0886,-0.0083,0.0768,0.1652,0.2281,0.2766,0.3354,0.4499,0.4581,0.4544,0.5201,0.5218,0.5013,0.4975,0.473,0.4599,0.493,0.4784,0.481,0.5467,0.5427,0.5355,0.5405,0.5312,0.4623,0.3093,0.2499,0.1609,0.0089,-0.0893,-0.1871,-0.2901,-0.4472,-0.5695,-0.648,-0.7355,-0.794,-0.8025,-0.8609,-0.8966,-0.9174,-0.9432,-0.9607,-0.9864,-1.0125,-1.0207,-1.0202,-0.9981,-0.9861,-0.7792,-0.6632,-0.5565,-0.7075,-0.9731,-1.2588,-1.4928,-1.5744,-1.5883,-1.5434,-1.4314,-1.3515,-1.3844,-1.1484,-0.9293,-0.8646,-0.4585,-0.1074,0.0,-0.1294,-0.2531,-0.2769,0.0668,0.0,0.3371,0.3934,0.4166,0.3843,0.2835,0.2026,0.1564,0.1254,0.0879,0.0416,0.014,0.0,0.0,0.0,0.0,0.0,0.0,0.0,0.0,0.0,0.0,0.0,0.0,0.0,-0.0064,-0.087,-0.1717,-0.2638,-0.4039,-0.5254,-0.6336,-0.7122,-0.7284,-0.6943,-0.6022,-0.5015,-0.3933,-0.2722,-0.1861,-0.1038,-0.0081,0.083,0.1683,0.2367,0.3006,0.3757,0.4732,0.491,0.5015,0.5522,0.5526,0.5362,0.5278,0.5084,0.4919,0.5005,0.4855,0.4801,0.5186,0.4924,0.4722,0.4981,0.4613,0.3836,0.241,0.1885,0.1166,-0.009,-0.0807,-0.169,-0.2786,-0.4163,-0.5289,-0.5984,-0.6753,-0.7351,-0.758,-0.7937,-0.8292,-0.8468,-0.8732,-0.8995,-0.9345,-0.9598,-0.973,-0.9828,-0.9365,-0.9033]},{"header":{"parameterUnit":"m.s-1","parameterCategory":1,"la1":30.6,"la2":29.2853,"lo1":-89.7004,"lo2":-87.6739,"dy":0.0162,"dx":0.0183,"nx":112,"ny":82,"refTime":"2024-05-29T12:00:00:Z","depth":0,"parameterNumber":3,"parameterNumberName":"V-component_of_WINDS"},"data":[0.0,0.0,0.0,0.0,0.0,0.0,0.0,0.0,0.0,0.0,0.0,0.0,0.0,0.0,0.0,0.0,0.0,0.0,0.0,0.0,0.0,0.0,0.0,0.0,0.0,0.0,0.0,0.0,0.0,0.0,0.0,0.0,0.0,0.0,0.0,0.0,0.0,0.0,0.0,0.0,0.0,0.0,0.0,0.0,0.0,0.0,0.0,0.0,0.0,0.0,0.0,0.0,0.0,0.0,0.0,0.0,0.0,0.0,0.0,0.0,0.0,0.0,0.0,0.0,0.0,0.0,0.0,0.0,0.0,0.0,0.0,0.0,0.0,0.0,0.0,0.0,0.0,0.0,0.0,0.0,0.0,0.0,0.0,0.0,0.0,0.0,0.0,0.0,0.0,0.0,2.0412,1.8041,1.2607,0.9055,0.8744,0.853,0.9937,1.3515,0.0,0.0,0.0,0.0,0.0,0.0,0.0,0.0,0.0,0.0,0.0,0.0,0.0,0.0,0.0,0.0,0.0,0.0,0.0,0.0,0.0,0.0,0.0,0.0,0.0,0.0,0.0,0.0,0.0,0.0,0.0,0.0,0.0,0.0,0.0,0.0,0.0,0.0,0.0,0.0,0.0,0.0,0.0,0.0,0.0,0.0,0.0,0.0,0.0,0.0,0.0,0.0,0.0,0.0,0.0,0.0,0.0,0.0,0.0,0.0,0.0,0.0,0.0,0.0,0.0,0.0,0.0,0.0,0.0,0.0,0.0,0.0,0.0,0.0,0.0,0.0,0.0,0.0,0.0,0.0,0.0,0.0,0.0,0.0,0.0,0.0,0.0,0.0,0.0,0.0,0.0,0.0,0.0,0.0,0.0,0.0,0.0,0.0,0.0,0.0,0.0,0.0,0.0,0.0,2.0556,1.5536,1.1979,0.9767,0.9327,0.9558,1.0666,1.2926,0.0,0.0,0.0,0.0,0.0,0.0,0.0,0.0,0.0,0.0,0.0,0.0,0.0,0.0,0.0,0.0,0.0,0.0,0.0,0.0,0.0,0.0,0.0,0.0,0.0,0.0,0.0,0.0,0.0,0.0,0.0,0.0,0.0,0.0,0.0,0.0,0.0,0.0,0.0,0.0,0.0,0.0,0.0,0.0,0.0,0.0,0.0,0.0,0.0,0.0,0.0,0.0,0.0,0.0,0.0,0.0,0.0,0.0,0.0,0.0,0.0,0.0,0.0,0.0,0.0,0.0,0.0,0.0,0.0,0.0,0.0,0.0,0.0,0.0,0.0,0.0,0.0,0.0,0.0,0.0,0.0,0.0,0.0,0.0,0.0,0.0,0.0,0.0,0.0,0.0,0.0,0.0,0.0,0.0,0.0,0.0,0.0,0.0,0.0,0.0,0.0,0.0,0.0,2.1058,1.8596,1.4652,1.2093,1.0291,0.9372,0.9791,1.085,1.2616,1.4358,0.0,0.0,0.0,0.0,0.0,0.0,0.0,0.0,0.0,0.0,0.0,0.0,0.0,0.0,0.0,0.0,0.0,0.0,0.0,0.0,0.0,0.0,0.0,0.0,0.0,0.0,0.0,0.0,0.0,0.0,0.0,0.0,0.0,0.0,0.0,0.0,0.0,0.0,0.0,0.0,0.0,0.0,0.0,0.0,0.0,0.0,0.0,0.0,0.0,0.0,0.0,0.0,0.0,0.0,0.0,0.0,0.0,0.0,0.0,0.0,0.0,0.0,0.0,0.0,0.0,0.0,0.0,0.0,0.0,0.0,0.0,0.0,0.0,0.0,0.0,0.0,0.0,0.0,0.0,0.0,0.0,0.0,0.0,0.0,0.0,0.0,0.0,0.0,0.0,0.0,0.0,0.0,0.0,0.0,0.0,0.0,0.0,0.0,0.0,0.0,0.0,0.0,1.8105,1.6379,1.4174,1.2194,1.0609,0.9665,1.0185,1.1105,1.2452,1.4746,0.0,0.0,0.0,0.0,0.0,0.0,0.0,0.0,0.0,0.0,0.0,0.0,0.0,0.0,0.0,0.0,0.0,0.0,0.0,0.0,0.0,0.0,0.0,0.0,0.0,0.0,0.0,0.0,0.0,0.0,0.0,0.0,0.0,0.0,0.0,0.0,0.0,0.0,0.0,0.0,0.0,0.0,0.0,0.0,0.0,0.0,0.0,0.0,0.0,0.0,0.0,0.0,0.0,0.0,0.0,0.0,0.0,0.0,0.0,0.0,0.0,0.0,0.0,0.0,0.0,0.0,0.0,0.0,0.0,0.0,0.0,0.0,0.0,0.0,0.0,0.0,0.0,0.0,0.0,0.0,0.0,0.0,0.0,0.0,0.0,0.0,0.0,0.0,0.0,0.0,0.0,0.0,0.0,0.0,0.0,0.0,0.0,0.0,0.0,0.0,0.0,0.0,1.6819,1.4759,1.3567,1.1808,1.074,1.0774,1.1227,1.1743,1.2396,1.5705,0.0,0.0,0.0,0.0,0.0,0.0,0.0,0.0,0.0,0.0,0.0,0.0,0.0,0.0,0.0,0.0,0.0,0.0,0.0,0.0,0.0,0.0,0.0,0.0,0.0,0.0,0.0,0.0,0.0,0.0,0.0,0.0,0.0,0.0,0.0,0.0,0.0,0.0,0.0,0.0,0.0,0.0,0.0,0.0,0.0,0.0,0.0,0.0,0.0,0.0,0.0,0.0,0.0,0.0,0.0,0.0,0.0,0.0,0.0,0.0,0.0,0.0,0.0,0.0,0.0,0.0,0.0,0.0,0.0,0.0,0.0,0.0,0.0,0.0,0.0,0.0,0.0,0.0,0.0,0.0,0.0,0.0,0.0,0.0,0.0,0.0,0.0,0.0,0.0,0.0,0.0,0.0,0.0,0.0,0.0,0.0,0.0,0.0,0.0,0.0,0.0,0.0,1.5463,1.3672,0.0,1.1186,1.0515,1.0127,1.043,1.1212,1.2431,0.0,0.0,0.0,0.0,0.0,0.0,0.0,0.0,0.0,0.0,0.0,0.0,0.0,0.0,0.0,0.0,0.0,0.0,0.0,0.0,0.0,0.0,0.0,0.0,0.0,0.0,0.0,0.0,0.0,0.0,0.0,0.0,0.0,0.0,0.0,0.0,0.0,0.0,0.0,0.0,0.0,0.0,0.0,0.0,0.0,0.0,0.0,0.0,0.0,0.0,0.0,0.0,0.0,0.0,0.0,0.0,0.0,0.0,0.0,0.0,0.0,0.0,0.0,0.0,0.0,0.0,0.0,0.0,0.0,0.0,0.0,0.0,0.0,0.0,0.0,0.0,0.0,0.0,0.0,0.0,0.0,0.0,0.0,0.0,0.0,0.0,0.0,0.0,0.0,0.0,0.0,0.0,0.0,0.0,0.0,0.0,0.0,0.0,0.0,0.0,0.0,0.0,1.5994,1.371,1.186,0.0,0.9763,0.9382,0.8927,0.9643,1.0665,1.2023,0.0,0.0,0.0,0.0,0.0,0.0,0.0,0.0,0.0,0.0,0.0,0.0,0.0,0.0,0.0,0.0,0.0,0.0,0.0,0.0,0.0,0.0,0.0,0.0,0.0,0.0,0.0,0.0,0.0,0.0,0.0,0.0,0.0,0.0,0.0,0.0,0.0,0.0,0.0,0.0,0.0,0.0,0.0,0.0,0.0,0.0,0.0,0.0,0.0,0.0,0.0,0.0,0.0,0.0,0.0,0.0,0.0,0.0,0.0,0.0,0.0,0.0,0.0,0.0,0.0,0.0,0.0,0.0,0.0,0.0,0.0,0.0,0.0,0.0,0.0,0.0,0.0,0.0,0.0,0.0,0.0,0.0,0.0,0.0,0.0,0.0,0.0,0.0,0.0,0.0,0.0,0.0,0.0,0.0,0.0,0.0,0.0,0.0,0.0,0.0,0.0,0.0,1.4766,1.1543,0.919,0.8123,0.7425,0.712,0.7262,0.8973,1.0311,0.0,0.0,0.0,0.0,0.0,0.0,0.0,0.0,0.0,0.0,0.0,0.0,0.0,0.0,0.0,0.0,0.0,0.0,0.0,0.0,0.0,0.0,0.0,0.0,0.0,0.0,0.0,0.0,0.0,0.0,0.0,0.0,0.0,0.0,0.0,0.0,0.0,0.0,0.0,0.0,0.0,0.0,0.0,0.0,0.0,0.0,0.0,0.0,0.0,0.0,0.0,0.0,0.0,0.0,0.0,0.0,0.0,0.0,0.0,0.0,0.0,0.0,0.0,0.0,0.0,0.0,0.0,0.0,0.0,0.0,0.0,0.0,0.0,0.0,0.0,0.0,0.0,0.0,0.0,0.0,0.0,0.0,0.0,0.0,0.0,0.0,0.0,0.0,0.0,0.0,0.0,0.0,0.0,0.0,0.0,0.0,0.0,0.0,0.0,0.0,0.0,0.0,0.0,1.314,1.0889,0.8971,0.7121,0.5841,0.5316,0.5787,0.6596,0.8108,1.0562,0.0,0.0,0.0,0.0,0.0,0.0,0.0,0.0,0.0,0.0,0.0,0.0,0.0,0.0,0.0,0.0,0.0,0.0,0.0,0.0,0.0,0.0,0.0,0.0,0.0,0.0,0.0,0.0,0.0,0.0,0.0,0.0,0.0,0.0,0.0,0.0,0.0,0.0,0.0,0.0,0.0,0.0,0.0,0.0,0.0,0.0,0.0,0.0,0.0,0.0,0.0,0.0,0.0,0.0,0.0,0.0,0.0,0.0,0.0,0.0,0.0,0.0,0.0,0.0,0.0,0.0,0.0,0.0,0.0,0.0,0.0,0.0,0.0,0.0,0.0,0.0,0.0,0.0,0.0,0.0,0.0,0.0,0.0,0.0,0.0,0.0,0.0,0.0,0.0,0.0,0.0,0.0,0.0,0.0,0.0,0.0,0.0,0.0,0.0,0.0,0.0,0.0,1.2441,0.9764,0.7372,0.5343,0.4029,0.3401,0.3511,0.4844,0.6619,0.8865,0.0,0.0,0.0,0.0,0.0,0.0,0.0,0.0,0.0,0.0,0.0,0.0,0.0,0.0,0.0,0.0,0.0,0.0,0.0,0.0,0.0,0.0,0.0,0.0,0.0,0.0,0.0,0.0,0.0,0.0,0.0,0.0,0.0,0.0,0.0,0.0,0.0,0.0,0.0,0.0,0.0,0.0,0.0,0.0,0.0,0.0,0.0,0.0,0.0,0.0,0.0,0.0,0.0,0.0,0.0,0.0,0.0,0.0,0.0,0.0,0.0,0.0,0.0,0.0,0.0,0.0,0.0,0.0,0.0,0.0,0.0,0.0,0.0,0.0,0.0,0.0,0.0,0.0,0.0,0.0,0.0,0.0,0.0,0.0,0.0,0.0,0.0,0.0,0.0,0.0,0.0,0.0,0.0,0.0,0.0,0.0,0.0,0.0,0.0,0.0,0.0,0.0,1.2463,0.8433,0.5118,0.3035,0.221,0.1601,0.1046,0.3625,0.5708,0.6707,0.0,0.0,0.0,0.0,0.0,0.0,0.0,0.0,0.0,0.0,0.0,0.0,0.0,0.0,0.0,0.0,0.0,0.0,0.0,0.0,0.0,0.0,0.0,0.0,0.0,0.0,0.0,0.0,0.0,0.0,0.0,0.0,0.0,0.0,0.0,0.0,0.0,0.0,0.0,0.0,0.0,0.0,0.0,0.0,0.0,0.0,0.0,0.0,0.0,0.0,0.0,0.0,0.0,0.0,0.0,0.0,0.0,0.0,0.0,0.0,2.4225,2.2255,0.0,0.0,0.0,0.0,0.0,0.0,0.0,0.0,0.0,0.0,0.0,0.0,0.0,0.0,0.0,0.0,0.0,0.0,0.0,0.0,0.0,0.0,0.0,0.0,0.0,0.0,0.0,0.0,0.0,0.0,0.0,0.0,0.0,0.0,0.0,0.0,0.0,0.0,0.0,0.0,1.2437,0.8383,0.479,0.1882,0.1361,0.1137,0.1005,0.2604,0.4887,0.7914,1.0728,0.0,0.0,0.0,0.0,0.0,0.0,0.0,0.0,0.0,0.0,0.0,0.0,0.0,0.0,0.0,0.0,0.0,0.0,0.0,0.0,0.0,0.0,0.0,0.0,0.0,0.0,0.0,0.0,0.0,0.0,0.0,0.0,0.0,0.0,0.0,0.0,0.0,0.0,0.0,0.0,0.0,0.0,0.0,0.0,0.0,0.0,0.0,0.0,0.0,0.0,0.0,0.0,0.0,0.0,0.0,0.0,0.0,0.0,0.0,2.7656,2.4956,0.0,0.0,0.0,0.0,0.0,0.0,0.0,0.0,0.0,0.0,0.0,0.0,0.0,0.0,0.0,0.0,0.0,0.0,0.0,0.0,0.0,0.0,0.0,0.0,0.0,0.0,0.0,0.0,0.0,0.0,0.0,0.0,0.0,0.0,0.0,0.0,0.0,0.0,0.0,0.0,1.364,0.952,0.5812,0.2635,0.1823,0.1491,0.1476,0.3206,0.5265,0.7537,1.049,0.0,0.0,0.0,0.0,0.0,0.0,0.0,0.0,0.0,0.0,0.0,0.0,0.0,0.0,0.0,0.0,0.0,0.0,0.0,0.0,0.0,0.0,0.0,0.0,0.0,0.0,0.0,0.0,0.0,0.0,0.0,0.0,0.0,0.0,0.0,0.0,0.0,0.0,0.0,0.0,0.0,0.0,0.0,0.0,0.0,0.0,0.0,0.0,0.0,0.0,0.0,0.0,0.0,4.3406,4.3323,4.337,4.2647,4.1273,3.9237,3.3255,2.9867,2.8482,2.7083,0.0,0.0,0.0,0.0,0.0,0.0,0.0,0.0,0.0,0.0,0.0,0.0,0.0,0.0,0.0,0.0,0.0,0.0,0.0,0.0,0.0,0.0,3.2446,3.1366,3.2131,3.1998,2.7984,0.0,0.0,0.0,0.0,0.0,0.0,0.0,0.0,0.0,0.0,0.0,1.5143,1.1223,0.7586,0.4328,0.3239,0.268,0.2524,0.473,0.6433,0.719,1.0536,1.2678,0.0,0.0,0.0,0.0,0.0,0.0,0.0,0.0,0.0,0.0,0.0,0.0,0.0,0.0,0.0,0.0,0.0,0.0,0.0,0.0,0.0,0.0,0.0,0.0,0.0,0.0,0.0,0.0,0.0,0.0,0.0,0.0,3.1464,3.0301,0.0,0.0,0.0,0.0,0.0,0.0,0.0,0.0,0.0,0.0,0.0,0.0,0.0,4.2141,4.3443,4.4091,4.5435,4.756,4.7914,4.8549,4.9345,4.8899,4.8043,4.6853,4.444,0.0,3.5598,3.2847,0.0,0.0,0.0,0.0,0.0,0.0,0.0,0.0,0.0,0.0,0.0,0.0,0.0,0.0,0.0,0.0,0.0,0.0,0.0,0.0,0.0,0.0,3.4294,3.4368,3.4762,3.4949,3.4446,3.3164,3.1977,3.1577,3.2142,3.2124,0.0,0.0,0.0,0.0,0.0,0.0,1.5831,1.2954,1.0036,0.6395,0.5734,0.5296,0.4644,0.6816,0.8433,0.8946,1.1148,1.2445,1.2518,1.3376,0.0,0.0,0.0,0.0,0.0,0.0,0.0,0.0,0.0,0.0,0.0,0.0,0.0,0.0,0.0,0.0,0.0,0.0,0.0,0.0,0.0,0.0,0.0,0.0,0.0,0.0,0.0,0.0,0.0,3.4303,3.4291,3.5103,3.4419,3.4206,0.0,0.0,0.0,0.0,0.0,0.0,0.0,0.0,0.0,4.327,4.3819,4.4959,4.6692,4.7553,4.879,5.0379,5.1152,5.1725,5.2081,5.1792,5.1355,5.0735,4.9749,4.7927,4.5203,4.0177,3.865,3.9345,0.0,0.0,0.0,0.0,3.8016,3.6091,3.7984,3.674,3.4516,3.5618,0.0,0.0,0.0,0.0,0.0,0.0,0.0,3.5904,3.6307,3.6589,3.698,3.7787,3.8431,3.9031,3.9753,3.8737,3.703,3.4875,3.4974,3.4703,3.2411,3.1611,0.0,0.0,0.0,2.2194,1.7805,1.4677,1.1894,0.945,0.8637,0.8438,0.895,0.9743,1.0457,1.0947,1.1561,1.1832,1.1738,1.2559,1.3515,0.0,0.0,0.0,0.0,0.0,0.0,0.0,0.0,0.0,0.0,0.0,0.0,0.0,0.0,0.0,0.0,0.0,0.0,0.0,0.0,0.0,0.0,0.0,0.0,0.0,0.0,0.0,0.0,3.7696,3.7773,3.9013,3.8052,3.7445,0.0,0.0,0.0,0.0,0.0,0.0,4.3117,4.4356,4.5282,4.573,4.6223,4.7329,4.916,5.0004,5.1065,5.2399,5.319,5.3615,5.3786,5.3671,5.3491,5.3274,5.3014,5.2864,5.2412,4.6822,4.3906,4.3067,4.37,4.3188,4.232,4.3663,4.2404,4.0341,4.2758,4.1853,3.9768,4.0087,3.9768,3.9064,3.8089,0.0,0.0,0.0,0.0,3.7623,3.8124,3.8426,3.895,4.0428,4.1226,4.2033,4.334,4.2962,4.1396,3.8147,3.7527,3.6805,3.4476,3.3149,0.0,2.8724,2.621,2.3374,1.9903,1.678,1.4284,1.2677,1.1946,1.1915,1.2692,1.2897,1.2877,1.2617,1.2508,1.2167,1.1519,1.1851,1.2237,1.2613,0.0,0.0,0.0,0.0,0.0,0.0,0.0,0.0,0.0,0.0,0.0,0.0,0.0,0.0,0.0,0.0,0.0,0.0,0.0,0.0,0.0,0.0,0.0,0.0,0.0,0.0,0.0,0.0,0.0,3.9918,4.0738,0.0,0.0,0.0,0.0,4.457,4.5251,4.5839,4.6365,4.6988,4.7552,4.8027,4.8421,4.9113,5.0138,5.0509,5.1598,5.3414,5.3603,5.4204,5.5084,5.5109,5.5021,5.4886,5.5002,5.495,5.4515,5.1505,4.9669,4.8735,4.8214,4.7299,4.6244,4.5913,4.5416,4.4748,4.3457,4.2266,4.1505,4.2778,4.2938,4.2562,4.1983,4.0385,0.0,0.0,3.8289,3.8123,3.9574,3.9423,3.9425,4.1589,4.2279,4.2883,4.4473,4.442,4.3442,4.1291,3.9291,3.7635,3.6618,0.0,3.256,3.0551,2.7785,2.4747,2.1569,1.9604,1.7667,1.5695,1.597,1.5809,1.4656,1.6059,1.5999,1.3595,1.4438,1.4189,1.2319,1.1369,1.0688,1.028,1.1239,0.0,0.0,0.0,0.0,0.0,0.0,0.0,0.0,0.0,0.0,0.0,0.0,0.0,0.0,0.0,0.0,0.0,0.0,0.0,0.0,0.0,0.0,0.0,0.0,0.0,0.0,0.0,0.0,4.4355,4.462,0.0,4.3736,4.4184,4.4992,4.5961,4.646,4.6945,4.7583,4.8062,4.8476,4.8911,4.9132,4.9777,5.0913,5.1114,5.2177,5.403,5.4235,5.5072,5.6419,5.5982,5.602,5.6385,5.5962,5.573,5.5595,5.4594,5.3054,5.13,5.1185,5.0183,4.8876,4.9148,4.8768,4.7945,4.6638,4.5927,4.5472,4.5103,4.5023,4.4739,4.3208,4.2242,4.1492,4.0463,4.0001,3.9915,4.0424,4.0347,4.0602,4.2468,4.2957,4.3483,4.5172,4.4877,4.4036,4.3247,4.1166,3.8998,3.7274,3.5836,3.4002,3.1384,2.9181,2.6885,2.4376,2.2369,2.0716,1.9647,1.9792,1.9622,1.8869,1.9189,1.8678,1.6896,1.6518,1.5592,1.3913,1.2702,1.1417,1.0002,1.0305,1.1176,0.0,0.0,0.0,0.0,0.0,0.0,0.0,0.0,0.0,0.0,0.0,0.0,0.0,0.0,0.0,0.0,0.0,0.0,0.0,0.0,0.0,0.0,0.0,0.0,0.0,4.5148,4.6429,4.6795,4.7073,4.6813,4.5865,4.6139,4.6571,4.7115,4.7403,4.7802,4.8402,4.873,4.9104,4.9472,4.991,5.0551,5.1438,5.2139,5.3138,5.4437,5.5223,5.6026,5.682,5.6679,5.6723,5.6903,5.6414,5.62,5.6178,5.5905,5.484,5.337,5.3109,5.2127,5.0892,5.1009,5.0638,4.9877,4.8491,4.7619,4.6938,4.6126,4.5799,4.5387,4.3765,4.3122,4.2669,4.1344,4.0961,4.0961,4.0909,4.111,4.1699,4.3072,4.3585,4.416,4.5554,4.5239,4.4544,4.4109,4.2408,4.0526,3.8935,3.7611,3.5987,3.3589,3.1464,2.9423,2.761,2.5604,2.4129,2.352,2.3371,2.3016,2.2207,2.2046,2.1176,1.9379,1.8527,1.7418,1.589,1.4459,1.2801,1.0824,1.1222,1.2756,1.5385,0.0,0.0,0.0,0.0,0.0,0.0,0.0,0.0,0.0,0.0,0.0,0.0,0.0,0.0,0.0,0.0,0.0,0.0,0.0,0.0,0.0,0.0,0.0,4.4353,4.6587,4.7868,4.6944,4.7901,4.824,4.7106,4.7524,4.7966,4.8105,4.8263,4.8569,4.8927,4.9197,4.9544,4.9936,5.0893,5.1534,5.1787,5.3528,5.4516,5.4752,5.6517,5.7008,5.636,5.7216,5.7184,5.6444,5.6414,5.6391,5.6348,5.5555,5.524,5.5133,5.4042,5.3118,5.2313,5.1392,5.0926,5.0496,4.872,4.7021,4.565,4.5725,4.5293,4.456,4.3799,4.2978,4.2134,4.1339,4.1091,4.1091,4.1099,4.1711,4.2558,4.3354,4.4126,4.4851,4.5597,4.5559,4.5033,4.395,4.2974,4.2161,4.1582,3.9946,3.8378,3.7292,3.4655,0.0,3.1045,2.9353,2.7953,2.7087,2.6677,2.5896,2.4392,2.4469,2.3485,2.0815,2.0463,1.9675,1.8141,1.6466,1.4605,1.262,1.3929,1.6953,2.1662,0.0,0.0,0.0,0.0,0.0,0.0,0.0,0.0,0.0,0.0,0.0,0.0,0.0,0.0,0.0,0.0,0.0,0.0,0.0,0.0,0.0,4.5099,4.6626,4.7205,4.8528,4.9321,4.9061,4.9814,4.9955,4.9029,4.9581,5.0028,5.0225,5.034,5.0304,5.0137,5.0297,5.0619,5.1122,5.1419,5.2276,5.3783,5.3762,5.4409,5.5723,5.631,5.6822,5.7255,5.7534,5.7547,5.7307,5.6737,5.6478,5.645,5.6239,5.6169,5.6058,5.445,5.3338,5.2578,5.2275,5.0947,4.9216,4.872,4.7437,4.5948,4.534,4.5014,4.4582,4.3158,4.2558,4.2182,4.1343,4.109,4.1093,4.1094,4.1246,4.1585,4.2382,4.31,4.3792,4.4484,4.4806,4.481,4.4304,4.369,4.276,4.1267,4.0147,3.9185,3.8235,3.6808,3.5215,3.3681,3.2705,3.1329,2.9143,2.8941,2.7988,2.5688,2.518,2.4147,2.222,2.1485,2.0732,1.9926,1.777,1.5803,1.4136,1.6615,1.9482,0.0,0.0,0.0,0.0,0.0,0.0,0.0,0.0,0.0,0.0,0.0,0.0,0.0,0.0,0.0,0.0,0.0,0.0,0.0,0.0,0.0,0.0,4.6662,4.7884,4.9114,4.9621,5.0046,5.0361,5.0748,5.0757,5.0152,5.0731,5.1009,5.0731,5.1101,5.1262,5.1129,5.1287,5.1556,5.2049,5.2494,5.333,5.4593,5.46,5.5107,5.6102,5.6608,5.6912,5.708,5.7465,5.7469,5.7139,5.6659,5.6464,5.6497,5.6497,5.6328,5.5905,0.0,0.0,0.0,0.0,5.0362,4.8685,4.8314,4.7326,4.6123,4.565,4.4985,4.4218,4.3232,4.2439,4.1758,4.123,4.1093,4.111,4.1103,4.1322,4.1657,4.2093,4.2951,4.3743,4.4036,4.444,4.4636,4.4318,4.3836,0.0,4.1955,4.1211,4.0542,3.9887,3.8801,3.7694,3.6693,3.5345,3.3815,3.2043,3.099,2.9564,2.752,2.6564,0.0,0.0,0.0,2.1983,2.1055,1.9623,0.0,0.0,0.0,0.0,0.0,3.0271,0.0,0.0,3.4064,3.5321,0.0,0.0,0.0,0.0,0.0,0.0,0.0,0.0,0.0,0.0,0.0,0.0,0.0,0.0,0.0,0.0,4.8068,4.8721,5.0237,5.0187,5.0291,5.106,5.1187,5.1082,5.0804,5.1509,5.1548,5.0605,5.1351,5.1903,5.2043,5.2196,0.0,0.0,0.0,5.4434,5.4747,5.5639,5.6087,5.6121,5.7105,5.712,5.6309,5.7184,5.7156,5.6391,5.6293,5.6283,5.6348,5.625,5.5732,5.4922,5.4161,5.3787,5.3409,5.0986,4.9557,4.8684,4.781,0.0,0.0,4.6178,4.5046,4.3683,4.3574,4.2402,4.1093,4.1108,4.1101,4.1094,4.1108,4.1627,4.2143,4.2069,4.3066,4.3981,4.3867,4.4166,4.4392,4.4151,4.3679,4.3286,4.3178,4.2609,4.2019,4.1736,4.0617,3.9674,3.9435,3.7369,3.5664,3.493,3.2754,0.0,2.9387,2.8108,2.6411,2.4067,2.3849,2.316,2.1765,2.1764,2.2801,2.4861,2.6266,2.8616,3.1994,3.4579,3.6869,3.8824,3.6736,3.743,0.0,0.0,0.0,0.0,0.0,0.0,0.0,0.0,0.0,0.0,0.0,0.0,0.0,0.0,0.0,4.8918,4.9311,4.9717,5.0668,5.0752,5.0895,5.1367,5.1955,5.2224,5.1982,5.3201,5.3621,5.2696,5.338,5.362,5.3139,5.3176,5.3395,5.3811,5.4135,5.472,5.5633,5.5898,5.6078,5.6199,5.7091,0.0,5.6246,5.7127,5.7084,5.629,5.5628,5.5389,5.5405,5.4699,5.3923,5.3186,5.3012,5.2526,5.1759,5.0549,4.9553,4.8672,4.7862,4.7006,4.6168,4.5487,4.4551,4.3574,4.2851,4.193,0.0,4.1097,4.1108,4.1097,4.1105,4.1181,4.1237,4.1159,4.1744,4.2376,4.2794,4.327,4.3705,4.3979,4.3744,4.3495,4.3376,4.288,4.2391,4.2061,4.1793,4.1095,3.9657,3.8914,3.7584,3.5017,3.3563,3.1978,2.996,2.7982,2.6213,2.4777,2.4079,2.3303,2.2365,2.3596,2.4958,2.6283,2.7826,3.0346,3.3826,3.5633,3.7455,3.9305,3.942,4.077,0.0,0.0,0.0,0.0,0.0,0.0,0.0,0.0,0.0,0.0,0.0,4.9285,5.0067,0.0,4.9683,5.1463,5.1026,5.0743,5.1591,5.1309,5.1169,5.1642,5.2398,5.2652,5.2112,5.3419,5.3898,5.2929,5.3565,5.4012,5.405,5.4186,5.4373,5.4592,5.525,5.5876,5.6425,5.6578,5.6687,5.6756,5.6753,5.6517,5.611,5.6091,5.5913,5.5578,5.5138,5.4758,5.4372,5.3549,5.296,5.2565,5.2157,5.1488,5.0637,4.9768,4.8914,4.8074,4.7244,4.666,4.6152,4.5272,4.441,4.3548,4.2652,4.1789,4.1019,4.0564,4.0753,4.1,4.0554,4.0713,4.0972,4.0924,4.14,4.1902,4.2068,4.2784,4.3393,4.3442,4.3513,4.3658,4.387,4.3303,4.2727,4.2391,4.2061,4.1473,4.0377,3.9316,3.8021,3.619,3.43,3.2547,3.0992,2.8429,2.6657,2.6133,2.5069,2.4478,2.4562,2.56,2.6753,2.7908,2.9729,3.1972,3.4712,3.7058,3.9064,4.067,4.1691,4.2491,0.0,0.0,0.0,0.0,0.0,0.0,0.0,0.0,5.0754,5.1144,5.144,5.1811,5.246,5.2108,5.2189,5.3634,5.2647,5.1947,5.263,5.2099,5.1714,5.2005,5.2567,5.2666,5.1933,5.305,5.3421,5.2412,5.3166,5.3905,5.4484,5.4836,5.5133,5.5396,5.6343,5.6992,5.723,5.7255,5.7272,5.7253,5.6383,5.5977,5.5921,5.5072,5.4721,5.48,5.4417,5.3936,5.332,5.2527,5.2094,5.1882,5.1273,5.0433,4.9508,4.8993,4.8287,4.7473,4.6601,4.6191,4.5935,4.5227,4.4304,4.3322,4.2605,4.1782,4.0918,4.0054,4.0421,4.0909,4.0032,4.0393,4.0981,4.0937,4.1332,4.1696,4.1635,4.2345,4.2995,4.2978,4.3262,4.3671,4.4382,4.3852,4.3248,4.2865,4.215,4.1542,4.1036,3.9397,3.8051,3.725,3.5036,3.3138,3.1948,2.943,2.7901,2.7825,2.6836,2.6557,2.7254,2.7797,2.8655,2.9822,3.1629,3.3643,3.5798,3.8515,4.0636,4.218,4.3405,4.3594,4.0282,4.5855,5.0994,5.3025,5.3564,5.449,0.0,0.0,5.5811,5.5638,5.5639,5.5215,5.3808,5.3527,5.3569,5.3705,5.3611,5.3522,5.3553,5.3532,5.3233,5.2526,5.2399,5.2307,5.2092,5.282,5.2854,5.1775,5.306,5.3876,5.3897,5.461,5.5455,5.6389,5.6682,5.7205,5.805,5.7504,5.7197,5.7101,5.6252,5.5827,5.5808,5.492,5.4535,5.4477,5.2971,5.2307,5.2218,5.1416,5.0666,5.0015,5.0052,4.9089,4.779,4.8523,4.8281,4.7473,4.6601,4.58,4.513,4.5026,4.3883,4.2526,4.2428,4.178,4.0918,4.0051,4.0426,4.0898,4.002,4.0404,4.1007,4.0987,4.1002,4.1141,4.1585,4.1645,4.196,4.3032,4.3118,4.3398,4.4694,4.4564,4.4084,4.3576,4.2656,4.1744,4.0943,3.9843,3.8564,3.7029,3.5776,3.4225,3.2152,3.1331,3.0565,2.9757,2.9889,2.9902,2.972,3.0292,3.1075,3.2122,3.3296,3.5343,3.8297,3.9667,4.1261,4.3078,4.4109,4.4757,4.7903,5.1914,5.4505,5.736,5.8142,5.8483,5.9476,5.8715,5.7642,5.7064,5.6946,5.6553,5.5275,5.5063,5.5064,5.5045,5.4694,5.4251,5.3709,5.3264,5.2687,5.1892,5.1726,5.1632,5.1574,5.2278,5.25,5.1931,5.2433,5.3107,5.3937,5.432,5.4905,5.5752,5.6945,5.7728,5.8078,5.8304,5.8158,5.7659,5.679,5.6095,5.5554,5.4664,5.3993,5.3418,5.1776,5.1106,5.1106,5.0314,4.9514,4.8836,4.8962,4.8017,4.6697,4.7679,4.7194,4.5987,4.566,4.496,4.416,4.3649,4.2997,4.2307,4.1799,4.1035,4.0151,3.9286,3.9328,3.9449,3.8561,3.8939,3.9555,3.956,3.9883,4.0235,4.0386,4.0992,4.1743,4.2568,4.2859,4.3383,4.472,4.4268,4.3798,4.3888,4.3227,4.2326,4.1318,4.0023,3.8415,3.6431,3.5302,3.4487,3.3913,3.3414,3.3163,3.319,3.3329,3.3303,3.3122,3.3442,3.4044,3.4932,3.551,3.7143,3.9924,4.0986,4.2428,4.4206,4.5138,4.5682,5.2793,5.5775,5.7371,6.0158,6.1393,6.1658,6.0749,6.0039,5.9343,5.8526,5.7975,5.7295,5.6141,5.5748,5.5544,5.5292,5.4652,5.3973,5.336,5.2792,5.2161,5.1428,5.1499,5.1519,5.1252,5.174,5.2008,5.1871,5.1958,5.245,5.349,5.3766,5.4345,5.5295,5.6682,5.7588,5.8017,5.8432,5.8322,5.7728,5.6841,5.6045,5.532,5.4167,5.3296,5.2641,5.0722,5.0038,5.0237,4.8943,4.7972,4.7296,4.7237,4.6383,4.5235,4.6059,4.5582,4.4558,4.4614,4.4075,4.3238,4.2617,4.2067,4.1574,4.093,4.0301,3.9574,3.8475,3.8537,3.8673,3.7572,3.7904,3.8509,3.8502,3.9126,3.97,3.9583,4.0505,4.1513,4.203,4.2526,4.3258,4.4544,4.4251,4.3904,4.4234,4.3764,4.2892,4.1472,3.9823,3.8185,3.6501,3.5678,3.5442,3.5987,3.569,3.5818,3.6581,3.6582,3.6638,3.6813,3.6947,3.7281,3.7881,3.8271,3.949,4.157,4.2535,4.3788,4.5273,4.5917,4.6229,5.2422,5.6112,5.9845,6.0612,6.2239,6.3608,6.3507,6.271,6.1779,6.0954,5.9435,5.7738,5.6019,5.5114,5.4361,5.3512,5.2824,5.2385,5.2433,5.2534,5.2311,5.1488,5.2147,5.2294,5.1386,5.1255,5.1238,5.1242,5.19,5.2246,5.2156,5.2779,5.3935,5.5621,5.5627,5.6386,5.8092,5.7268,5.6846,5.6827,5.5873,5.5352,5.5126,5.329,5.2503,5.2448,4.9754,4.9075,4.9724,4.7245,4.5713,4.4947,4.4422,4.3709,4.3025,4.3315,4.3522,4.3656,4.3712,4.3163,4.2436,4.2402,4.1268,3.9875,3.985,3.9825,3.9468,3.7809,3.8512,3.9373,3.7739,3.789,3.8495,3.8492,3.9153,3.9786,3.9715,4.024,4.0907,4.1602,4.216,4.2917,4.4195,4.4829,4.5049,4.4744,4.4381,4.3346,4.1002,3.9211,3.7997,3.7694,3.7623,3.7737,3.8072,3.8158,3.8558,3.9415,3.9466,3.9817,4.0602,4.0759,4.0845,4.0871,4.1716,4.2597,4.3513,4.4391,4.5277,4.6167,4.6258,4.6258,5.6125,5.8925,6.1008,6.3486,6.4176,6.4323,6.4635,6.3235,6.1431,6.0015,5.846,5.6692,5.4458,5.3433,5.2669,5.1776,5.1527,5.1241,5.0694,5.1176,5.1316,5.0557,5.1201,5.1381,5.0571,5.1011,5.1072,5.0454,5.0581,5.0672,5.0584,5.1286,5.2194,5.3205,5.4838,5.5926,5.6433,5.7205,5.7002,5.5853,5.4237,5.3438,5.329,5.1884,5.1224,5.1042,4.8983,4.759,4.6697,4.5359,4.3713,4.1983,4.198,4.1204,4.008,4.04,4.0273,4.0208,4.211,4.2236,4.1433,4.0865,4.0308,3.9765,3.9179,3.8591,3.8023,3.7468,3.7294,3.7024,3.5868,3.5776,3.5976,3.5976,3.662,3.7517,3.8652,3.9463,4.0511,4.2334,4.2737,4.3194,4.4501,4.4697,4.4547,4.4099,4.3212,4.2178,4.0944,3.958,3.8635,3.8313,3.8072,3.8221,3.8996,3.9614,4.0324,4.1198,4.1801,4.2247,4.251,4.2643,4.2738,4.2728,4.3017,4.3587,4.4462,4.4767,4.5352,4.6195,4.6176,4.617,5.8105,6.0378,6.1856,6.4692,6.5103,6.4872,6.5307,6.3299,6.0971,5.9726,5.7819,5.5749,5.36,5.2845,5.2096,5.0631,5.0762,5.0646,4.9491,5.0391,5.0883,5.0137,5.1021,5.1394,5.0608,5.1035,5.0867,4.9637,4.9492,4.9316,4.8956,4.9437,5.0045,5.0758,5.2906,5.415,5.4359,5.5324,5.5073,5.3561,5.2246,5.167,5.1792,5.0579,4.9926,4.9663,4.7834,4.6197,4.4779,4.3452,4.1809,4.0104,3.9799,3.8766,3.7499,3.7866,3.7583,3.7411,4.0007,4.0772,4.0462,3.9614,3.9357,3.9248,3.8396,3.7733,3.7246,3.6912,3.6424,3.58,3.4939,3.4472,3.4236,3.423,3.5093,3.6286,3.7728,3.9113,4.0644,4.2485,4.3199,4.3742,4.4518,4.4554,4.4382,4.4065,4.3076,4.2166,4.1558,4.0477,3.9736,3.9622,3.9772,4.0011,4.0401,4.1238,4.2214,4.335,4.3998,4.4602,4.5156,4.5345,4.5422,4.541,4.5144,4.5267,4.5784,4.546,4.5559,4.6093,4.6017,4.5969,5.8311,6.048,6.2502,6.4285,6.4973,6.5248,6.5423,6.2975,6.0547,6.0018,5.7582,5.5028,0.0,0.0,5.2517,5.0104,5.0426,5.0459,4.8977,5.0227,5.1027,0.0,0.0,0.0,0.0,5.1317,5.0575,4.875,4.8664,4.8284,4.7303,4.7317,4.7665,4.8382,4.9912,5.1073,5.1841,5.1722,5.1139,5.0111,4.986,5.0014,5.0478,4.9154,4.8509,4.8255,4.6248,4.4909,4.3924,4.1451,3.9997,3.9185,3.7863,3.6481,3.5274,3.5658,3.5416,3.5258,3.7366,3.8746,3.9447,3.8682,3.8408,3.8222,3.7409,3.714,3.6928,3.6092,3.5878,3.5664,3.4783,3.3941,3.3332,3.3324,3.4584,3.6025,3.6999,3.9175,4.1208,4.2109,4.3578,4.4579,4.4332,4.4494,4.4644,4.465,4.3907,4.3215,4.2797,4.1795,4.1214,4.1455,4.2533,4.2918,4.2222,4.2997,4.4175,4.5717,4.6014,4.6833,4.8418,4.8623,4.8733,4.8768,4.7965,4.7537,4.7455,4.6522,4.6022,4.5944,4.5835,4.5698,5.853,6.1159,6.3446,6.4799,6.4707,6.416,6.3734,6.2045,5.9923,5.7724,5.6517,5.5189,5.3007,5.2171,5.1439,5.0195,4.9641,0.0,4.9703,5.064,0.0,5.184,0.0,5.2757,5.1233,5.1579,5.0657,4.7661,4.8214,4.7735,4.5518,4.6048,4.6226,4.5777,4.7357,4.8292,4.8458,4.8276,4.7952,4.7543,4.6563,4.6296,4.6582,4.5801,4.5455,4.5402,4.4169,4.3041,4.1952,4.0205,3.8383,3.6684,3.5454,3.4129,3.2948,3.2877,3.2861,3.2991,3.3851,3.5698,3.7669,3.7578,3.7084,3.6407,3.5617,3.4914,3.4351,3.4135,3.4053,3.3868,3.2982,3.2604,3.243,3.2428,3.3223,3.4568,3.6729,3.8689,4.0674,4.2825,4.4507,4.5531,4.5409,4.4757,4.444,4.5029,4.3884,4.3058,4.3345,4.2804,4.2485,4.2653,4.3032,4.3221,4.3075,4.4451,4.5517,4.5919,4.7195,4.8413,4.947,4.8992,4.9008,4.9663,4.8827,4.836,4.828,4.7299,4.6778,4.6698,4.5924,4.5432,5.8875,6.0815,6.2273,6.3142,6.2492,6.1357,6.037,5.912,5.7536,5.5364,5.4968,5.4593,5.3299,5.3027,5.2499,5.0896,5.1151,0.0,5.0678,5.1913,5.2899,0.0,5.3583,0.0,5.2063,5.1983,5.0835,4.803,4.755,4.6415,4.4171,4.3864,4.356,4.3104,4.403,4.4331,4.3869,4.3699,4.3288,4.2642,4.1841,4.1706,4.2168,4.1777,4.1815,4.2086,4.1742,4.0995,3.992,3.8605,3.7089,3.5448,3.427,3.283,3.1405,3.1526,3.1046,3.0434,3.1226,3.2622,3.4168,3.5135,3.5366,3.5129,3.433,3.3745,3.3356,3.3367,3.309,3.2728,3.2238,3.1819,3.1523,3.1529,3.2421,3.3774,3.5651,3.798,4.0598,4.3629,4.5518,4.6463,4.6017,4.5661,4.5615,4.6039,4.4961,4.4487,4.5554,4.4434,4.3601,4.3728,4.4543,4.4924,4.4607,4.6191,4.7501,4.8247,4.9225,5.0335,5.1558,5.1217,5.1028,5.1131,5.0294,4.9615,4.9124,4.7753,4.7202,4.7366,4.5975,4.5352,5.8242,5.9059,5.9391,5.9621,5.8623,5.7209,5.5859,5.5053,5.4237,5.3118,5.3423,5.393,5.4042,5.4684,5.4431,5.2168,0.0,5.4175,5.2007,5.3533,5.4616,5.388,5.4343,5.4318,5.3319,5.2472,5.112,4.9018,4.6839,4.4861,4.3217,4.1613,4.0586,4.024,4.0064,3.9537,3.8607,3.8355,3.7739,3.6757,3.6424,3.669,3.748,3.7397,3.7753,3.8448,3.8857,3.8605,3.7902,3.6824,3.5739,3.4679,3.35,3.191,3.0291,3.063,2.9554,2.8103,2.9221,2.9707,3.0177,3.23,3.353,3.4008,3.331,3.3025,3.2947,3.2942,3.2445,3.1919,3.1919,3.1364,3.0789,3.0784,3.1936,3.3301,3.4221,3.7194,4.0727,4.4153,4.6171,4.7065,4.6248,4.6824,4.7353,4.7152,4.6577,4.6712,4.8227,4.6297,4.4866,4.5099,4.6535,4.7183,4.6484,4.803,4.9644,5.1111,5.1481,5.2356,5.3925,5.3927,5.3598,5.2957,5.1974,5.1015,5.0122,4.8308,4.7651,4.8025,4.6148,4.5469,5.2978,5.3987,5.4631,5.3452,5.2416,5.1493,5.0787,5.1141,0.0,0.0,5.3243,5.4922,5.4906,5.5013,5.4974,5.4515,5.4203,5.4099,5.4323,5.4622,5.4962,0.0,5.5304,5.4879,5.3953,5.2959,5.1389,4.8916,4.6449,4.4391,4.287,4.1312,3.9306,3.6748,3.5352,3.4216,3.3325,3.2531,3.221,3.2378,3.1732,3.2084,3.3315,3.2976,3.3378,3.4341,3.4771,3.5218,3.5568,3.4578,3.3775,3.3024,3.1423,3.0058,2.8925,2.8174,2.781,2.7655,2.755,2.7627,2.8259,3.1045,3.2097,3.2259,3.2163,3.1639,3.1076,3.1144,3.1002,3.0884,3.0998,3.0876,3.073,3.0722,3.1488,3.2434,3.3258,3.6744,4.0539,4.3372,4.5289,4.6365,4.6218,4.7443,4.816,4.7377,4.7756,4.82,4.8445,4.7507,4.7061,4.7753,4.8157,4.8316,4.8188,4.9748,5.0888,5.1169,5.2611,5.3892,5.4916,5.4286,5.4169,5.473,5.3136,5.2142,5.1864,4.9981,4.9064,4.8928,4.698,4.6013,4.8073,4.7438,4.6741,4.6077,4.4471,4.3149,4.3524,0.0,0.0,0.0,5.1718,5.4687,5.5084,5.515,5.4997,5.4551,5.4519,5.4476,5.4307,5.4951,5.5481,5.563,5.5466,5.4925,5.3876,5.2967,5.1338,4.8691,4.6169,4.4113,4.2713,3.9974,3.68,3.3157,3.1893,3.0424,2.8683,2.7707,2.7238,2.7222,2.6469,2.6718,2.793,2.799,2.8621,2.9696,3.0845,3.1698,3.2344,3.2181,3.1838,3.1328,3.0548,2.9351,2.8023,2.7761,2.7096,2.6315,2.6283,2.6372,2.6777,2.8332,2.9521,3.0439,3.0965,3.0849,3.0549,3.0582,3.0591,3.0618,3.0678,3.0704,3.0704,3.0698,3.1345,3.2302,3.3643,3.6266,3.8994,4.1184,4.3723,4.5522,4.5526,4.7322,4.8586,4.8113,4.8389,4.8934,4.9756,4.9123,4.8592,4.8553,4.9018,4.9498,4.9923,5.1141,5.2271,5.3156,5.4078,5.4968,5.5833,5.5471,5.5237,5.519,5.39,5.2912,5.2302,5.0457,4.9658,4.9771,4.7455,4.6786,4.273,4.0411,3.8209,3.7632,3.5738,3.4445,3.59,3.949,0.0,4.5444,4.9921,5.3788,5.4954,5.5013,5.4786,0.0,5.4826,5.4843,5.3999,5.4948,5.5548,5.5058,5.4853,0.0,5.3186,5.2324,5.0799,4.8248,4.545,4.3088,4.129,3.7974,3.4212,3.0065,2.9039,2.7264,2.4531,2.3505,2.2805,2.2388,2.1695,2.199,2.3098,2.3586,2.4476,2.5701,2.7306,2.8487,2.9339,2.9787,2.9878,2.9695,2.9555,2.8578,2.726,2.7295,2.6361,2.5099,2.5242,2.5374,2.5566,2.5978,2.7271,2.8849,2.9821,3.0125,3.0205,3.0422,3.0511,3.053,3.0565,3.0618,3.0656,3.069,3.1169,3.2081,3.3692,3.5215,3.6837,3.8793,4.1813,4.4192,4.4586,4.6815,4.8584,4.8684,4.8853,4.9479,5.0914,5.0468,4.9789,4.9155,4.9932,5.0742,5.1383,5.2426,5.3643,5.5004,5.5333,5.5697,5.6202,5.6216,5.5806,5.4942,5.4079,5.3195,5.2324,5.0685,5.0107,5.0451,4.7991,4.7607,3.6354,3.3457,3.0464,2.7613,2.6519,2.6748,2.9049,0.0,3.9834,4.4128,4.8493,5.2275,5.4663,5.4412,5.4333,5.585,0.0,5.4894,5.4789,5.4854,5.4517,5.3453,0.0,0.0,5.1543,5.0591,4.9287,4.7419,4.3655,4.0037,3.6879,3.5089,3.2316,2.826,2.6648,2.428,2.0993,1.9968,1.9237,1.8768,1.8518,1.912,2.0478,2.0986,2.2061,2.3554,2.4567,2.6028,2.7683,2.734,2.7736,2.8426,2.7291,2.6683,2.6278,2.5217,2.4909,2.4958,2.4424,2.4377,2.4683,2.5566,2.6604,2.7733,2.8798,2.9079,2.9238,3.0155,3.0367,3.0367,3.0492,3.051,3.0557,3.0671,3.0769,3.1067,3.2039,3.2919,3.433,3.6936,3.9563,4.1885,4.3523,4.5976,4.7935,4.8607,4.9317,5.0111,5.0991,5.0923,5.0767,5.0709,5.1518,5.2117,5.2194,5.3825,5.4927,5.5085,5.5911,5.6051,5.535,5.533,5.4915,5.403,5.3161,5.2617,5.2383,5.1372,5.0868,5.0805,4.8929,4.8551,3.2877,2.8648,2.4397,2.1706,2.0819,2.1281,2.3706,3.0212,3.6858,4.0719,4.6197,5.075,5.2342,5.2551,5.2986,5.449,5.422,5.3865,5.4024,5.4557,5.427,5.2516,5.2324,5.1511,4.9436,4.8842,4.7239,4.3965,4.1298,3.8365,3.5009,3.4241,3.1795,2.7204,2.6022,2.3587,1.9693,1.8695,1.7748,1.6787,1.6745,1.7199,1.8103,1.9061,2.0114,2.1244,2.2464,2.4005,2.5609,2.6093,2.6399,2.655,2.6562,2.5883,2.4816,2.407,2.3659,2.3422,2.2792,2.2685,2.2916,2.3366,2.4132,2.5252,2.7346,2.8341,2.8874,2.9306,2.9819,3.0273,3.0406,3.0521,3.0645,3.0736,3.0722,3.0794,3.1143,3.1871,3.2932,3.4439,3.6851,3.9207,4.0989,4.3483,4.5681,4.6947,4.7839,4.8662,4.9381,4.9393,4.9525,4.9994,5.0906,5.1693,5.224,5.302,5.3474,5.3467,5.3827,5.3669,5.2836,5.2822,5.2692,5.2343,5.2036,5.181,5.1686,5.0782,5.0568,5.0984,4.9255,4.9184,3.0387,2.5284,2.0247,1.7456,1.6677,1.7316,1.9675,2.6759,3.391,3.7602,4.3303,4.8164,4.9879,5.0505,5.1347,5.3221,5.3049,5.2806,5.3151,5.353,5.3142,5.1394,5.0956,4.9865,4.7453,4.6504,4.4669,4.1374,3.9615,3.7353,3.423,3.355,3.1207,2.6696,2.5596,2.3169,1.9171,1.8205,1.6985,1.5507,1.5578,1.5982,1.6661,1.7667,1.875,1.9904,2.118,2.2655,2.4196,2.5168,2.5519,2.5384,2.5848,2.5069,2.365,2.3177,2.2664,2.2159,2.1771,2.1697,2.182,2.1916,2.2504,2.3503,2.5452,2.7059,2.8297,2.8609,2.9441,3.0241,3.0379,3.0559,3.0723,3.0789,3.076,3.0735,3.0726,3.0981,3.1533,3.2538,3.4264,3.628,3.852,4.0914,4.3163,4.5063,4.6092,4.6873,4.7572,4.7554,4.7687,4.8287,4.8945,5.0026,5.1744,5.1888,5.1877,5.1845,5.1616,5.1103,5.0299,5.0394,5.0362,5.0146,5.0469,5.0571,5.0491,4.9867,4.9984,5.0751,4.9317,4.9469,2.8545,2.3513,1.828,1.4382,1.3826,1.4838,1.7128,2.3928,3.0962,3.5258,3.9826,4.4151,4.7681,4.8438,4.9551,5.2611,5.2324,5.1895,5.2444,5.1605,5.064,4.9821,4.873,4.7398,4.5774,4.3345,4.1485,4.0587,3.8963,3.689,3.4342,3.2695,3.0244,2.6813,2.5156,2.2663,1.9233,1.8276,1.679,1.4807,1.4947,1.5513,1.6404,1.6834,1.8068,1.9945,2.0842,2.2177,2.3754,2.4354,2.4981,2.5431,2.4841,2.3977,2.2947,2.2473,2.1965,2.1534,2.1661,2.1732,2.182,2.1885,2.2402,2.3013,2.3102,2.4999,2.7301,2.8231,2.9319,3.0222,3.0364,3.0554,3.0728,3.0774,3.079,3.081,3.0801,3.0073,2.9914,3.1584,3.193,3.3025,3.6433,3.8546,4.0635,4.3222,4.4309,4.5098,4.5828,4.5688,4.5565,4.5618,4.5645,4.7078,5.0602,5.0796,5.0664,5.0538,4.9769,4.8957,4.8075,4.8359,4.8193,4.7449,4.834,4.8828,4.8824,4.8824,4.9218,4.9999,4.9179,4.9315,2.629,2.2459,1.846,1.4965,1.4846,1.6013,1.7747,2.3787,2.9929,3.3184,3.7587,4.1803,4.4812,4.6116,4.7709,5.0818,5.1072,0.0,5.1218,5.1113,4.9995,4.734,4.526,4.3846,4.3336,4.1476,3.9931,3.9057,3.7995,3.626,3.3653,3.2506,3.0331,2.6822,2.5135,2.266,1.9234,1.8319,1.6898,1.5012,1.5367,1.5856,1.641,1.7159,1.8453,2.0162,2.1183,2.2362,2.3634,2.4666,2.4783,2.4344,2.4486,2.3605,2.2189,2.1722,2.0759,1.9741,1.9882,1.9621,1.9287,1.9819,2.058,2.1288,2.1273,2.3472,2.6358,2.8028,2.9289,3.0163,3.0364,3.0548,3.073,3.0774,3.0798,3.0648,3.0033,2.9675,2.9424,2.9256,3.0203,3.1715,3.3944,3.5846,3.7929,4.0542,4.1612,4.2385,4.3083,4.3081,4.3258,4.3839,4.2285,4.2591,4.5964,4.6475,4.6074,4.4833,4.4862,4.4683,4.4193,4.5117,4.5611,4.555,4.7069,4.7871,4.7909,4.7904,4.8345,4.9192,5.0149,5.0738,0.0,2.1734,1.8817,1.6158,1.649,1.7852,1.9254,2.4238,2.9281,3.1934,3.6051,3.9931,4.2388,4.4298,4.6382,4.8982,4.9671,5.0052,5.0489,5.0119,4.8686,4.5602,4.3681,4.2483,4.2165,4.0617,3.9276,3.8398,3.7577,3.5976,3.3379,3.2421,3.0527,2.7365,2.5347,2.2974,2.0204,1.8691,1.7158,1.5636,1.5534,1.588,1.6569,1.7237,1.8646,2.0586,2.1585,2.2722,0.0,2.4974,2.4818,2.3917,2.4076,2.3055,2.1462,2.0901,1.9933,1.8914,1.9053,1.861,1.8128,1.8915,1.9782,2.058,2.1079,2.3015,2.5505,2.779,2.8982,2.9693,3.0196,3.0492,3.0672,3.074,3.0774,3.0554,2.9681,2.9234,2.8817,2.8129,2.8872,3.0248,3.224,3.4076,3.6047,3.8335,3.9413,4.0106,4.0528,4.0552,4.0583,4.0749,3.9214,3.8786,4.0313,4.141,4.1757,4.116,4.121,4.1512,4.2113,4.3193,4.4053,4.4694,4.615,4.6947,4.7006,4.7313,4.7928,4.883,5.026,5.1093,0.0,2.1425,1.9528,1.7945,1.8696,2.017,2.1498,2.5211,0.0,3.151,3.5166,3.86,4.0577,4.3089,4.5389,4.7256,4.829,4.9107,5.001,4.8736,4.6858,4.4509,4.362,4.2865,4.2022,4.0568,3.9363,3.8558,3.7617,3.6039,3.3595,3.2527,3.0843,2.8366,2.5817,2.3612,2.1814,1.9277,1.7538,1.658,1.5573,1.5776,1.7006,1.7286,1.8805,2.1262,2.2075,2.3205,2.4491,2.5313,2.5032,2.4078,2.3714,2.2461,2.0798,2.02,1.9466,1.8841,1.9017,1.861,1.814,1.9011,1.9811,2.0674,2.2095,2.3363,2.4856,2.7457,2.8433,2.8927,2.9945,3.0404,3.062,3.0671,3.07,3.0462,2.9595,2.8716,2.8053,2.7923,2.7937,2.8772,3.1272,3.3151,3.4897,3.6657,3.7705,3.8319,3.8315,3.8201,3.7786,3.689,3.6515,3.5753,3.4405,3.6236,3.7935,3.9054,3.8707,3.9396,4.1454,4.2412,4.3463,4.4676,4.5616,4.613,4.6203,4.7065,4.7956,4.8825,4.9767,5.0629,2.1738,0.0,2.1527,2.0233,2.0969,2.2526,0.0,2.7032,2.9856,0.0,0.0,0.0,4.0955,4.2715,4.4522,4.692,4.766,4.8052,4.856,4.7102,4.5395,4.3728,4.286,4.2055,4.1246,4.0238,3.9537,3.9321,3.7949,3.6542,3.5216,3.372,3.1708,2.9117,2.7195,2.4783,2.1823,1.9266,1.784,1.7474,1.6519,1.7081,1.8931,1.8645,1.9909,2.2332,2.2685,2.3637,2.4972,2.5586,2.5223,2.4255,2.4255,2.2801,2.0668,2.0657,1.9477,1.8002,1.8699,1.8529,1.8146,1.9011,1.9429,1.9868,2.1442,2.3033,2.4727,2.673,2.7947,2.8878,2.9934,3.0351,3.0543,3.0665,3.0194,2.9494,2.8688,2.7779,2.7109,2.7028,2.7497,2.8733,3.1261,3.2645,3.4002,3.5811,3.684,3.7402,3.7412,3.7376,3.6986,3.6016,3.5061,3.4137,3.3259,3.4907,3.5891,3.5616,3.7094,3.8548,3.9883,4.1839,4.3429,4.4586,4.5655,4.6189,4.6203,4.7733,4.8586,4.8829,5.0376,5.1206,2.2693,2.357,2.4063,2.365,2.4637,2.6201,2.7899,0.0,0.0,0.0,0.0,0.0,0.0,0.0,0.0,4.6641,4.7469,4.7923,4.789,4.6819,4.5491,4.3989,4.309,4.2299,4.1478,4.0626,3.9929,3.9533,3.8662,3.7401,3.5704,3.4359,3.2464,2.9844,2.7802,2.5337,2.2383,2.0195,1.8835,1.8294,1.7296,1.7727,1.9415,1.9632,2.0987,2.3202,2.387,2.4729,2.5643,2.5658,2.5146,2.4298,2.3786,2.2382,2.061,2.042,1.944,1.827,1.8735,1.873,1.8531,1.8651,1.8971,1.9607,2.122,2.2426,2.369,2.5818,2.7184,2.8233,2.9298,3.0013,3.0395,3.0122,2.9713,2.9074,2.7868,2.7487,2.7252,2.6784,2.8,2.9648,3.1395,3.2775,3.4254,3.6082,3.6434,3.666,3.709,3.6795,3.6152,3.5164,3.4299,3.3709,3.35,3.4515,3.5048,3.4866,3.623,3.8099,4.0537,4.2576,4.4543,4.65,4.7092,4.7387,4.7404,4.8337,4.9013,4.9423,5.0359,5.1012,2.4926,2.6436,2.7426,2.7122,2.8393,2.9989,0.0,0.0,0.0,0.0,0.0,0.0,0.0,4.3957,0.0,0.0,4.7624,4.7973,4.727,4.6813,4.5917,4.4232,4.3412,4.2744,4.2058,4.1189,4.0422,3.9816,3.9546,3.8362,3.5977,3.4808,3.2994,3.0374,2.8056,2.568,2.3176,2.1305,1.9941,1.9071,1.8126,1.8328,1.9593,2.0515,2.2028,2.399,2.4961,2.5698,2.6217,2.5664,2.4987,2.4184,2.3102,2.1936,2.0778,2.0139,1.9546,1.9058,1.8968,1.9001,1.9006,1.8383,1.8712,1.9617,2.1253,2.1865,2.2542,2.5054,2.6529,2.7547,2.8551,2.9602,3.0229,2.9641,2.9326,2.8806,2.7388,2.7511,2.769,2.7013,2.882,3.0833,3.1908,3.3427,3.5063,3.6764,3.6452,3.6248,3.6921,3.6359,3.5518,3.4484,3.4107,3.4002,3.4132,3.4552,3.51,3.5792,3.6415,3.8546,4.2526,4.4153,4.6173,4.8747,4.8794,4.8818,4.8821,4.8939,4.9377,5.01,5.0242,5.0622,2.8105,3.1154,3.269,2.889,2.9915,3.173,3.1029,0.0,0.0,0.0,0.0,0.0,0.0,4.4484,4.6266,0.0,4.799,4.7224,4.5407,4.5319,4.4672,4.2541,4.2167,4.2063,4.1938,4.1142,4.0858,4.1475,4.0154,3.8787,3.7613,3.535,3.2922,3.0291,2.8528,2.6414,2.3871,2.1448,2.0127,1.9915,1.9525,2.0006,2.1241,2.1744,2.3063,2.4958,2.4804,2.5258,2.6019,2.5692,2.4904,2.3887,2.3618,2.2721,2.1552,2.0934,2.0344,1.9754,1.9254,1.9086,1.9097,1.9038,1.9219,1.9778,2.1451,2.2024,2.263,2.528,2.6741,2.7698,2.8646,2.9596,3.0325,3.0318,2.9233,2.8155,2.7961,2.7381,2.7071,2.7605,2.9184,3.1164,3.3508,3.4739,3.5773,3.6908,3.6973,3.6715,3.6161,3.5973,3.5482,3.4442,3.4711,3.4566,3.3534,3.4633,3.6043,3.7582,3.8981,4.1418,4.5157,4.6358,4.7541,4.8775,4.8805,4.8836,4.8881,4.9568,4.9961,5.0114,5.0856,5.0871,2.8421,3.1799,3.4201,3.2149,3.3315,3.4874,3.4469,0.0,0.0,0.0,0.0,0.0,0.0,0.0,4.6875,4.7641,4.6843,4.5685,4.4501,4.4088,4.3542,4.2574,4.2069,4.1777,4.1793,4.1035,4.0708,4.1101,4.0392,3.9327,3.7923,3.5837,3.3704,3.156,2.9065,2.6943,2.5251,2.2746,2.1425,2.1282,2.0498,2.0788,2.2016,2.2822,2.3667,2.4486,2.5154,2.548,2.5483,2.5052,2.4521,2.3944,2.358,2.2778,2.1744,2.076,1.9961,1.9324,1.911,1.9052,1.9051,1.9168,1.9622,2.0332,2.1609,2.2417,2.3351,2.5502,2.6786,2.7713,2.8654,2.9596,3.0225,2.9872,2.9236,2.8586,2.8147,2.8055,2.8309,2.9138,3.0637,3.2281,3.4013,3.5407,3.648,3.7023,3.7491,3.75,3.6663,3.6521,3.6093,3.5057,3.5028,3.5205,3.549,3.6047,3.7132,3.8965,4.1239,4.3778,4.6601,4.7632,4.8806,5.0178,5.0209,5.0213,5.0253,5.0195,5.0137,5.0098,5.0038,4.9785,2.868,3.1843,3.464,3.515,0.0,3.71,3.7207,0.0,0.0,0.0,0.0,0.0,0.0,4.5497,4.696,4.6518,4.5532,4.4524,4.3596,4.2929,4.2488,4.235,4.1788,4.1498,4.169,4.0989,4.0696,4.1072,4.0729,3.9854,3.845,3.6542,3.4601,3.2664,2.9603,2.7452,2.6319,2.4004,2.2678,2.2297,2.1294,2.1461,2.2658,2.351,2.4007,2.4209,2.527,2.5414,2.4916,2.4523,2.4239,2.3935,2.3453,2.277,2.19,2.0945,1.9969,1.9111,1.9219,1.9128,1.9036,1.9137,1.9811,2.0776,2.1748,2.2918,2.4257,2.5996,2.7153,2.8013,2.8733,2.9634,3.021,2.964,2.94,2.9119,2.8461,2.8791,2.9458,3.0314,3.1792,3.3333,3.4673,3.6192,3.7323,3.765,3.8093,3.8101,3.7202,3.6887,3.6406,3.5596,3.5431,3.6118,3.7886,3.8058,3.8855,4.0746,4.3032,4.5235,4.7289,4.8293,4.9528,5.1066,5.1307,5.1406,5.1406,5.0565,5.0114,5.0029,4.9137,4.8603,3.0251,3.2802,3.513,3.6644,3.6949,0.0,3.6718,3.6104,0.0,3.6574,0.0,0.0,0.0,4.4136,4.5963,4.4469,4.4819,4.446,4.2178,4.1813,4.1506,4.0754,4.0611,4.0893,4.1703,4.1069,4.1249,4.2803,4.1357,4.0315,4.0133,3.7766,3.5253,3.2692,3.0132,2.7998,2.6319,2.4517,2.3175,2.2303,2.1953,2.2429,2.3581,2.343,2.4056,2.5252,2.462,2.4374,2.4441,2.4544,2.4212,2.3638,2.3522,2.3021,2.2364,2.2345,2.1339,2.0009,2.0008,1.9579,1.9019,1.9087,1.9778,2.0791,2.1863,2.3404,2.52,2.7058,2.8224,2.8919,2.897,2.9744,3.0479,3.0422,2.9844,2.9282,2.9226,2.9197,2.9438,3.0254,3.1761,3.3711,3.6273,3.7495,3.844,3.9377,3.8887,3.8097,3.7202,3.6386,3.5795,3.5538,3.615,3.7482,3.9718,4.0507,4.1708,4.3576,4.4138,4.5267,4.7241,4.8263,4.9239,5.0188,5.0988,5.1402,5.1405,5.0476,4.9977,4.9898,4.8958,4.8054,2.98,3.2903,3.5734,3.6003,0.0,0.0,0.0,0.0,0.0,3.8791,3.962,0.0,0.0,0.0,4.402,4.3573,4.3319,4.2681,4.1219,4.1027,4.0896,4.055,4.0543,4.0688,4.102,4.0771,4.0863,4.1493,4.087,4.021,3.9643,3.7647,3.5572,3.3528,3.0986,2.8841,2.7132,2.5365,2.4252,2.372,2.2947,2.2922,2.3584,2.3957,2.4067,2.3997,2.4307,2.4266,2.3965,2.4055,2.3981,2.3852,2.3728,2.3238,2.2592,2.2574,2.183,2.0855,2.0836,2.0334,1.9687,1.9811,2.0528,2.1438,2.2032,2.3846,2.5999,2.7369,2.8414,2.925,2.9798,3.0216,3.0509,3.054,3.0337,3.0105,3.0066,3.0028,3.0413,3.1758,3.2524,3.38,3.6388,3.7595,3.8332,3.878,3.9513,3.9303,3.7338,3.7206,3.7065,3.6435,3.7911,3.9254,4.0101,4.1829,4.3224,4.4019,4.4793,4.58,4.7117,4.8136,4.9113,5.0015,5.0313,5.045,5.0401,4.8912,4.8168,4.8068,4.7051,4.6403,3.0541,3.3606,3.6324,0.0,0.0,0.0,0.0,0.0,0.0,3.9772,4.0253,0.0,4.2763,0.0,4.246,4.2386,4.1895,4.1233,4.037,3.9995,3.989,4.0111,4.0179,4.0328,4.0583,4.064,4.077,4.1017,4.0708,4.0273,3.9631,3.789,3.6026,3.4052,3.1722,2.9565,2.7627,2.637,2.5502,2.4998,2.4189,2.4001,2.432,2.4569,2.4426,2.4014,2.4225,2.4105,2.3795,2.3899,2.4018,2.4114,2.3998,2.361,2.3097,2.2785,2.209,2.129,2.1038,2.0407,1.9759,1.9901,2.0782,2.1861,2.2164,2.4136,2.6492,2.7569,2.8531,2.9447,3.0326,3.0549,3.0559,3.0588,3.0597,3.0655,3.0898,3.0936,3.1418,3.3103,3.3376,3.4186,3.6768,3.7757,3.8399,3.9024,3.9952,3.9945,3.8162,3.8108,3.8113,3.7727,3.9262,4.0499,4.1017,4.2808,4.4067,4.442,4.5149,4.5896,4.6654,4.7614,4.8448,4.9106,4.9311,4.9361,4.9265,4.7695,4.6907,4.6815,4.5736,4.5283,3.2938,3.5147,3.682,0.0,0.0,0.0,0.0,0.0,0.0,3.8869,3.9438,3.9795,4.0397,4.1203,4.1501,4.0723,4.0642,4.0404,3.96,3.869,3.8395,3.9199,3.9341,3.9702,4.0505,4.0694,4.1126,4.1917,4.1114,4.0573,4.0504,3.8783,3.6635,3.4079,3.2325,3.018,2.7632,2.7479,2.6902,2.5893,2.5689,2.577,2.6067,2.5275,2.5254,2.581,2.4334,2.3816,2.4016,2.4154,2.4266,2.4375,2.4321,2.421,2.4002,2.3123,2.2225,2.1312,2.0517,1.9651,1.8948,1.9153,2.0393,2.1874,2.2267,2.4264,2.6615,2.77,2.8628,2.9528,3.0451,3.0698,3.0683,3.0621,3.0613,3.0854,3.1708,3.1855,3.2308,3.3978,3.4241,3.5027,3.7636,3.8148,3.8806,4.0616,4.0224,3.9711,3.97,3.896,3.8672,3.9325,3.9954,4.1033,4.2736,4.3521,4.4276,4.5154,4.526,4.5437,4.5786,4.6635,4.7139,4.7192,4.7986,4.8276,4.8072,4.7072,4.655,4.6452,4.5392,4.4934,3.2022,3.4238,0.0,3.5427,0.0,0.0,0.0,0.0,0.0,0.0,3.9997,4.0375,4.0793,4.033,3.9873,3.9772,3.9352,3.8914,3.8631,3.8399,3.831,3.8508,3.8589,3.8698,3.8895,3.9499,3.9983,4.0217,4.0507,4.0376,3.975,3.8584,3.6761,3.4155,3.2928,3.0772,2.7547,2.7392,2.6535,2.4987,2.5392,2.5554,2.5448,2.4623,2.4302,2.4298,2.3454,2.3467,2.4041,2.3709,2.3587,2.3622,2.3657,2.3994,2.4409,2.4061,2.3731,2.3309,2.241,2.1553,2.0785,2.0268,2.0591,2.1334,2.2217,2.3934,2.5904,2.7533,2.8662,2.9576,3.0467,3.0721,3.074,3.0697,3.1145,3.1663,3.1921,3.2391,3.3103,3.4158,3.4326,3.4892,3.6858,3.7745,3.8581,3.9742,4.031,4.0396,3.9773,3.9461,3.9361,3.9469,4.1189,4.2502,4.2939,4.4154,4.4968,4.5192,4.5173,4.5199,4.5285,4.6244,4.674,4.6716,4.6951,4.6973,4.676,4.5808,4.5308,4.5223,4.4813,4.4667,3.3562,3.5441,0.0,3.5587,3.5381,3.537,3.4802,0.0,0.0,0.0,3.9439,3.9589,4.0096,3.9385,3.8753,3.8922,3.8294,3.7783,3.7754,3.752,3.7443,3.7735,3.7812,3.7919,3.8209,3.8711,3.901,3.9019,3.9444,3.9316,3.8453,3.7525,3.596,3.3676,3.2379,3.0348,2.7528,2.7392,2.6591,2.5136,2.5484,2.5541,2.5307,2.473,2.4226,2.378,2.2867,2.2811,2.3321,2.3033,2.3105,2.342,2.3454,2.3948,2.454,2.412,2.3721,2.3266,2.2332,2.1522,2.0794,2.0329,2.0532,2.1078,2.1828,2.3323,2.5062,2.6597,2.7949,2.9128,3.001,3.0515,3.0888,3.1183,3.164,3.2201,3.2876,3.3398,3.3951,3.4768,3.4883,3.528,3.6607,3.7618,3.8539,3.9413,4.0402,4.0852,4.0311,4.0544,4.0687,4.0577,4.2473,4.3655,4.3528,4.4633,4.5297,4.517,4.5125,4.5038,4.4905,4.5525,4.584,4.5757,4.5726,4.5613,4.5382,4.4825,4.453,4.4458,4.444,4.4458,3.6342,0.0,0.0,3.6511,3.6099,0.0,3.4113,3.485,3.6348,3.7946,0.0,3.792,3.8578,3.8248,3.7897,3.7947,3.7221,3.6684,3.674,3.6112,3.5963,3.6774,3.6871,3.7187,3.7994,3.8132,3.8161,3.8083,3.8075,3.768,3.6714,3.5862,3.4564,3.2718,3.1065,2.9306,2.74,2.7312,2.6777,2.577,2.5721,2.5578,2.5392,2.5193,2.4616,2.3742,2.2604,2.2073,2.1985,2.2139,2.2663,2.3388,2.3393,2.3865,2.4417,2.3621,2.2884,2.2133,2.1176,2.0406,1.9828,1.9737,2.0258,2.0977,2.1311,2.2588,2.4145,2.527,2.6805,2.8313,2.9266,3.0092,3.095,3.1978,3.2172,3.2589,3.4244,3.462,3.4847,3.5572,3.5718,3.594,3.6663,3.7627,3.8624,3.959,4.0574,4.1211,4.1211,4.1915,4.2396,4.2327,4.3625,4.4442,4.4314,4.4978,4.5317,4.5084,4.5103,4.49,4.4493,4.4669,4.4701,4.4565,4.439,4.4215,4.405,4.3946,4.3935,4.3967,4.4095,4.424,3.5235,3.5283,0.0,0.0,3.3339,3.1709,3.0678,3.122,3.2569,3.4783,3.6228,3.6942,3.644,3.6269,3.5996,3.535,3.4598,3.4107,3.4121,3.3971,3.4177,3.5034,3.5132,3.5451,3.6261,3.6966,3.7078,3.6395,3.691,3.6579,3.5029,3.4693,3.3427,3.095,3.0484,2.9059,2.6503,2.6408,2.5872,2.4877,2.4808,2.4723,2.4616,2.4487,2.3621,2.2297,2.2796,2.1988,2.0358,2.113,2.155,2.1713,2.1772,2.2646,2.3874,2.368,2.3851,2.3967,2.2487,2.1843,2.1512,2.025,2.005,2.0451,2.1312,2.2332,2.3551,2.5157,2.6398,2.7624,2.918,2.9726,3.041,3.2598,3.3119,3.3389,3.4456,3.5159,3.5652,3.5826,3.5773,3.5757,3.5921,3.7259,3.8855,4.0535,4.1538,4.2128,4.2128,4.2824,4.3306,4.3293,4.4063,4.4517,4.4392,4.5013,4.5281,4.5057,4.4967,4.4512,4.3548,4.4194,4.4439,4.4192,4.336,4.2922,4.2934,4.2142,4.216,4.2921,4.2952,4.346,0.0,0.0,0.0,3.2888,0.0,2.9893,2.9019,2.9499,3.0472,3.1739,3.3683,3.499,3.4525,3.4129,3.3877,3.3871,3.3199,3.283,3.3287,3.3341,3.3526,3.3964,3.4023,3.4189,3.4603,3.5034,3.5087,3.4644,3.4955,3.4592,3.3266,3.2774,3.169,2.983,2.8917,2.7585,2.5691,2.5593,2.5049,2.408,2.4393,2.4515,2.4375,2.3896,2.3011,2.1863,2.203,2.1251,1.9894,2.0368,2.0842,2.1248,2.1252,2.2273,2.3701,2.3708,2.3947,2.4152,2.3269,2.2477,2.1673,2.082,2.0345,2.0331,2.1304,2.2261,2.3275,2.4634,2.5987,2.7207,2.8122,2.8958,2.9991,3.1747,3.2793,3.3743,3.5044,3.5627,3.5899,3.5905,3.5838,3.5799,3.576,3.7229,3.8865,4.0272,4.156,4.2397,4.2401,4.3496,4.4264,4.4226,4.4443,4.455,4.4403,4.4282,4.4096,4.3817,4.4085,4.3763,4.2612,4.3249,4.3346,4.2786,4.2028,4.1662,4.1732,4.1595,4.1797,4.2338,4.2871,4.3693,0.0,0.0,3.3019,3.0879,2.9707,0.0,2.7966,2.8431,2.9068,2.9065,3.1047,3.2749,3.2593,3.1972,3.1678,3.2325,3.1804,3.1612,3.2393,3.2635,3.2739,3.2745,3.2882,3.2957,3.295,3.2892,3.281,3.2664,3.259,3.211,3.1079,3.0335,2.9453,2.8373,2.6882,2.5636,2.4675,2.4556,2.4104,2.3305,2.388,2.418,2.4153,2.3285,2.2562,2.1874,2.115,2.038,1.9688,1.9688,2.0131,2.0842,2.0782,2.1876,2.3486,2.348,2.3683,2.391,2.3771,2.2847,2.1729,2.1524,2.1082,2.08,2.1604,2.2493,2.3396,2.4181,2.5546,2.6832,2.7137,2.8235,2.9569,3.0749,3.2121,3.3652,3.5405,3.5723,3.5701,3.5694,3.569,3.5801,3.6203,3.751,3.8906,4.0072,4.1582,4.2669,4.2822,4.4101,4.4952,4.4899,4.4578,4.433,4.4176,4.3378,4.2776,4.2503,4.3019,4.2825,4.1724,4.1999,4.1872,4.1108,4.0818,4.0704,4.0789,4.1429,4.183,4.2011,4.2962,4.3919,0.0,0.0,2.9815,0.0,2.7942,2.7108,0.0,0.0,2.7324,2.7333,2.9347,3.0891,3.0122,2.9852,2.9555,2.8973,2.877,2.8753,2.8873,2.9593,3.011,3.0113,3.0774,3.1202,3.1142,3.1131,3.0827,3.0056,3.0009,2.9284,2.7649,2.74,2.656,2.4929,2.4579,2.3937,2.2946,2.292,2.2766,2.2458,2.2447,2.2752,2.3321,2.252,2.2089,2.195,2.1208,2.0088,1.8771,1.8771,1.8879,1.9046,1.9037,2.0516,2.2665,2.2664,2.3619,2.4822,2.4043,2.3679,2.3443,2.2736,2.2489,2.2497,2.2733,2.3436,2.416,2.436,2.5117,2.6205,2.7669,2.8213,2.8961,3.1352,3.2104,3.2748,3.4492,3.4876,3.4856,3.4854,3.4813,3.5495,3.775,3.8331,3.9316,4.1682,4.283,4.3723,4.4546,4.4803,4.4892,4.4818,4.4006,4.3401,4.3192,4.3017,4.2756,4.2416,4.2346,4.1825,4.0819,4.0388,4.022,4.0258,4.044,4.0581,4.0722,4.0637,4.1053,4.1923,4.212,4.2787,2.8832,2.9233,2.8975,0.0,2.6758,2.5944,2.5102,2.5244,2.5535,2.5545,2.6425,2.7531,2.8587,2.7948,2.7328,2.7501,2.6718,2.6415,2.7397,2.7889,2.832,2.8808,2.9219,2.9433,2.9394,2.8964,2.8512,2.8135,2.7659,2.6613,2.4865,2.4736,2.4161,2.2896,2.2327,2.1806,2.1314,2.1235,2.135,2.1619,2.1985,2.2551,2.3215,2.1919,2.1566,2.1971,2.1179,1.9987,1.8606,1.8554,1.861,1.8694,1.8663,1.9922,2.1832,2.2317,2.3296,2.4397,2.4499,2.4255,2.3847,2.3532,2.3131,2.2906,2.3495,2.3976,2.4508,2.5517,2.6073,2.6657,2.7881,2.8559,2.9226,3.038,3.1382,3.2299,3.3076,3.3633,3.4116,3.4608,3.468,3.5315,3.7402,3.818,3.9044,4.0657,4.2434,4.359,4.3548,4.4349,4.4681,4.4122,4.3199,4.2544,4.2348,4.1756,4.1265,4.1013,4.1173,4.0851,3.9952,3.9829,3.9598,3.9197,3.9545,4.0058,4.0688,4.076,4.1081,4.1612,4.225,4.3324,0.0,0.0,2.7652,2.6812,2.601,2.5215,0.0,0.0,2.4269,2.406,2.4027,2.4614,2.6501,2.581,2.5185,2.5893,2.4921,2.4512,2.5838,2.6208,2.6499,2.6926,2.716,2.7219,2.7004,2.6186,2.5681,2.5684,2.4863,2.3729,2.2218,2.2127,2.1717,2.0853,2.0133,1.9732,1.9671,1.9523,1.9812,2.0493,2.1035,2.1779,2.2637,2.1179,2.0949,2.164,2.0834,1.9649,1.826,1.8203,1.823,1.8329,1.8278,1.9439,2.1242,2.2148,2.3019,2.3872,2.4772,2.4693,2.4219,2.43,2.3938,2.3589,2.4316,2.4579,2.4901,2.6202,2.6735,2.7131,2.7983,2.8837,2.9522,2.9781,3.0808,3.1804,3.2051,3.2612,3.3262,3.3919,3.4213,3.4961,3.6866,3.7917,3.8892,4.0169,4.2004,4.3116,4.2744,4.3583,4.394,4.3226,4.2296,4.1648,4.147,4.0705,4.012,3.9914,4.0164,4.0031,3.9436,3.9441,3.926,3.8884,3.9242,3.9824,4.0617,4.0989,4.1357,4.1785,4.2591,4.3851,0.0,2.5398,0.0,2.5956,2.5757,0.0,0.0,2.4072,2.3909,2.3134,2.3038,2.3091,2.3162,2.321,2.3251,2.329,2.3228,2.3205,2.3285,2.4003,2.4252,2.3464,2.4107,2.4283,2.3444,2.2572,2.2073,2.2063,2.1265,2.0409,1.9531,1.9431,1.9035,1.8226,1.8097,1.7999,1.7936,1.7792,1.8094,1.883,1.8801,1.9575,2.0998,2.0148,2.0164,2.0829,2.001,1.8796,1.7371,1.7307,1.7277,1.7288,1.7337,1.8819,2.103,2.2035,2.2924,2.3742,2.4682,2.5031,2.5069,2.5184,2.5255,2.5281,2.5394,2.5477,2.5543,2.5646,2.6308,2.7186,2.7987,2.8798,2.9633,3.0531,3.075,3.1027,3.1901,3.2147,3.2187,3.2225,3.291,3.4256,3.6777,3.7869,3.9267,4.1782,4.2226,4.2574,4.3428,4.2841,4.2292,4.2182,4.1332,4.0689,4.049,4.0344,4.0177,3.9911,3.9684,3.9508,3.9399,3.8792,3.893,3.9902,4.018,4.0366,4.0438,4.1065,4.1857,4.2729,4.2974,4.3541,0.0,0.0,0.0,2.2384,2.2053,2.1913,2.2153,2.1854,2.1467,2.1215,2.119,2.1178,2.1118,2.1706,2.2204,2.2204,2.1726,2.1562,2.2131,2.2473,2.2756,2.3004,2.3315,2.3159,2.2284,2.1414,2.0687,2.0166,1.9314,1.8235,1.6865,1.6774,1.6367,1.5521,1.4924,1.4856,1.5365,1.5838,1.6444,1.7221,1.7681,1.8445,1.9484,1.9101,1.9357,2.0084,1.9785,1.8752,1.7232,1.7262,1.6933,1.6492,1.7027,1.8111,1.9525,2.0921,2.2015,2.288,2.3253,2.4174,2.5091,2.4619,2.488,2.5415,2.5468,2.5543,2.5714,2.629,2.709,2.7964,2.8801,2.9625,3.0339,3.0706,3.0779,3.0856,3.1194,3.1272,3.1439,3.1991,3.2809,3.42,3.6694,3.7793,3.8999,4.0983,4.1761,4.2072,4.1894,4.2103,4.2028,4.1403,4.0994,4.0688,4.0492,4.0323,4.0158,3.9911,3.9618,3.9439,3.9418,3.8785,3.8638,3.9043,3.9369,4.0167,4.1343,4.1704,4.2083,4.257,4.2688,4.3276,1.9944,0.0,0.0,0.0,0.0,1.9819,2.0865,2.0543,2.0031,2.0041,2.0069,2.0078,2.0003,2.0592,2.1017,2.0809,2.0274,1.9997,2.0305,2.0357,2.0559,2.1139,2.1211,2.0998,2.0404,1.9566,1.8725,1.7916,1.707,1.5981,1.4593,1.4256,1.3706,1.285,1.2513,1.2613,1.3153,1.3698,1.4491,1.5568,1.6334,1.7101,1.787,1.8063,1.8429,1.8883,1.8895,1.8242,1.7167,1.724,1.6743,1.5997,1.6548,1.7423,1.8571,1.9985,2.1089,2.196,2.2357,2.3484,2.4659,2.4178,2.4657,2.5423,2.5503,2.5568,2.5738,2.6332,2.7343,2.8359,2.8922,2.9883,3.0661,3.0429,3.0598,3.0724,3.0435,3.059,3.0977,3.155,3.2592,3.3969,3.5872,3.7342,3.8723,4.0062,4.1033,4.145,4.0952,4.1464,4.1621,4.0972,4.0835,4.0602,4.0115,4.0185,4.0063,3.9532,3.9515,3.9471,3.9399,3.8844,3.8554,3.8603,3.9206,4.0185,4.1505,4.174,4.2019,4.245,4.2609,4.3172,0.0,0.0,0.0,0.0,0.0,0.0,2.0407,2.022,1.9749,1.9669,1.9748,1.9817,1.9809,1.9832,1.9673,1.8994,1.8893,1.8628,1.7831,1.7709,1.7703,1.7696,1.7694,1.7687,1.765,1.6893,1.6055,1.5226,1.4444,1.3624,1.279,1.191,1.1058,1.0254,1.0991,1.1428,1.1431,1.1452,1.2262,1.3831,1.4634,1.541,1.6126,1.6998,1.734,1.7238,1.7248,1.7191,1.7059,1.7144,1.6613,1.5777,1.5866,1.6824,1.8282,1.9298,2.0191,2.104,2.2073,2.2999,2.3809,2.3995,2.4656,2.5393,2.5551,2.5595,2.5601,2.5673,2.6933,2.825,2.8248,2.9518,3.0574,2.9718,3.0162,3.0568,2.9682,3.018,3.0807,3.084,3.2162,3.3543,3.4334,3.655,3.8472,3.9309,4.0153,4.0754,4.0867,4.0964,4.0957,4.0875,4.0805,4.0331,3.9268,3.9906,3.9888,3.8776,3.9328,3.9618,3.9418,3.8902,3.8664,3.8792,3.987,4.0528,4.0688,4.1139,4.1733,4.2503,4.2765,4.325,1.721,0.0,0.0,0.0,0.0,0.0,1.6999,1.6768,1.6819,1.8439,1.835,1.8335,1.938,1.9599,1.9357,1.8582,1.8638,1.8687,1.8457,1.7966,1.7603,1.7562,1.7551,1.7311,1.6685,1.6445,1.5723,1.4303,1.4036,1.3301,1.1856,1.0404,0.9253,0.8436,0.9062,0.949,0.9688,1.0323,1.1111,1.2096,1.2954,1.3448,1.3628,1.4447,1.5082,1.5601,1.6177,1.638,1.631,1.6321,1.5782,1.4995,1.5593,1.6404,1.7371,1.8282,1.9574,2.0867,2.0634,2.1593,2.2974,2.3102,2.3785,2.466,2.5331,2.5551,2.5609,2.5685,2.6502,2.7632,2.8821,2.9963,3.0572,2.9702,3.0165,3.0555,2.9691,3.0146,3.094,3.1613,3.2571,3.392,3.5873,3.727,3.8595,4.0004,4.0434,4.0681,4.0809,4.0896,4.0704,4.0093,3.9973,3.9529,3.8554,3.9133,3.9312,3.8801,3.9394,3.9642,3.9418,3.9064,3.8844,3.8822,4.002,4.0688,4.0688,4.1641,4.2275,4.2588,4.2786,4.3214,0.0,0.0,0.0,0.0,0.0,0.0,1.5702,1.5439,1.5369,1.7318,1.7664,1.785,1.8683,1.9125,1.9214,1.8753,1.828,1.7861,1.7574,1.6895,1.6413,1.6347,1.6338,1.613,1.5621,1.5335,1.4638,1.3308,1.2628,1.1403,0.9414,0.8939,0.8076,0.6652,0.7671,0.7617,0.6343,0.753,0.8841,1.0244,1.1209,1.1617,1.1604,1.2802,1.3558,1.3978,1.4768,1.5057,1.5029,1.5373,1.5131,1.4611,1.506,1.5937,1.6963,1.749,1.8604,1.9849,1.98,2.0576,2.1646,2.2147,2.3161,2.4309,2.4832,2.5303,2.5642,2.5689,2.6328,2.7389,2.9051,2.987,3.0037,2.9207,2.992,3.0462,2.9226,3.0171,3.139,3.1953,3.268,3.3868,3.5955,3.725,3.8411,3.972,4.023,4.053,4.073,4.0827,4.0701,4.0291,3.9871,3.924,3.8277,3.8846,3.8955,3.8309,3.925,3.9708,3.9418,3.9175,3.896,3.8833,4.0119,4.1085,4.1705,4.2296,4.267,4.2747,4.2938,4.325,0.0,0.0,0.0,0.0,1.3335,0.0,1.5147,1.4887,1.45,1.6048,1.6748,1.7195,1.7591,1.8279,1.8763,1.8682,1.7752,1.678,1.612,1.5287,1.4755,1.4687,1.4668,1.4668,1.4677,1.3999,1.3248,1.2433,1.0815,0.8918,0.6742,0.7698,0.7229,0.4898,0.6511,0.5853,0.2635,0.4081,0.5968,0.8222,0.9365,0.9892,0.9886,1.1524,1.23,1.2374,1.3199,1.3577,1.3662,1.4466,1.4683,1.4499,1.4607,1.5558,1.6913,1.7054,1.7638,1.851,1.9468,1.9863,2.0144,2.1236,2.2713,2.4096,2.4253,2.4962,2.5698,2.5698,2.6323,2.7342,2.8942,2.9363,2.9198,2.8577,2.9562,3.0236,2.8684,3.0263,3.2026,3.2117,3.2734,3.3771,3.5483,3.6906,3.812,3.9099,3.9844,4.0383,4.0655,4.0742,4.0773,4.0728,4.0015,3.9112,3.8041,3.8682,3.8689,3.7585,3.9026,3.9758,3.9425,3.9229,3.9073,3.8921,4.0185,4.161,4.3141,4.2994,4.292,4.2938,4.3123,4.3356,1.6083,1.5369,0.0,1.4041,1.2645,0.0,1.128,1.0999,1.1283,1.3252,1.2408,1.2302,1.5537,1.6215,1.6092,1.5439,1.667,1.7479,1.6879,1.5547,1.4581,1.4474,1.4501,1.4512,1.4456,1.3842,1.3105,1.2311,1.0193,0.8672,0.8054,0.7452,0.588,0.3164,0.4717,0.4645,0.2615,0.2929,0.3999,0.5809,0.7407,0.8146,0.8123,0.9159,0.9994,1.066,1.2114,1.3085,1.3742,1.4494,1.4668,1.4552,1.5215,1.6013,1.6907,1.757,1.8024,1.8453,1.9395,1.9452,1.9416,2.107,2.2333,2.3378,2.4144,2.4999,2.5691,2.5703,2.6293,2.7156,2.8189,2.8459,2.8591,2.9137,2.9518,2.9664,2.9309,3.0652,3.2136,3.2834,3.3611,3.4854,3.7115,3.7629,3.8259,3.9828,4.0157,4.0325,4.0588,4.0688,4.0241,3.9037,3.8769,3.8003,3.6404,3.7486,3.807,3.7602,3.9087,3.9826,3.9477,3.9376,3.929,3.9129,4.0468,4.1849,4.3359,4.3214,4.3123,4.316,4.3339,4.3563,1.5132,1.479,1.4004,1.3154,1.2081,0.0,0.0,1.0451,1.0586,1.1636,1.1269,1.1449,1.3681,1.3898,1.4311,1.6199,1.6124,1.5811,1.5854,1.5338,1.4907,1.4815,1.45,1.4314,1.435,1.3706,1.2668,1.1124,0.955,0.8325,0.7547,0.5687,0.4411,0.3859,0.3015,0.2153,0.1308,0.1308,0.2575,0.5111,0.5996,0.6395,0.6405,0.7711,0.8731,0.956,1.0732,1.197,1.3157,1.39,1.4586,1.5198,1.5594,1.6198,1.6885,1.7282,1.7509,1.7738,1.8267,1.8331,1.8423,1.9841,2.126,2.2492,2.2955,2.4026,2.5137,2.5535,2.596,2.6498,2.7284,2.7537,2.7761,2.8602,2.9135,2.944,2.9444,3.1057,3.2647,3.3106,3.4148,3.5604,3.7613,3.7775,3.8248,3.9986,4.0196,4.0098,3.9967,4.0045,3.9668,3.851,3.8047,3.7418,3.6467,3.7378,3.7862,3.7565,3.9087,3.9848,3.9508,3.989,4.0405,4.1036,4.157,4.2212,4.2941,4.2873,4.277,4.2613,4.2923,4.3102,1.3912,1.3881,1.3474,1.2363,1.1454,1.0761,0.0,0.0,0.0,1.0163,1.0489,1.0959,1.1538,1.1582,1.267,1.616,1.5551,1.4497,1.4071,1.4331,1.4604,1.4657,1.4524,1.4449,1.4463,1.3992,1.273,1.0398,0.9382,0.8252,0.6829,0.4045,0.2993,0.4078,0.1443,0.0,0.0,0.0,0.1386,0.4118,0.4464,0.4791,0.514,0.6567,0.7558,0.8234,0.9475,1.0888,1.2345,1.3255,1.4494,1.5859,1.5974,1.6379,1.6922,1.7172,1.7028,1.6811,1.7262,1.7326,1.7426,1.8614,2.0274,2.1822,2.2003,2.3142,2.4523,2.5174,2.5508,2.5853,2.6612,2.6715,2.6915,2.8061,2.8747,2.9239,2.9564,3.1344,3.2929,3.3149,3.4306,3.5803,3.7411,3.763,3.8137,3.9757,4.0043,3.9907,3.9369,3.9542,3.9396,3.8495,3.7988,3.7574,3.7269,3.7873,3.8146,3.7832,3.9202,3.9968,3.9849,4.0472,4.1338,4.2425,4.2217,4.2168,4.2316,4.2155,4.2014,4.1878,4.2253,4.2544,1.3415,1.2998,1.2365,1.1802,1.053,0.9167,0.8238,0.0,0.8761,0.7817,0.0,0.7471,0.8358,0.0,0.0,0.9983,1.4494,1.6518,1.2141,1.176,1.2131,1.2655,1.443,1.547,1.5127,1.5291,1.4408,1.1929,1.055,0.9097,0.7407,0.4255,0.1916,0.0615,0.0212,0.0,0.0,0.0,0.0195,0.0605,0.2146,0.3665,0.5101,0.5314,0.5442,0.5696,0.8768,1.0602,1.1544,1.3076,1.4577,1.6033,1.6583,1.683,1.7046,1.8354,1.7563,1.6079,1.7627,1.7341,1.6571,1.8407,2.0273,2.194,2.2711,2.3632,2.4415,2.4443,2.5005,2.5795,2.6586,2.6223,2.6243,2.8589,2.8686,2.864,3.0133,3.1288,3.2249,3.2967,3.3866,3.5048,3.6658,3.7247,3.789,3.9042,3.9719,3.991,3.9355,4.0041,4.0023,3.8556,3.9061,3.9133,3.824,3.8819,3.9147,3.8925,3.9719,4.0421,4.0978,4.0944,4.0854,4.0784,4.0701,4.0969,4.1605,4.09,4.0848,4.1396,4.169,4.2296,1.2839,1.2331,1.1535,1.0794,0.9893,0.8961,0.8014,0.8135,0.818,0.7323,0.0,0.0,0.0,0.0,0.0,0.0,1.0317,1.1256,0.9653,0.9923,1.1091,1.3309,1.3747,1.4234,1.5115,1.5785,1.5384,1.3534,1.1684,0.9563,0.7068,0.4082,0.1695,0.0056,0.0,0.0,0.0,0.0,0.0,0.0,0.0742,0.1462,0.2181,0.3193,0.4184,0.517,0.6593,0.8502,1.0684,1.1794,1.372,1.6012,1.6694,1.7238,1.7702,1.8175,1.7806,1.705,1.682,1.676,1.7047,1.8608,1.965,2.0559,2.1972,2.2982,2.3731,2.4175,2.4924,2.5659,2.5933,2.5708,2.5959,2.8009,2.8222,2.8452,3.021,3.1245,3.2096,3.2929,3.3757,3.4728,3.5907,3.6592,3.746,3.8884,3.9382,3.9538,3.9491,3.984,3.9689,3.858,3.8786,3.8794,3.8335,3.8941,3.9273,3.9112,3.9719,4.0418,4.1152,4.1071,4.1173,4.1473,4.1341,4.1203,4.1045,4.0635,4.0337,4.017,4.0812,4.1386,1.2234,1.1727,1.086,0.9896,0.9378,0.8812,0.7812,0.7596,0.7422,0.6619,0.6348,0.0,0.0,0.0,0.4523,0.6092,0.0,0.5107,0.6183,0.7212,0.9156,1.274,1.2791,1.2962,1.4079,1.5266,1.5348,1.3849,1.2584,1.0467,0.723,0.4555,0.2156,0.0075,0.0,0.0,0.0,0.0,0.0,0.0,0.0,0.0,0.0039,0.1305,0.2551,0.3738,0.4213,0.6063,0.8844,1.0277,1.2602,1.5338,1.6288,1.7269,1.8176,1.8172,1.7972,1.7544,1.6378,1.6432,1.7168,1.8139,1.8785,1.9446,2.0781,2.2079,2.3212,2.3785,2.4724,2.5551,2.5406,2.5379,2.5754,2.7208,2.7738,2.8338,2.9883,3.0878,3.171,3.258,3.3418,3.4234,3.5058,3.5979,3.7114,3.8597,3.9061,3.9322,3.9578,3.9863,3.9754,3.8944,3.9005,3.9096,3.9019,3.9437,3.9648,3.9487,3.989,4.0345,4.0893,4.107,4.1283,4.1595,4.1444,4.1067,4.0466,4.0352,4.0052,3.9496,4.0115,4.0622,1.1571,1.1139,1.0294,0.9349,0.8928,0.8381,0.7032,0.6483,0.599,0.507,0.4624,0.406,0.3014,0.3627,0.3758,0.2164,0.0412,0.0,0.0,0.2926,0.5412,0.9553,1.1554,1.2348,1.1671,1.3406,1.3866,1.2207,1.3161,1.2188,0.8452,0.6125,0.3398,0.0095,0.0,0.0,0.0,0.0,0.0,0.0,0.0,0.0,0.0,0.0058,0.0117,0.0253,0.1951,0.367,0.5511,0.8725,1.1438,1.3728,1.5164,1.6707,1.8181,1.8804,1.8084,1.6758,1.6826,1.664,1.634,1.6455,1.7718,1.9228,1.9354,2.1126,2.3098,2.3043,2.423,2.5473,2.534,2.5351,2.562,2.6446,2.7302,2.8151,2.906,2.997,3.0878,3.169,3.2531,3.336,3.4128,3.5556,3.694,3.799,3.8794,3.9359,3.9568,4.0396,4.0649,3.9838,4.0455,4.0894,4.0821,4.0791,4.0667,4.0466,4.0411,4.0326,4.0234,4.0919,4.0912,4.0091,3.9987,3.9924,3.9819,3.9905,3.9908,3.9889,3.9777,4.0207,1.0756,0.9875,0.8877,0.9805,0.8431,0.6851,0.6785,0.6535,0.5951,0.4598,0.2985,0.1881,0.2232,0.1912,0.1641,0.1804,0.1245,0.0777,0.0,0.3626,0.5542,0.5007,0.8097,0.9941,0.907,1.2007,1.3672,1.2984,1.2874,1.2108,1.0434,0.7659,0.4745,0.1754,0.0579,0.0,0.0,0.0,0.0,0.0,0.0,0.0,0.0,0.0,0.0,0.0039,0.0625,0.1205,0.1983,0.5317,0.8423,1.1254,1.3272,1.5329,1.7333,1.8624,1.8804,1.8283,1.7351,1.629,1.5437,1.6204,1.7322,1.8455,1.9101,2.0689,2.2224,2.2168,2.2939,2.3867,2.4274,2.4418,2.4822,2.6148,2.716,2.8071,2.8951,2.9862,3.0771,3.157,3.2008,3.2675,3.4036,3.4755,3.5832,3.7858,3.8404,3.9063,4.0429,4.0861,4.0964,4.0683,4.0908,4.0816,4.0227,4.0024,3.9888,3.9788,4.0172,4.0379,4.0342,4.0501,4.0444,4.0137,4.0057,4.0015,3.9933,3.9867,3.9826,3.9807,3.9299,3.9551,0.9973,0.845,0.6903,0.8469,0.8093,0.6942,0.547,0.5078,0.4554,0.2895,0.1095,-0.0059,0.0332,0.01,0.0264,0.1466,0.168,0.1513,0.0,0.2759,0.3806,0.2892,0.6096,0.0,0.6546,0.9617,1.193,1.257,1.3055,1.279,1.1496,0.9212,0.6563,0.3511,0.1203,0.0,0.0,0.0,0.0,0.0,0.0,0.0,0.0,0.0,0.0,0.0,0.0,0.0,0.0266,0.3588,0.6192,0.8302,1.0876,1.3338,1.5682,1.7851,1.8731,1.8694,1.7488,1.6276,1.5344,1.5842,1.6654,1.7606,1.8554,2.0002,2.1379,2.1609,2.2456,2.3392,2.3792,2.4134,2.4651,2.5703,2.6859,2.7908,2.848,2.9586,3.0623,3.1163,3.1543,3.2124,3.3211,3.3961,3.5271,3.7837,3.8258,3.8952,4.0866,4.1109,4.1097,4.1094,4.1105,4.0746,3.9844,3.9606,3.9511,3.9451,3.9822,4.0153,4.0408,4.036,4.0308,4.0272,4.0215,4.0157,4.0077,3.9977,3.9764,3.9418,3.9009,3.9127]}]]